[[{"header":{"parameterUnit":"m.s-1","parameterCategory":1,"la1":31.0,"la2":29.5877,"lo1":-88.7671,"lo2":-86.6584,"dy":0.0162,"dx":0.0185,"nx":115,"ny":88,"refTime":"2023-08-31T06:00:00:Z","depth":0,"parameterNumber":2,"parameterNumberName":"U-component_of_WINDS"},"data":[0.0,0.0,0.0,0.0,0.0,0.0,0.0,0.0,0.0,0.0,0.0,0.0,0.0,0.0,0.0,0.0,0.0,0.0,0.0,0.0,0.0,0.0,0.0,0.0,0.0,0.0,0.0,0.0,0.0,0.0,0.0,0.0,0.0,0.0,0.0,0.0,0.0,0.0,0.0,0.0,0.0,0.0,0.0,0.0,0.0,0.0,0.0,0.0,0.0,0.0,0.0,0.0,0.0,0.0,0.0,0.0,0.0,0.0,0.0,0.0,0.0,0.0,0.0,0.0,0.0,0.0,0.0,0.0,0.0,0.0,0.0,0.0,0.0,0.0,0.0,0.0,0.0,0.0,0.0,0.0,0.0,0.0,0.0,0.0,0.0,0.0,0.0,0.0,0.0,0.0,0.0,0.0,0.0,0.0,0.0,0.0,0.0,0.0,0.0,0.0,0.0,0.0,0.0,0.0,0.0,0.0,0.0,0.0,0.0,0.0,0.0,0.0,0.0,0.0,0.0,0.0,0.0,0.0,0.0,0.0,0.0,0.0,0.0,0.0,0.0,0.0,0.0,0.0,0.0,0.0,0.0,0.0,0.0,0.0,0.0,0.0,0.0,0.0,0.0,0.0,0.0,0.0,0.0,0.0,0.0,0.0,0.0,0.0,0.0,0.0,0.0,0.0,0.0,0.0,0.0,0.0,0.0,0.0,0.0,0.0,0.0,0.0,0.0,0.0,0.0,0.0,0.0,0.0,0.0,0.0,0.0,0.0,0.0,0.0,0.0,0.0,0.0,0.0,0.0,0.0,0.0,0.0,0.0,0.0,0.0,0.0,0.0,0.0,0.0,0.0,0.0,0.0,0.0,0.0,0.0,0.0,0.0,0.0,0.0,0.0,0.0,0.0,0.0,0.0,0.0,0.0,0.0,0.0,0.0,0.0,0.0,0.0,0.0,0.0,0.0,0.0,0.0,0.0,0.0,0.0,0.0,0.0,0.0,0.0,0.0,0.0,0.0,0.0,0.0,0.0,0.0,0.0,0.0,0.0,0.0,0.0,0.0,0.0,0.0,0.0,0.0,0.0,0.0,0.0,0.0,0.0,0.0,0.0,0.0,0.0,0.0,0.0,0.0,0.0,0.0,0.0,0.0,0.0,0.0,0.0,0.0,0.0,0.0,0.0,0.0,0.0,0.0,0.0,0.0,0.0,0.0,0.0,0.0,0.0,0.0,0.0,0.0,0.0,0.0,0.0,0.0,0.0,0.0,0.0,0.0,0.0,0.0,0.0,0.0,0.0,0.0,0.0,0.0,0.0,0.0,0.0,0.0,0.0,0.0,0.0,0.0,0.0,0.0,0.0,0.0,0.0,0.0,0.0,0.0,0.0,0.0,0.0,0.0,0.0,0.0,0.0,0.0,0.0,0.0,0.0,0.0,0.0,0.0,0.0,0.0,0.0,0.0,0.0,0.0,0.0,0.0,0.0,0.0,0.0,0.0,0.0,0.0,0.0,0.0,0.0,0.0,0.0,0.0,0.0,0.0,0.0,0.0,0.0,0.0,0.0,0.0,0.0,0.0,0.0,0.0,0.0,0.0,0.0,0.0,0.0,0.0,0.0,0.0,0.0,0.0,0.0,0.0,0.0,0.0,0.0,0.0,0.0,0.0,0.0,0.0,0.0,0.0,0.0,0.0,0.0,0.0,0.0,0.0,0.0,0.0,0.0,0.0,0.0,0.0,0.0,0.0,0.0,0.0,0.0,0.0,0.0,0.0,0.0,0.0,0.0,0.0,0.0,0.0,0.0,0.0,0.0,0.0,0.0,0.0,0.0,0.0,0.0,0.0,0.0,0.0,0.0,0.0,0.0,0.0,0.0,0.0,0.0,0.0,0.0,0.0,0.0,0.0,0.0,0.0,0.0,0.0,0.0,0.0,0.0,0.0,0.0,0.0,0.0,0.0,0.0,0.0,0.0,0.0,0.0,0.0,0.0,0.0,0.0,0.0,0.0,0.0,0.0,0.0,0.0,0.0,0.0,0.0,0.0,0.0,0.0,0.0,0.0,0.0,0.0,0.0,0.0,0.0,0.0,0.0,0.0,0.0,0.0,0.0,0.0,0.0,0.0,0.0,0.0,0.0,0.0,0.0,0.0,0.0,0.0,0.0,0.0,0.0,0.0,0.0,0.0,0.0,0.0,0.0,0.0,0.0,0.0,0.0,0.0,0.0,0.0,0.0,0.0,0.0,0.0,0.0,0.0,0.0,0.0,0.0,0.0,0.0,0.0,0.0,0.0,0.0,0.0,0.0,0.0,0.0,0.0,0.0,0.0,0.0,0.0,0.0,0.0,0.0,0.0,0.0,0.0,0.0,0.0,0.0,0.0,0.0,0.0,0.0,0.0,0.0,0.0,0.0,0.0,0.0,0.0,0.0,0.0,0.0,0.0,0.0,0.0,0.0,0.0,0.0,0.0,0.0,0.0,0.0,0.0,0.0,0.0,0.0,0.0,0.0,0.0,0.0,0.0,0.0,0.0,0.0,0.0,0.0,0.0,0.0,0.0,0.0,0.0,0.0,0.0,0.0,0.0,0.0,0.0,0.0,0.0,0.0,0.0,0.0,0.0,0.0,0.0,0.0,0.0,0.0,0.0,0.0,0.0,0.0,0.0,0.0,0.0,0.0,0.0,0.0,0.0,0.0,0.0,0.0,0.0,0.0,0.0,0.0,0.0,0.0,0.0,0.0,0.0,0.0,0.0,0.0,0.0,0.0,0.0,0.0,0.0,0.0,0.0,0.0,0.0,0.0,0.0,0.0,0.0,0.0,0.0,0.0,0.0,0.0,0.0,0.0,0.0,0.0,0.0,0.0,0.0,0.0,0.0,0.0,0.0,0.0,0.0,0.0,0.0,0.0,0.0,0.0,0.0,0.0,0.0,0.0,0.0,0.0,0.0,0.0,0.0,0.0,0.0,0.0,0.0,0.0,0.0,0.0,0.0,0.0,0.0,0.0,0.0,0.0,0.0,0.0,0.0,0.0,0.0,0.0,0.0,0.0,0.0,0.0,0.0,0.0,0.0,0.0,0.0,0.0,0.0,0.0,0.0,0.0,0.0,0.0,0.0,0.0,0.0,0.0,0.0,0.0,0.0,0.0,0.0,0.0,0.0,0.0,0.0,0.0,0.0,0.0,0.0,0.0,0.0,0.0,0.0,0.0,0.0,0.0,0.0,0.0,0.0,0.0,0.0,0.0,0.0,0.0,0.0,0.0,0.0,0.0,0.0,0.0,0.0,0.0,0.0,0.0,0.0,0.0,0.0,0.0,0.0,0.0,0.0,0.0,0.0,0.0,0.0,0.0,0.0,0.0,0.0,0.0,0.0,0.0,0.0,0.0,0.0,0.0,0.0,0.0,0.0,0.0,0.0,0.0,0.0,0.0,0.0,0.0,0.0,0.0,0.0,0.0,0.0,0.0,0.0,0.0,0.0,0.0,0.0,0.0,0.0,0.0,0.0,0.0,0.0,0.0,0.0,0.0,0.0,0.0,0.0,0.0,0.0,0.0,0.0,0.0,0.0,0.0,0.0,0.0,0.0,0.0,0.0,0.0,0.0,0.0,0.0,0.0,0.0,0.0,0.0,0.0,0.0,0.0,0.0,0.0,0.0,0.0,0.0,0.0,0.0,0.0,0.0,0.0,0.0,0.0,0.0,0.0,0.0,0.0,0.0,0.0,0.0,0.0,0.0,0.0,0.0,0.0,0.0,0.0,0.0,0.0,0.0,0.0,0.0,0.0,0.0,0.0,0.0,0.0,0.0,0.0,0.0,0.0,0.0,0.0,0.0,0.0,0.0,0.0,0.0,0.0,0.0,0.0,0.0,0.0,0.0,0.0,0.0,0.0,0.0,0.0,0.0,0.0,0.0,0.0,0.0,0.0,0.0,0.0,0.0,0.0,0.0,0.0,0.0,0.0,0.0,0.0,0.0,0.0,0.0,0.0,0.0,0.0,0.0,0.0,0.0,0.0,0.0,0.0,0.0,0.0,0.0,0.0,0.0,0.0,0.0,0.0,0.0,0.0,0.0,0.0,0.0,0.0,0.0,0.0,0.0,0.0,0.0,0.0,0.0,0.0,0.0,0.0,0.0,0.0,0.0,0.0,0.0,0.0,0.0,0.0,0.0,0.0,0.0,0.0,0.0,0.0,0.0,0.0,0.0,0.0,0.0,0.0,0.0,0.0,0.0,0.0,0.0,0.0,0.0,0.0,0.0,0.0,0.0,0.0,0.0,0.0,0.0,0.0,0.0,-0.9504,0.0,0.0,0.0,0.0,0.0,0.0,0.0,0.0,0.0,0.0,0.0,0.0,0.0,0.0,0.0,0.0,0.0,0.0,0.0,0.0,0.0,0.0,0.0,0.0,0.0,0.0,0.0,0.0,0.0,0.0,0.0,0.0,0.0,0.0,0.0,0.0,0.0,0.0,0.0,0.0,0.0,0.0,0.0,0.0,0.0,0.0,0.0,0.0,0.0,0.0,0.0,0.0,0.0,0.0,0.0,0.0,0.0,0.0,0.0,0.0,0.0,0.0,0.0,0.0,0.0,0.0,0.0,0.0,0.0,0.0,0.0,0.0,0.0,0.0,0.0,0.0,0.0,0.0,0.0,0.0,0.0,0.0,0.0,0.0,0.0,0.0,0.0,0.0,0.0,0.0,0.0,0.0,0.0,0.0,0.0,0.0,0.0,0.0,0.0,0.0,0.0,0.0,0.0,0.0,0.0,0.0,0.0,0.0,0.0,0.0,-0.9119,-0.9199,-0.9512,-0.9661,-0.9603,0.0,0.0,0.0,0.0,0.0,0.0,0.0,0.0,0.0,0.0,0.0,0.0,0.0,0.0,0.0,0.0,0.0,0.0,0.0,0.0,0.0,0.0,0.0,0.0,0.0,0.0,0.0,0.0,0.0,0.0,0.0,0.0,0.0,0.0,0.0,0.0,0.0,0.0,0.0,0.0,0.0,0.0,0.0,0.0,0.0,0.0,0.0,0.0,0.0,0.0,0.0,0.0,0.0,0.0,0.0,0.0,0.0,0.0,0.0,0.0,0.0,0.0,0.0,0.0,0.0,0.0,0.0,0.0,0.0,0.0,0.0,0.0,0.0,0.0,0.0,0.0,0.0,0.0,0.0,0.0,0.0,0.0,0.0,0.0,0.0,0.0,0.0,0.0,0.0,0.0,0.0,0.0,0.0,0.0,0.0,0.0,0.0,0.0,0.0,0.0,0.0,0.0,0.0,0.0,0.0,0.0,0.0,0.0,0.0,0.0,0.0,0.0,-0.9597,-0.9678,-0.9506,0.0,0.0,0.0,0.0,0.0,0.0,0.0,0.0,0.0,0.0,0.0,0.0,0.0,0.0,0.0,0.0,0.0,0.0,0.0,0.0,0.0,0.0,0.0,0.0,0.0,0.0,0.0,0.0,0.0,0.0,0.0,0.0,0.0,0.0,0.0,0.0,0.0,0.0,0.0,0.0,0.0,0.0,0.0,0.0,0.0,0.0,0.0,0.0,0.0,0.0,0.0,0.0,0.0,0.0,0.0,0.0,0.0,0.0,0.0,0.0,0.0,0.0,0.0,0.0,0.0,0.0,0.0,0.0,0.0,0.0,0.0,0.0,0.0,0.0,0.0,0.0,0.0,0.0,0.0,0.0,0.0,0.0,0.0,0.0,0.0,0.0,0.0,0.0,0.0,0.0,0.0,0.0,0.0,0.0,0.0,0.0,0.0,0.0,0.0,0.0,0.0,0.0,0.0,0.0,0.0,0.0,0.0,0.0,0.0,0.0,-0.8983,-0.9709,-0.985,0.0,-0.9274,0.0,0.0,0.0,0.0,0.0,0.0,0.0,0.0,0.0,0.0,0.0,0.0,0.0,0.0,0.0,0.0,0.0,0.0,0.0,0.0,0.0,0.0,0.0,0.0,0.0,0.0,0.0,0.0,0.0,0.0,0.0,0.0,0.0,0.0,0.0,0.0,0.0,0.0,0.0,0.0,0.0,0.0,0.0,0.0,0.0,0.0,0.0,0.0,0.0,0.0,0.0,0.0,0.0,0.0,0.0,0.0,0.0,0.0,0.0,0.0,0.0,0.0,0.0,0.0,0.0,0.0,0.0,0.0,0.0,0.0,0.0,0.0,0.0,0.0,0.0,0.0,0.0,0.0,0.0,0.0,0.0,0.0,0.0,0.0,0.0,0.0,0.0,0.0,0.0,0.0,0.0,0.0,0.0,0.0,0.0,0.0,0.0,0.0,0.0,0.0,0.0,0.0,0.0,0.0,0.0,0.0,0.0,0.0,0.0,0.0,-0.9433,-1.0098,-1.0051,-0.9757,0.0,0.0,0.0,0.0,0.0,0.0,0.0,0.0,0.0,0.0,0.0,0.0,0.0,0.0,0.0,0.0,0.0,0.0,0.0,0.0,0.0,0.0,0.0,0.0,0.0,0.0,0.0,0.0,0.0,0.0,0.0,0.0,0.0,0.0,0.0,0.0,0.0,0.0,0.0,0.0,0.0,0.0,0.0,0.0,0.0,0.0,0.0,0.0,0.0,0.0,0.0,0.0,0.0,0.0,0.0,0.0,0.0,0.0,0.0,0.0,0.0,0.0,0.0,0.0,0.0,0.0,0.0,0.0,0.0,0.0,0.0,0.0,0.0,0.0,0.0,0.0,0.0,0.0,0.0,0.0,0.0,0.0,0.0,0.0,0.0,0.0,0.0,0.0,0.0,0.0,0.0,0.0,0.0,0.0,0.0,0.0,0.0,0.0,0.0,0.0,0.0,0.0,0.0,0.0,0.0,0.0,0.0,0.0,0.0,0.0,-0.9211,-0.9741,-1.0346,-1.0387,-0.9988,-0.9115,0.0,0.0,0.0,0.0,0.0,0.0,0.0,0.0,0.0,0.0,0.0,0.0,0.0,0.0,0.0,0.0,0.0,0.0,0.0,0.0,0.0,0.0,0.0,0.0,0.0,0.0,0.0,0.0,0.0,0.0,0.0,0.0,0.0,0.0,0.0,0.0,0.0,0.0,0.0,0.0,0.0,0.0,0.0,0.0,0.0,0.0,0.0,0.0,0.0,0.0,0.0,0.0,0.0,0.0,0.0,0.0,0.0,0.0,0.0,0.0,0.0,0.0,0.0,0.0,0.0,0.0,0.0,0.0,0.0,0.0,0.0,0.0,0.0,0.0,0.0,0.0,0.0,0.0,0.0,0.0,0.0,0.0,0.0,0.0,0.0,0.0,0.0,0.0,0.0,0.0,0.0,0.0,0.0,0.0,0.0,0.0,0.0,0.0,0.0,0.0,0.0,0.0,0.0,0.0,0.0,0.0,0.0,0.0,-0.9741,-0.9474,-0.9714,-1.0566,-1.0905,-1.0361,0.0,0.0,0.0,0.0,0.0,0.0,0.0,0.0,0.0,0.0,0.0,0.0,0.0,0.0,0.0,0.0,0.0,0.0,0.0,0.0,0.0,0.0,0.0,0.0,0.0,0.0,0.0,0.0,0.0,0.0,0.0,0.0,0.0,0.0,0.0,0.0,0.0,0.0,0.0,0.0,0.0,0.0,0.0,0.0,0.0,0.0,0.0,0.0,0.0,0.0,0.0,0.0,0.0,0.0,0.0,0.0,0.0,0.0,0.0,0.0,0.0,0.0,0.0,0.0,0.0,0.0,0.0,0.0,0.0,0.0,0.0,0.0,0.0,0.0,0.0,0.0,0.0,0.0,0.0,0.0,0.0,0.0,0.0,0.0,0.0,0.0,0.0,0.0,0.0,0.0,0.0,0.0,0.0,0.0,0.0,0.0,0.0,0.0,0.0,0.0,0.0,0.0,0.0,0.0,0.0,0.0,0.0,0.0,0.0,-0.8932,-0.9525,-1.0327,-1.1343,-1.0438,-0.9721,0.0,0.0,0.0,0.0,0.0,0.0,0.0,0.0,0.0,0.0,0.0,0.0,0.0,0.0,0.0,0.0,0.0,0.0,0.0,0.0,0.0,0.0,0.0,0.0,0.0,0.0,0.0,0.0,0.0,0.0,0.0,0.0,0.0,0.0,0.0,0.0,0.0,0.0,0.0,0.0,0.0,0.0,0.0,0.0,0.0,0.0,0.0,0.0,0.0,0.0,0.0,0.0,0.0,0.0,0.0,0.0,0.0,0.0,0.0,0.0,0.0,0.0,0.0,0.0,0.0,0.0,0.0,0.0,0.0,0.0,0.0,0.0,0.0,0.0,0.0,0.0,0.0,0.0,0.0,0.0,0.0,0.0,0.0,0.0,0.0,0.0,0.0,0.0,0.0,0.0,0.0,0.0,0.0,0.0,0.0,0.0,0.0,0.0,0.0,0.0,0.0,0.0,0.0,0.0,0.0,0.0,0.0,0.0,0.0,-0.9004,0.0,-1.1034,-1.1301,-1.0325,-0.9584,0.0,0.0,0.0,0.0,0.0,0.0,0.0,0.0,0.0,0.0,0.0,0.0,0.0,0.0,0.0,0.0,0.0,0.0,0.0,0.0,0.0,0.0,0.0,0.0,0.0,0.0,0.0,0.0,0.0,0.0,0.0,0.0,0.0,0.0,0.0,0.0,0.0,0.0,0.0,0.0,0.0,0.0,0.0,0.0,0.0,0.0,0.0,0.0,0.0,0.0,0.0,0.0,0.0,0.0,0.0,0.0,0.0,0.0,0.0,0.0,0.0,0.0,0.0,0.0,0.0,0.0,0.0,0.0,0.0,0.0,0.0,0.0,0.0,0.0,0.0,0.0,0.0,0.0,0.0,0.0,0.0,0.0,0.0,0.0,0.0,0.0,0.0,0.0,0.0,0.0,0.0,0.0,0.0,0.0,0.0,0.0,0.0,0.0,0.0,0.0,0.0,0.0,0.0,0.0,0.0,0.0,0.0,0.0,-0.9132,-1.0184,-1.1593,-1.173,-1.0405,-1.0654,-1.0003,0.0,0.0,0.0,0.0,0.0,0.0,0.0,0.0,0.0,0.0,0.0,0.0,0.0,0.0,0.0,0.0,0.0,0.0,0.0,0.0,0.0,0.0,0.0,0.0,0.0,0.0,0.0,0.0,0.0,0.0,0.0,0.0,0.0,0.0,0.0,0.0,0.0,0.0,0.0,0.0,0.0,0.0,0.0,0.0,0.0,0.0,0.0,0.0,0.0,0.0,0.0,0.0,0.0,0.0,0.0,0.0,0.0,0.0,0.0,0.0,0.0,0.0,0.0,0.0,0.0,0.0,0.0,0.0,0.0,0.0,0.0,0.0,0.0,0.0,0.0,0.0,0.0,0.0,0.0,0.0,0.0,0.0,0.0,0.0,0.0,0.0,0.0,0.0,0.0,0.0,0.0,0.0,0.0,0.0,0.0,0.0,0.0,0.0,0.0,0.0,0.0,0.0,0.0,0.0,0.0,0.0,0.0,0.0,0.0,-1.018,-1.1721,-1.2167,-1.1437,-1.0864,-1.0208,0.0,0.0,0.0,0.0,0.0,0.0,0.0,0.0,0.0,0.0,0.0,0.0,0.0,0.0,0.0,0.0,0.0,0.0,0.0,0.0,0.0,0.0,0.0,0.0,0.0,0.0,0.0,0.0,0.0,0.0,0.0,0.0,0.0,0.0,0.0,0.0,0.0,0.0,0.0,0.0,0.0,0.0,0.0,0.0,0.0,0.0,0.0,0.0,0.0,0.0,0.0,0.0,0.0,0.0,0.0,0.0,0.0,0.0,0.0,0.0,0.0,0.0,0.0,0.0,0.0,0.0,0.0,0.0,0.0,0.0,0.0,0.0,0.0,0.0,0.0,0.0,0.0,0.0,0.0,0.0,0.0,0.0,0.0,0.0,0.0,0.0,0.0,0.0,0.0,0.0,0.0,0.0,0.0,0.0,0.0,0.0,0.0,0.0,0.0,0.0,0.0,0.0,0.0,0.0,0.0,0.0,0.0,0.0,0.0,-1.1724,-1.2914,-1.3066,-1.2012,-1.1276,-1.0494,-0.9714,0.0,0.0,0.0,0.0,0.0,0.0,0.0,0.0,0.0,0.0,0.0,0.0,0.0,0.0,0.0,0.0,0.0,0.0,0.0,0.0,0.0,0.0,0.0,0.0,0.0,0.0,0.0,0.0,0.0,0.0,0.0,0.0,0.0,0.0,0.0,0.0,0.0,0.0,0.0,0.0,0.0,0.0,0.0,0.0,0.0,0.0,0.0,0.0,0.0,0.0,0.0,0.0,0.0,0.0,0.0,0.0,0.0,0.0,0.0,0.0,0.0,0.0,0.0,0.0,0.0,0.0,0.0,0.0,0.0,0.0,0.0,0.0,0.0,0.0,0.0,0.0,0.0,0.0,0.0,0.0,0.0,0.0,0.0,0.0,0.0,0.0,0.0,0.0,0.0,0.0,0.0,0.0,0.0,0.0,0.0,0.0,0.0,0.0,0.0,0.0,0.0,0.0,0.0,0.0,0.0,0.0,0.0,0.0,-1.4307,-1.4963,-1.4331,-1.2375,-1.2015,-1.0989,0.0,0.0,0.0,0.0,0.0,0.0,0.0,0.0,0.0,0.0,0.0,0.0,0.0,0.0,0.0,0.0,0.0,0.0,0.0,0.0,0.0,0.0,0.0,0.0,0.0,0.0,0.0,0.0,0.0,0.0,0.0,0.0,0.0,0.0,0.0,0.0,0.0,0.0,0.0,0.0,0.0,0.0,0.0,0.0,0.0,0.0,0.0,0.0,0.0,0.0,0.0,0.0,0.0,0.0,0.0,0.0,0.0,0.0,0.0,0.0,0.0,0.0,0.0,0.0,0.0,0.0,0.0,0.0,0.0,0.0,0.0,0.0,0.0,0.0,0.0,0.0,0.0,0.0,0.0,0.0,0.0,0.0,0.0,0.0,0.0,0.0,0.0,0.0,0.0,0.0,0.0,0.0,0.0,0.0,0.0,0.0,0.0,0.0,0.0,0.0,0.0,0.0,0.0,0.0,0.0,0.0,0.0,0.0,0.0,-1.5587,-1.6296,-1.5944,-1.446,-1.3892,-1.2786,0.0,0.0,0.0,0.0,0.0,0.0,0.0,0.0,0.0,0.0,0.0,0.0,0.0,0.0,0.0,0.0,0.0,0.0,0.0,0.0,0.0,0.0,0.0,0.0,0.0,0.0,0.0,0.0,0.0,0.0,0.0,0.0,0.0,0.0,0.0,0.0,0.0,0.0,0.0,0.0,0.0,0.0,0.0,0.0,0.0,0.0,0.0,0.0,0.0,0.0,0.0,0.0,0.0,0.0,0.0,0.0,0.0,0.0,0.0,0.0,0.0,0.0,0.0,0.0,0.0,0.0,0.0,0.0,0.0,0.0,0.0,0.0,0.0,0.0,0.0,0.0,0.0,0.0,0.0,0.0,0.0,0.0,0.0,0.0,0.0,0.0,0.0,0.0,0.0,0.0,0.0,0.0,0.0,0.0,0.0,0.0,0.0,0.0,0.0,0.0,0.0,0.0,0.0,0.0,0.0,0.0,0.0,0.0,-1.5451,-1.6676,-1.7367,-1.7369,-1.6686,-1.561,-1.405,0.0,0.0,0.0,0.0,0.0,0.0,0.0,0.0,0.0,0.0,0.0,0.0,0.0,0.0,0.0,0.0,0.0,0.0,0.0,0.0,0.0,0.0,0.0,0.0,0.0,0.0,0.0,0.0,0.0,0.0,0.0,0.0,0.0,0.0,0.0,0.0,0.0,0.0,0.0,0.0,0.0,0.0,0.0,0.0,0.0,0.0,0.0,0.0,0.0,0.0,0.0,0.0,0.0,0.0,0.0,0.0,0.0,0.0,0.0,0.0,0.0,0.0,0.0,0.0,0.0,0.0,0.0,0.0,0.0,0.0,0.0,0.0,0.0,0.0,0.0,0.0,0.0,0.0,0.0,0.0,0.0,0.0,0.0,0.0,0.0,0.0,0.0,0.0,0.0,0.0,0.0,0.0,0.0,0.0,0.0,0.0,0.0,0.0,0.0,0.0,0.0,0.0,0.0,0.0,0.0,0.0,0.0,0.0,-1.5963,-1.7569,-1.8161,-1.8504,-1.864,-1.7071,-1.4957,0.0,0.0,0.0,0.0,0.0,0.0,0.0,0.0,0.0,0.0,0.0,0.0,0.0,0.0,0.0,0.0,0.0,0.0,0.0,0.0,0.0,0.0,0.0,0.0,0.0,0.0,0.0,0.0,0.0,0.0,0.0,0.0,0.0,0.0,0.0,0.0,0.0,0.0,0.0,0.0,0.0,0.0,0.0,0.0,0.0,0.0,0.0,0.0,0.0,0.0,0.0,0.0,0.0,0.0,0.0,0.0,0.0,0.0,0.0,0.0,0.0,0.0,0.0,0.0,0.0,0.0,0.0,0.0,0.0,0.0,0.0,0.0,0.0,0.0,0.0,0.0,0.0,0.0,0.0,0.0,0.0,0.0,0.0,0.0,0.0,0.0,0.0,0.0,0.0,0.0,0.0,0.0,0.0,0.0,0.0,0.0,0.0,0.0,0.0,0.0,0.0,0.0,0.0,0.0,0.0,0.0,0.0,0.0,-1.6643,-1.7794,-1.8352,-1.8676,-1.8667,-1.7433,-1.5602,0.0,0.0,0.0,0.0,0.0,0.0,0.0,0.0,0.0,0.0,0.0,0.0,0.0,0.0,0.0,0.0,0.0,0.0,0.0,0.0,0.0,0.0,0.0,0.0,0.0,0.0,0.0,0.0,0.0,0.0,0.0,0.0,0.0,0.0,0.0,0.0,0.0,0.0,0.0,0.0,0.0,0.0,0.0,0.0,0.0,0.0,0.0,0.0,-1.3936,0.0,0.0,0.0,0.0,0.0,0.0,0.0,0.0,0.0,0.0,0.0,0.0,0.0,0.0,0.0,0.0,0.0,0.0,0.0,0.0,0.0,0.0,0.0,0.0,0.0,0.0,0.0,0.0,0.0,0.0,0.0,0.0,0.0,0.0,0.0,0.0,0.0,0.0,0.0,0.0,0.0,0.0,0.0,0.0,0.0,0.0,0.0,0.0,0.0,0.0,0.0,0.0,0.0,0.0,0.0,0.0,0.0,0.0,0.0,-1.7143,-1.8102,-1.8711,-1.8999,-1.8953,-1.8009,-1.645,0.0,0.0,0.0,0.0,0.0,0.0,0.0,0.0,0.0,0.0,0.0,0.0,0.0,0.0,0.0,0.0,0.0,0.0,0.0,0.0,0.0,0.0,0.0,0.0,0.0,0.0,0.0,0.0,0.0,0.0,0.0,0.0,0.0,0.0,0.0,0.0,0.0,0.0,0.0,0.0,0.0,0.0,0.0,0.0,0.0,0.0,0.0,0.0,0.0,0.0,0.0,0.0,0.0,0.0,0.0,0.0,0.0,0.0,0.0,0.0,0.0,0.0,0.0,0.0,0.0,0.0,0.0,0.0,0.0,0.0,0.0,0.0,0.0,0.0,0.0,0.0,0.0,0.0,0.0,0.0,0.0,0.0,0.0,0.0,0.0,0.0,0.0,0.0,0.0,0.0,0.0,0.0,0.0,0.0,0.0,0.0,0.0,0.0,0.0,0.0,0.0,0.0,0.0,0.0,0.0,0.0,0.0,-1.659,-1.752,-1.852,-1.904,-1.9292,-1.9283,-1.854,-1.7238,-1.5345,0.0,0.0,0.0,0.0,0.0,0.0,0.0,0.0,0.0,0.0,0.0,0.0,0.0,0.0,0.0,0.0,0.0,0.0,0.0,0.0,0.0,0.0,0.0,0.0,0.0,0.0,0.0,0.0,0.0,0.0,0.0,0.0,0.0,0.0,0.0,0.0,0.0,0.0,-1.5111,-1.5921,0.0,0.0,0.0,0.0,0.0,0.0,0.0,0.0,-1.6285,0.0,0.0,0.0,0.0,0.0,0.0,0.0,0.0,0.0,0.0,0.0,0.0,0.0,0.0,0.0,0.0,0.0,0.0,0.0,0.0,0.0,0.0,0.0,0.0,0.0,0.0,0.0,0.0,0.0,0.0,0.0,0.0,0.0,0.0,0.0,0.0,0.0,0.0,0.0,0.0,0.0,0.0,0.0,0.0,0.0,0.0,0.0,0.0,0.0,0.0,0.0,0.0,0.0,0.0,0.0,0.0,-1.6705,-1.7009,-1.7795,-1.9125,-1.9265,-1.9292,-1.9274,-1.8493,-1.7495,-1.6132,0.0,0.0,0.0,0.0,0.0,0.0,0.0,0.0,0.0,0.0,0.0,0.0,0.0,0.0,0.0,0.0,0.0,0.0,0.0,0.0,0.0,0.0,0.0,0.0,0.0,0.0,0.0,0.0,0.0,0.0,0.0,0.0,0.0,0.0,0.0,0.0,0.0,0.0,0.0,-1.7149,-1.7852,0.0,0.0,0.0,0.0,0.0,0.0,0.0,0.0,-1.7081,0.0,0.0,0.0,0.0,0.0,0.0,0.0,0.0,0.0,0.0,0.0,0.0,0.0,0.0,0.0,0.0,0.0,0.0,0.0,0.0,0.0,0.0,0.0,0.0,0.0,0.0,0.0,0.0,0.0,0.0,0.0,0.0,0.0,0.0,0.0,0.0,0.0,0.0,0.0,0.0,0.0,0.0,0.0,0.0,0.0,0.0,0.0,0.0,0.0,0.0,0.0,0.0,0.0,0.0,0.0,-1.7691,-1.834,-1.9251,-2.0527,-2.0148,-1.9809,-1.9572,-1.8434,-1.733,0.0,0.0,0.0,0.0,0.0,0.0,0.0,0.0,0.0,0.0,0.0,0.0,0.0,0.0,0.0,0.0,0.0,0.0,0.0,0.0,0.0,0.0,0.0,0.0,0.0,0.0,0.0,0.0,0.0,0.0,0.0,0.0,0.0,0.0,0.0,0.0,0.0,0.0,0.0,0.0,-1.7455,-1.8178,-1.8503,0.0,0.0,0.0,0.0,0.0,0.0,-1.7088,-1.7379,0.0,0.0,0.0,0.0,0.0,0.0,0.0,0.0,0.0,0.0,0.0,0.0,0.0,0.0,0.0,0.0,0.0,0.0,0.0,0.0,0.0,0.0,0.0,0.0,0.0,0.0,0.0,0.0,0.0,0.0,0.0,0.0,0.0,0.0,0.0,0.0,0.0,0.0,0.0,0.0,0.0,0.0,0.0,0.0,0.0,0.0,0.0,0.0,0.0,0.0,0.0,0.0,0.0,0.0,0.0,-1.8384,-1.9383,-2.0467,-2.1542,-2.1066,-2.0552,-2.0108,-1.8678,-1.7439,0.0,0.0,0.0,0.0,0.0,0.0,0.0,0.0,0.0,0.0,0.0,0.0,0.0,0.0,0.0,0.0,0.0,0.0,0.0,0.0,0.0,0.0,0.0,0.0,0.0,0.0,0.0,0.0,0.0,0.0,0.0,0.0,0.0,0.0,0.0,0.0,0.0,0.0,0.0,0.0,0.0,-1.8571,-1.9237,-1.8635,0.0,0.0,0.0,0.0,-1.7301,-1.7631,0.0,0.0,0.0,0.0,0.0,0.0,0.0,0.0,0.0,0.0,0.0,0.0,0.0,0.0,0.0,0.0,0.0,0.0,0.0,0.0,0.0,0.0,0.0,0.0,0.0,0.0,0.0,0.0,0.0,0.0,0.0,0.0,0.0,0.0,0.0,0.0,0.0,0.0,0.0,0.0,0.0,0.0,0.0,0.0,0.0,0.0,0.0,0.0,0.0,0.0,0.0,0.0,0.0,0.0,0.0,0.0,-1.7865,-1.9154,-2.0209,-2.1061,-2.1484,-2.1398,-2.0872,-1.9707,-1.8523,0.0,0.0,0.0,0.0,0.0,0.0,0.0,0.0,0.0,0.0,0.0,0.0,0.0,0.0,0.0,0.0,0.0,0.0,0.0,0.0,0.0,0.0,0.0,0.0,0.0,0.0,0.0,0.0,0.0,0.0,0.0,0.0,0.0,0.0,0.0,0.0,0.0,0.0,0.0,0.0,0.0,-2.0021,-1.8641,-1.9119,-1.945,0.0,0.0,-1.9078,-1.9247,-1.967,0.0,0.0,0.0,0.0,0.0,0.0,0.0,0.0,0.0,0.0,0.0,0.0,0.0,0.0,0.0,0.0,0.0,0.0,0.0,0.0,0.0,0.0,0.0,0.0,0.0,0.0,0.0,0.0,0.0,0.0,0.0,0.0,0.0,0.0,0.0,0.0,0.0,0.0,0.0,0.0,0.0,0.0,0.0,0.0,0.0,0.0,0.0,0.0,0.0,0.0,0.0,0.0,0.0,0.0,0.0,-1.7051,-1.9008,-2.0532,-2.164,-2.2319,-2.2444,-2.2104,-2.1357,-2.0209,-1.8676,0.0,0.0,0.0,0.0,0.0,0.0,0.0,0.0,0.0,0.0,0.0,0.0,0.0,0.0,0.0,0.0,0.0,0.0,0.0,0.0,0.0,0.0,0.0,0.0,0.0,0.0,0.0,0.0,0.0,0.0,0.0,0.0,0.0,0.0,0.0,0.0,0.0,0.0,0.0,0.0,0.0,0.0,-2.0843,-2.0577,0.0,0.0,0.0,-2.0189,-2.0653,0.0,0.0,0.0,0.0,0.0,0.0,0.0,0.0,0.0,0.0,0.0,0.0,0.0,0.0,0.0,0.0,0.0,0.0,0.0,0.0,0.0,0.0,0.0,0.0,0.0,0.0,0.0,0.0,0.0,0.0,0.0,0.0,0.0,0.0,0.0,0.0,0.0,0.0,0.0,0.0,0.0,0.0,0.0,0.0,0.0,0.0,0.0,0.0,0.0,0.0,0.0,0.0,0.0,0.0,0.0,0.0,0.0,-1.9609,-2.1391,-2.256,-2.3212,-2.3156,-2.2712,-2.1894,-2.0799,0.0,0.0,0.0,0.0,0.0,0.0,0.0,0.0,0.0,0.0,0.0,0.0,0.0,0.0,0.0,0.0,0.0,0.0,0.0,0.0,0.0,0.0,0.0,0.0,0.0,0.0,0.0,-1.3997,0.0,0.0,0.0,0.0,0.0,0.0,0.0,0.0,0.0,0.0,0.0,0.0,0.0,0.0,-2.1267,-2.2691,-2.2256,-2.2253,0.0,0.0,-2.1859,-2.2004,-2.1528,-2.0534,0.0,0.0,0.0,0.0,0.0,0.0,0.0,0.0,0.0,0.0,0.0,0.0,0.0,0.0,0.0,0.0,0.0,0.0,0.0,0.0,0.0,0.0,0.0,0.0,0.0,0.0,0.0,0.0,0.0,0.0,0.0,0.0,0.0,0.0,0.0,0.0,0.0,0.0,0.0,0.0,0.0,0.0,0.0,0.0,0.0,0.0,0.0,0.0,0.0,0.0,0.0,0.0,0.0,0.0,-1.8008,-1.8643,-2.0805,-2.2192,-2.2719,-2.3166,-2.3131,-2.2628,-2.1862,-2.0543,0.0,0.0,0.0,0.0,0.0,0.0,0.0,0.0,0.0,0.0,0.0,0.0,0.0,0.0,0.0,0.0,0.0,0.0,0.0,0.0,0.0,0.0,0.0,0.0,0.0,0.0,0.0,0.0,0.0,0.0,0.0,0.0,0.0,0.0,0.0,0.0,0.0,0.0,0.0,0.0,0.0,-2.2996,-2.2822,-2.3988,-2.4826,0.0,0.0,-2.4724,-2.3294,-2.3867,-2.3129,-1.9243,0.0,0.0,0.0,0.0,0.0,0.0,0.0,0.0,0.0,0.0,0.0,0.0,0.0,0.0,0.0,0.0,0.0,0.0,0.0,0.0,0.0,0.0,0.0,0.0,0.0,0.0,0.0,0.0,0.0,0.0,0.0,0.0,0.0,0.0,0.0,0.0,0.0,0.0,0.0,0.0,0.0,0.0,0.0,0.0,0.0,0.0,0.0,0.0,0.0,0.0,0.0,0.0,0.0,-1.8194,-1.9064,-2.0928,-2.1986,-2.2226,-2.2708,-2.2731,-2.2226,-2.1935,-2.0693,0.0,0.0,0.0,0.0,0.0,0.0,0.0,0.0,0.0,0.0,0.0,0.0,0.0,0.0,0.0,0.0,0.0,0.0,0.0,0.0,0.0,0.0,0.0,0.0,0.0,0.0,0.0,0.0,-1.5371,-1.5743,-1.585,0.0,0.0,0.0,0.0,0.0,0.0,0.0,0.0,0.0,0.0,-2.4115,-2.496,-2.5256,0.0,0.0,-2.6205,-2.5571,-2.5814,-2.4754,-2.3241,-2.1398,-2.0096,0.0,0.0,0.0,0.0,0.0,0.0,0.0,0.0,0.0,0.0,0.0,0.0,0.0,0.0,0.0,0.0,0.0,0.0,0.0,0.0,0.0,0.0,0.0,0.0,0.0,0.0,0.0,0.0,0.0,0.0,0.0,0.0,0.0,0.0,0.0,0.0,0.0,0.0,0.0,0.0,0.0,0.0,0.0,0.0,0.0,0.0,0.0,0.0,0.0,0.0,0.0,0.0,-1.8419,-1.9168,-2.0854,-2.1778,-2.1927,-2.2421,-2.2432,-2.1929,-2.2192,-2.1229,0.0,0.0,0.0,0.0,0.0,0.0,0.0,0.0,0.0,0.0,0.0,0.0,0.0,0.0,0.0,0.0,0.0,0.0,0.0,0.0,0.0,0.0,0.0,0.0,0.0,0.0,0.0,0.0,-1.6709,-1.7002,-1.682,0.0,0.0,0.0,0.0,0.0,0.0,0.0,0.0,0.0,0.0,-2.539,-2.6655,-2.6593,-2.6904,-2.8291,-2.7357,-2.6617,-2.7006,-2.557,-2.4025,-2.2775,0.0,0.0,0.0,0.0,0.0,0.0,0.0,0.0,0.0,0.0,0.0,0.0,0.0,0.0,0.0,0.0,0.0,0.0,0.0,0.0,0.0,0.0,0.0,0.0,0.0,0.0,0.0,0.0,0.0,0.0,-1.4799,0.0,0.0,0.0,0.0,0.0,0.0,0.0,0.0,0.0,0.0,0.0,0.0,0.0,0.0,0.0,0.0,0.0,0.0,0.0,0.0,0.0,0.0,-1.8692,-1.8737,-2.0404,-2.1422,-2.1883,-2.2409,-2.2432,-2.194,-2.2846,-2.241,-2.0381,0.0,0.0,0.0,0.0,0.0,0.0,0.0,0.0,0.0,0.0,0.0,0.0,0.0,0.0,0.0,0.0,0.0,0.0,0.0,0.0,0.0,0.0,0.0,0.0,0.0,0.0,-1.7657,-1.7873,-1.755,0.0,0.0,0.0,0.0,0.0,0.0,0.0,0.0,0.0,0.0,-2.5841,-2.704,-2.7579,-2.8083,-2.8395,-2.8459,-2.8593,-2.8114,-2.6375,-2.6566,-2.5955,0.0,0.0,0.0,0.0,0.0,0.0,0.0,0.0,0.0,0.0,0.0,0.0,0.0,0.0,0.0,0.0,0.0,0.0,0.0,0.0,0.0,0.0,0.0,0.0,0.0,0.0,0.0,-1.874,-1.8307,0.0,0.0,0.0,0.0,0.0,0.0,0.0,0.0,0.0,0.0,0.0,-2.0171,-2.0341,0.0,0.0,0.0,0.0,0.0,0.0,0.0,0.0,0.0,0.0,0.0,0.0,-1.9091,-1.9888,-2.0746,-2.141,-2.1883,-2.2088,-2.2099,-2.1906,-2.2581,-2.22,-2.0653,0.0,0.0,0.0,0.0,0.0,0.0,0.0,0.0,0.0,0.0,0.0,0.0,0.0,0.0,0.0,0.0,0.0,0.0,0.0,0.0,0.0,0.0,0.0,0.0,0.0,-1.8518,0.0,0.0,0.0,0.0,0.0,0.0,0.0,0.0,0.0,0.0,0.0,-2.4927,-2.5949,-2.7162,-2.8002,-2.8182,-2.8402,-2.851,0.0,0.0,0.0,0.0,0.0,0.0,0.0,0.0,0.0,0.0,0.0,0.0,0.0,0.0,-2.5242,-2.2968,-2.2166,-2.1927,-2.2021,0.0,0.0,0.0,0.0,0.0,0.0,0.0,0.0,0.0,0.0,0.0,0.0,0.0,0.0,-2.0534,0.0,-2.0498,0.0,0.0,0.0,0.0,0.0,0.0,0.0,0.0,-2.1672,-2.2432,-2.2604,-2.2801,-2.2921,0.0,-2.2025,-2.0803,0.0,0.0,0.0,0.0,0.0,0.0,0.0,0.0,-2.0032,-2.0799,-2.1728,-2.2317,-2.2642,-2.2986,-2.2977,-2.258,-2.2647,-2.2257,-2.1307,-2.0162,-1.9275,0.0,0.0,0.0,0.0,0.0,0.0,0.0,0.0,0.0,0.0,0.0,0.0,0.0,0.0,0.0,0.0,0.0,0.0,0.0,0.0,0.0,0.0,0.0,-1.975,0.0,0.0,0.0,0.0,0.0,0.0,0.0,0.0,0.0,-2.3568,-2.4879,-2.6202,-2.7054,-2.7957,-2.851,-2.851,0.0,0.0,0.0,0.0,0.0,0.0,0.0,-2.7604,-2.7421,-2.6723,-2.6253,-2.6427,-2.7469,-2.8089,-2.737,0.0,0.0,-2.5373,-2.4505,-2.4246,-2.4377,-2.4587,-2.4822,-2.4957,-2.5409,-2.5997,0.0,0.0,0.0,0.0,0.0,0.0,0.0,0.0,-2.1147,-2.1495,0.0,-2.2096,0.0,0.0,0.0,0.0,0.0,-2.1973,0.0,0.0,-2.486,-2.5635,-2.5225,-2.5509,-2.5532,-2.5185,-2.4262,-2.377,-2.3529,-2.1321,0.0,0.0,0.0,0.0,0.0,0.0,-2.1478,-2.1553,-2.3143,-2.4035,-2.4054,-2.5016,-2.5026,-2.3828,-2.3087,-2.2613,-2.2383,-2.1835,-2.1025,-1.9901,-1.9287,0.0,0.0,0.0,0.0,0.0,0.0,0.0,0.0,0.0,0.0,0.0,0.0,0.0,0.0,0.0,0.0,0.0,0.0,0.0,0.0,-2.0115,0.0,0.0,0.0,0.0,0.0,0.0,0.0,0.0,0.0,0.0,-2.476,-2.5997,-2.715,-2.7642,0.0,0.0,0.0,0.0,-2.8727,-2.9244,-2.9508,-2.9476,-2.8913,-2.9466,-2.9443,-2.8077,0.0,0.0,-2.7509,-2.8699,-2.9415,-2.8386,-2.9051,-2.95,-2.847,-2.7471,-2.704,-2.7471,-2.7668,-2.7902,-2.8002,-2.8612,-2.9351,-2.5175,0.0,0.0,0.0,0.0,-2.2992,-2.3754,-2.4928,-2.5055,-2.4774,-2.4284,-2.4291,0.0,0.0,0.0,0.0,0.0,0.0,-2.3577,-2.4018,-2.5355,-2.5877,-2.5709,-2.605,-2.6214,-2.6244,-2.5398,-2.528,-2.5743,-2.4695,-2.3073,-2.0992,0.0,0.0,0.0,0.0,-2.2799,-2.3354,-2.4218,-2.4803,-2.5136,-2.5451,-2.5178,-2.4338,-2.336,-2.2665,-2.2288,-2.185,-2.136,-2.0753,-1.9989,0.0,0.0,0.0,0.0,0.0,0.0,0.0,0.0,0.0,0.0,0.0,0.0,0.0,0.0,0.0,0.0,0.0,0.0,0.0,-2.1471,-2.1804,-2.1961,0.0,0.0,0.0,0.0,0.0,0.0,0.0,0.0,0.0,-2.6825,-2.7861,-2.8534,0.0,0.0,-2.9076,-2.9076,-2.9076,-2.9297,-2.9968,-3.0272,0.0,0.0,-2.9655,-2.9491,-2.9033,-2.9223,-2.9351,-2.9126,-2.9478,-2.9691,-2.9352,-2.9566,-2.969,-2.9437,-2.9162,-2.8924,-2.8908,-2.906,-2.9188,-2.9035,-2.9412,-2.9741,-2.7802,-2.4098,-2.4368,-2.4823,-2.5299,-2.5326,-2.5853,-2.67,-2.6907,-2.6917,-2.679,-2.6544,-2.5809,-2.4719,-2.4254,0.0,0.0,0.0,-2.5136,-2.5711,-2.6327,-2.6719,-2.6892,-2.7115,-2.7278,-2.7456,-2.6696,-2.658,-2.7144,-2.647,-2.5379,-2.3865,0.0,0.0,-2.3024,-2.368,-2.4222,-2.4642,-2.555,-2.6122,-2.6304,-2.6362,-2.6023,-2.5303,-2.4157,-2.3373,-2.3028,-2.2315,-2.1796,-2.1534,-2.0828,-2.0081,0.0,0.0,0.0,0.0,0.0,0.0,0.0,0.0,0.0,0.0,0.0,-1.7098,-1.7177,0.0,0.0,0.0,-1.9844,-2.1529,-2.3151,-2.3376,0.0,0.0,0.0,0.0,0.0,0.0,0.0,-2.6635,-2.8053,-2.8811,-2.8426,-2.9088,-2.934,-2.8607,-2.8967,-2.9232,-2.9003,0.0,-2.9494,-2.999,-3.0323,-3.0388,-3.0124,-3.0002,-2.9874,-2.9598,-2.9689,-2.9779,-2.9779,-2.9779,-2.9779,-2.9779,-2.9779,-2.9779,-2.9779,-2.9779,-2.974,-2.9611,-2.9877,-2.9991,-2.9622,-2.9864,-3.0068,-2.9719,-2.8194,-2.8878,-2.8759,-2.8128,-2.7877,-2.7606,-2.7369,-2.7519,-2.8248,-2.9294,-2.8797,-2.828,-2.7777,-2.6752,0.0,-2.6996,-2.693,-2.7223,-2.772,-2.7755,-2.7962,-2.8386,-2.842,-2.8462,-2.8594,-2.7885,-2.7623,-2.7782,-2.7131,-2.6804,-2.6778,-2.5867,-2.5097,-2.4514,-2.5269,-2.5664,-2.5558,-2.7004,-2.7665,-2.7494,-2.7498,-2.7173,-2.6427,-2.5197,-2.4432,-2.4168,-2.3059,-2.2349,-2.2228,-2.168,-2.0947,-1.9989,0.0,0.0,0.0,0.0,0.0,0.0,0.0,0.0,0.0,0.0,0.0,0.0,0.0,0.0,0.0,-2.2099,0.0,-2.3926,-2.4771,0.0,0.0,0.0,-2.5733,-2.6346,-2.7272,-2.781,-2.781,0.0,0.0,-2.9376,-2.9701,-2.9665,-2.8691,-2.8967,-2.91,-2.8691,-2.9076,-2.9446,-2.9813,-2.9992,-3.0146,-3.0236,-3.0348,-3.0254,-2.9828,-2.9779,-2.9779,-2.9779,-2.9779,-2.9779,-2.9779,-2.9779,-2.9779,-2.9779,-2.9779,-2.9779,-2.9779,-3.0168,-3.0369,-2.9917,-3.0143,-3.0306,-3.21,-3.1187,-3.1364,-3.0335,-2.8672,-2.9126,-2.9681,-3.0163,-2.9961,-3.0163,-3.0532,-2.9934,-2.9391,-2.8892,-2.862,-2.8581,-2.8686,-2.8698,-2.8759,-2.8876,-2.8889,-2.8712,-2.8433,-2.842,-2.8253,-2.8013,-2.7808,-2.7835,-2.8,-2.7867,-2.7768,-2.7768,-2.7379,-2.6667,-2.5656,-2.625,-2.6648,-2.68,-2.7704,-2.8228,-2.8292,-2.7886,-2.7117,-2.5994,-2.5221,-2.4367,-2.341,-2.2843,-2.2536,-2.2494,-2.1789,-2.1284,-2.1031,-2.0117,0.0,0.0,0.0,0.0,0.0,0.0,0.0,0.0,0.0,-2.0107,-1.9901,0.0,-2.12,0.0,-2.3123,-2.4155,-2.5408,-2.5408,0.0,0.0,-2.7392,-2.7669,-2.8979,-2.9015,-2.8931,-2.8931,-2.9725,-2.9881,-2.8823,-2.9148,-2.94,-2.9136,-2.8871,-2.8943,-2.9569,-2.9821,-3.0175,-3.0802,-3.0977,-3.1013,-3.0508,-3.0204,-2.9955,-2.9817,-2.9779,-2.9779,-2.9779,-2.9779,-2.9779,-2.9779,-2.9779,-2.9779,-2.9779,-2.9779,-2.9779,-2.9792,-2.9905,-2.9955,-2.9817,-2.9905,-2.9955,-3.2436,-3.1524,-3.1845,-3.1091,-2.9789,-3.0194,-3.0597,-3.1045,-3.0791,-3.0903,-3.1212,-3.095,-3.0568,-3.0059,-3.0032,-3.0032,-3.0032,-2.9784,-2.9653,-2.964,-2.9499,-2.921,-2.88,-2.871,-2.8535,-2.8272,-2.8053,-2.8033,-2.8183,-2.8145,-2.8212,-2.8499,-2.8385,-2.7987,-2.7345,-2.7307,-2.7314,-2.7327,-2.7912,-2.8281,-2.8463,-2.8229,-2.7579,-2.6555,-2.598,-2.5201,-2.4141,-2.3682,-2.3399,-2.3225,-2.2811,-2.2312,-2.1812,-2.1235,-2.0669,0.0,0.0,0.0,0.0,0.0,0.0,0.0,0.0,0.0,0.0,0.0,-2.3025,-2.4278,-2.5083,-2.5985,-2.7067,-2.7332,-2.7921,-2.9076,-2.8955,-2.9124,-3.0001,-2.9833,-2.9556,-2.9328,-2.9761,-2.9785,-2.8991,-2.9124,-2.9304,-2.9292,-2.8847,-2.8799,-2.9544,-2.9737,-2.9939,-3.0347,-3.0429,-3.0421,-3.024,-2.9993,-2.9779,-2.9779,-2.9779,-2.9779,-2.9779,-2.9779,-2.9779,-2.9779,-2.9779,-2.9779,-2.9779,-2.9779,-2.9779,-2.9779,-2.9779,-2.9779,-2.9779,-2.9779,-2.9779,-3.188,-3.0871,-3.1526,-3.1519,-3.1075,-3.0976,-3.0912,-3.0901,-3.0791,-3.1008,-3.1435,-3.1616,-3.1457,-3.1024,-3.1024,-3.1024,-3.0947,-3.044,-3.0205,-3.0166,-2.9855,-2.9592,-2.9401,-2.9194,-2.9085,-2.9004,-2.8565,-2.8371,-2.8441,-2.8337,-2.8552,-2.9033,-2.9013,-2.9053,-2.9106,-2.8365,-2.7822,-2.7603,-2.7934,-2.8197,-2.832,-2.8522,-2.8238,-2.7453,-2.6972,-2.6352,-2.5501,-2.4957,-2.4511,-2.4236,-2.4246,-2.3748,-2.2727,-2.2647,-2.2189,0.0,-2.0976,0.0,0.0,0.0,0.0,0.0,0.0,0.0,0.0,-2.4325,-2.5146,-2.6129,-2.7188,-2.7978,-2.8474,-2.934,-2.9917,-2.9977,-2.9989,-3.0013,-3.0086,-3.0086,-2.9881,-2.9364,-2.9701,-2.9785,-2.9244,-2.9208,-2.9196,-2.9273,-2.8915,-2.8807,-2.9277,-2.941,-2.9399,-2.9199,-2.9167,-2.9539,-2.9777,-2.9804,-2.9779,-2.9779,-2.974,-2.974,-2.9753,-2.9753,-2.974,-2.974,-2.974,-2.9779,-2.9779,-2.9779,-2.9779,-2.9779,-2.9779,-2.9779,-2.9792,-2.974,-2.9753,-3.2143,-3.1913,-3.2247,-3.2275,-3.2098,-3.1265,-3.0978,-3.1136,-3.0829,-3.0863,-3.1106,-3.1143,-3.1078,-3.1024,-3.1024,-3.1024,-3.1024,-3.0869,-3.083,-3.0803,-3.0448,-3.0135,-2.9928,-2.979,-2.9686,-2.9651,-2.9682,-2.9578,-2.9273,-2.9253,-2.9307,-2.9402,-2.9248,-2.9389,-2.9826,0.0,0.0,0.0,-2.8183,-2.8333,-2.8554,-2.8587,-2.827,-2.7642,-2.7203,0.0,-2.5986,-2.5652,-2.5451,-2.5387,-2.547,0.0,0.0,0.0,0.0,0.0,0.0,0.0,0.0,0.0,0.0,0.0,-2.6121,-2.6077,-2.5094,-2.6224,-2.6994,-2.6789,-2.7702,-2.8402,-2.8498,-2.8679,-2.8991,-2.9388,-2.9448,-2.9617,-3.0025,-3.0086,-2.9881,-2.9376,-2.9388,-2.9256,-2.8775,-2.8655,-2.8903,-2.9391,-2.9052,-2.9047,-2.9642,-2.9622,-2.9586,-2.9689,-2.9638,-2.9688,-2.9792,-2.9779,-2.9779,-2.9779,-2.9611,-2.947,-2.947,-2.9509,-2.947,-2.9509,-2.965,-2.9779,-2.9779,-2.9779,-2.9779,-2.9779,-2.9779,-2.9779,-2.9779,-2.965,-2.956,-3.1574,0.0,-3.1565,-3.1789,0.0,-3.1136,-3.0804,-3.0766,-3.0611,-3.071,-3.0986,-3.1024,-3.1024,-3.1024,-3.1024,-3.1024,-3.1024,-3.1024,-3.1024,-3.1011,-3.0982,-3.085,-3.0529,-3.0579,-3.0475,-3.0224,-2.9941,-2.97,-2.9515,-2.9502,-2.9631,-2.9944,-3.0126,-3.0389,-3.0659,-3.0036,-2.9194,-2.8197,-2.8268,-2.8398,-2.8587,-2.8587,-2.8315,-2.7746,0.0,0.0,0.0,0.0,0.0,0.0,0.0,0.0,0.0,0.0,0.0,-2.634,-2.5992,-2.6174,-2.694,-2.709,-2.7408,-2.8042,-2.888,-2.8598,-2.6773,-2.7629,-2.811,-2.7765,-2.8438,-2.8907,-2.8919,-2.9124,-2.94,-2.9653,-2.9677,-2.9713,-2.9701,-2.9701,-2.9484,-2.9027,-2.8907,-2.8799,-2.8546,-2.851,-2.8674,-2.9104,-2.8986,-2.898,-2.9395,-2.9404,-2.9417,-2.9655,-2.9745,-2.9792,-2.9779,-2.9779,-2.9779,-2.974,-2.956,-2.9419,-2.938,-2.938,-2.938,-2.9419,-2.9611,-2.9779,-2.9779,-2.9779,-2.9779,-2.9779,-2.9779,-2.9779,-2.9779,-2.9599,-2.9457,-3.1075,-3.1088,-3.0894,-3.1035,-3.1423,-3.0816,-3.0533,-3.0406,0.0,0.0,0.0,-3.1024,-3.1024,-3.1024,-3.1024,-3.1024,-3.1024,-3.1024,-3.1024,-3.1037,-3.1373,-3.1373,-3.0998,-3.1284,-3.1222,-3.0832,-3.0152,-2.9794,-2.9794,-2.9699,-2.9957,-3.0554,-3.1056,-3.13,-3.1273,-3.0812,-2.9943,-2.8743,-2.8689,-2.8787,-2.8978,-2.8978,-2.8746,-2.8275,-2.8771,-2.8656,-2.7889,-2.8444,-2.8582,-2.8141,-2.834,-2.8309,-2.804,-2.8242,-2.8524,-2.8819,-2.8822,-2.9085,-2.9605,-2.9658,-2.9932,-3.0513,-3.1026,-3.0537,-2.8748,-2.8874,-2.9028,-2.8961,-2.9096,-2.9188,-2.9351,-2.9615,-2.9809,-2.9809,-2.9809,-2.9617,-2.9232,-2.916,-2.9003,-2.8607,-2.8534,-2.851,-2.8522,-2.851,-2.8697,-2.9,-2.9157,-2.9145,-2.9341,-2.9351,-2.9298,-2.9481,-2.9675,-2.9779,-2.9779,-2.9779,-2.9779,-2.9779,-2.9573,-2.9353,-2.9353,-2.9302,-2.9302,-2.9302,-2.9573,-2.9702,-2.9779,-2.9779,-2.9779,-2.9779,-2.9779,-2.9779,-2.9779,-2.9611,-2.9419,-3.1766,-3.1984,-3.1363,-3.1176,-3.1163,-3.0509,-3.0267,-3.0406,-3.0406,-3.0634,-3.0986,-3.1024,-3.1024,-3.1024,-3.1024,-3.1024,-3.1024,-3.1024,-3.1024,0.0,-3.1235,-3.1198,-3.1048,-3.1576,-3.1696,-3.1459,-3.1177,-3.1042,-3.0975,-3.0513,-3.0581,-3.111,-3.1246,-3.1314,-3.13,-3.1205,-3.0825,-3.0126,-3.0126,-3.0181,-3.0385,-3.0385,-3.0431,-3.0441,-3.0178,-3.0044,-2.9881,-3.0079,-2.995,-2.9406,-3.0375,-3.0484,-2.9435,-3.0345,-3.0746,-3.0248,-3.0152,-3.0377,-3.0875,-3.0999,-3.1398,-3.2198,-3.1938,-3.1523,-3.1024,-3.0278,-3.0101,-3.0657,-2.9532,-2.8925,-2.9491,-2.9181,-2.8919,-2.8855,-2.8751,-2.8691,-2.8723,-2.8683,-2.8698,-2.8642,-2.851,-2.855,-2.8657,-2.8618,-2.9028,-2.9832,-3.0126,-3.0203,-3.0342,-2.9896,-2.9509,-2.9689,-2.974,-2.9779,-2.9779,-2.9779,-2.9779,-2.9779,-2.9456,-2.9209,-2.917,-2.904,-2.9028,-2.9118,-2.9353,-2.956,-2.974,-2.9779,-2.9779,-2.9779,-2.9779,-2.9779,-2.9779,-2.956,-2.938,-3.2092,-3.2085,-3.1718,-3.1396,-3.1163,-3.0535,-3.0368,-3.0571,-3.0571,-3.0723,-3.0986,-3.1024,-3.1024,-3.1024,-3.1024,-3.1024,-3.1024,-3.1024,-3.1024,-3.1024,-3.1198,-3.1198,-3.1061,-3.1619,-3.178,-3.1606,-3.1406,-3.13,-3.1273,-3.1002,-3.1029,-3.1314,-3.1599,-3.1762,-3.1775,-3.1869,-3.179,-3.1482,-3.0855,-3.061,-3.0712,-3.0767,-3.0855,-3.0881,-3.0818,-3.0778,-3.0778,-3.097,-3.0755,-3.0122,-3.0993,-3.1232,-3.0698,-3.1499,-3.1991,-3.2013,-3.1978,-3.2069,-3.2311,-3.2465,-3.28,-3.3395,-3.322,-3.3066,-3.3087,-3.1806,-3.1106,-3.1315,-3.0568,-3.0291,-3.0657,-3.0253,-2.9961,-2.9948,-2.9884,-2.9807,-2.9742,-2.9367,-2.9328,-2.9678,-2.9406,-2.9367,-2.9884,-2.9961,-3.0215,-3.0983,-3.1206,-3.1217,-3.0957,-3.057,-3.0088,-2.9856,-2.9779,-2.9779,-2.9818,-2.9779,-2.9779,-2.9779,-2.9495,-2.9236,-2.9131,-2.9013,-2.9013,-2.9091,-2.9275,-2.9482,-2.974,-2.9779,-2.9779,-2.9779,-2.9779,-2.9779,-2.974,-2.9534,-2.9236,-3.2454,-3.2254,-3.2045,-3.1643,-3.1163,-3.0855,-3.0725,-3.0711,-3.0736,-3.0849,-3.0986,-3.1024,-3.1024,-3.1024,-3.1024,-3.1024,-3.1024,-3.1024,-3.1024,-3.1024,-3.1161,-3.1161,-3.1136,-3.1582,-3.178,-3.1653,-3.1393,-3.1368,-3.1463,-3.1368,-3.1404,-3.1588,-3.201,-3.2277,-3.23,-3.2431,-3.2453,-3.2434,-3.1667,-3.1213,-3.1199,-3.1323,-3.1363,-3.1459,-3.1595,-3.1662,-3.1682,-3.1685,-3.1457,-3.0961,-3.1302,-3.1485,-3.1513,-3.2075,-3.2553,-3.289,-3.3031,-3.3115,-3.3199,-3.352,-3.3833,-3.4079,-3.4128,-3.423,-3.4264,-3.3171,-3.2304,-3.2096,-3.1733,-3.1499,-3.1659,-3.1439,-3.1254,-3.1254,-3.1143,-3.0957,-3.0957,-3.0468,-3.0227,-3.0701,-3.025,-3.0161,-3.064,-3.0821,-3.095,-3.137,-3.2061,-3.2085,-3.1386,-3.1332,-3.1106,-3.0366,-3.0063,-3.0216,-3.0254,-3.0368,-3.0292,-3.0101,-2.9845,-2.9574,-2.9314,-2.9131,-2.9131,-2.9157,-2.9275,-2.9521,-2.974,-2.9779,-2.9779,-2.9779,-2.9779,-2.9779,-2.9779,-2.9495,-2.9131,-3.3034,-3.2767,-3.2495,-3.1874,-3.1305,-3.1539,-3.1266,-3.0775,-3.0874,-3.0986,-3.0986,-3.1024,-3.1024,-3.1024,-3.1024,-3.1024,-3.1024,-3.1024,-3.1024,-3.1024,-3.1024,-3.1086,-3.1272,-3.1522,-3.1706,-3.1786,-3.1491,-3.1599,-3.2042,-3.1572,-3.1629,-3.2208,-3.2354,-3.2467,-3.2632,-3.2668,-3.2668,-3.2668,-3.2735,-3.2785,-3.2785,-3.2821,-3.2905,-3.3073,-3.3059,-3.3108,-3.2996,-3.2609,-3.23,-3.2202,-3.1738,-3.1499,-3.1541,-3.2075,-3.2188,-3.1738,-3.2202,-3.2565,-3.2826,-3.3573,-3.4059,-3.4094,-3.4264,-3.438,-3.438,-3.423,-3.4045,-3.3638,-3.2384,-3.1988,-3.2439,-3.1965,-3.1646,-3.1683,-3.1623,-3.1426,-3.1499,-3.1389,-3.1153,-3.055,-3.0603,-3.0262,-3.0122,-3.0072,-3.0244,-3.1218,-3.2348,-3.28,-3.2104,-3.2249,-3.2148,-3.124,-3.086,-3.1077,-3.1509,-3.1856,-3.1375,-3.0882,-3.0607,-3.019,-2.9678,-2.9289,-2.917,-2.9263,-2.9217,-2.9321,-2.9689,-2.9779,-2.9793,-2.9779,-2.9779,-2.9818,-2.9779,-2.956,-2.9353,-3.3796,-3.3578,-3.3253,-3.2722,-3.211,-3.1772,-3.1513,-3.1368,-3.1092,-3.1024,-3.1024,-3.1024,-3.1024,-3.1024,-3.1024,-3.1024,-3.1024,-3.1024,-3.1024,-3.1024,-3.1024,-3.1099,-3.131,-3.1485,-3.172,-3.1877,-3.1852,-3.1974,-3.2137,-3.1911,-3.2032,-3.2367,-3.2417,-3.2525,-3.2704,-3.281,-3.2881,-3.2881,-3.3086,-3.3157,-3.3192,-3.3157,-3.3241,-3.3276,-3.3276,-3.3094,-3.2848,-3.2876,-3.2609,-3.1949,-3.1949,-3.1864,-3.1513,-3.1738,-3.1752,-3.1541,-3.2075,-3.2718,-3.338,-3.3788,-3.4088,-3.4278,-3.4346,-3.438,-3.438,-3.438,-3.4346,-3.4196,-3.3604,-3.3381,-3.3569,-3.3276,-3.3017,-3.3017,-3.2974,-3.2889,-3.2917,-3.2484,-3.2231,-3.2387,-3.1727,-3.1377,-3.1596,-3.1431,-3.1467,-3.1856,-3.2551,-3.2569,-3.1894,-3.1923,-3.1788,-3.1377,-3.1158,-3.1235,-3.1534,-3.1536,-3.1514,-3.1516,-3.1119,-3.057,-3.0152,-2.9288,-2.8918,-2.9293,-2.8947,-2.8999,-2.9678,-2.9884,-2.997,-2.9923,-2.9895,-3.0011,-3.0947,-3.0216,-2.9678,-3.4314,-3.4178,-3.3925,-3.347,-3.2908,-3.2319,-3.1967,-3.1758,-3.1392,-3.1143,-3.1024,-3.1024,-3.1136,-3.1259,-3.1086,-3.1024,-3.1024,-3.1024,-3.1136,-3.1259,-3.1161,-3.1296,-3.168,-3.1669,-3.178,-3.1963,-3.2132,-3.2205,-3.2205,-3.2241,-3.2322,-3.2453,-3.2525,-3.2668,-3.286,-3.3002,-3.3072,-3.3108,-3.3241,-3.3276,-3.3276,-3.3276,-3.3276,-3.3276,-3.3276,-3.3066,-3.2679,-3.2932,-3.2764,-3.2061,-3.2117,-3.1963,-3.1541,-3.1485,-3.1485,-3.1574,-3.2162,-3.2854,-3.3611,-3.3899,-3.4157,-3.4346,-3.438,-3.438,-3.438,-3.438,-3.438,-3.4366,-3.4254,-3.41,-3.4366,-3.4105,-3.3951,-3.3951,-3.37,-3.3518,-3.3407,-3.2964,-3.272,-3.3082,-3.2102,-3.1805,-3.2259,-3.2035,-3.1794,-3.184,-3.206,-3.2078,-3.1563,-3.1532,-3.1631,-3.1419,-3.1344,-3.1415,-3.146,-3.1841,-3.1958,-3.1809,-3.1581,-3.109,-3.0602,-2.9403,-2.8724,-2.9049,-2.8437,-2.8583,-2.9578,-2.9973,-3.025,-3.0208,-3.0277,-3.0644,-3.1686,-3.0707,-3.0342,-3.4397,-3.4397,-3.4371,-3.4086,-3.3548,-3.3483,-3.2842,-3.1901,-3.1758,-3.1445,-3.1013,-3.1061,-3.1394,-3.1955,-3.1394,-3.1048,-3.1061,-3.1123,-3.1468,-3.1992,-3.1579,-3.1813,-3.2596,-3.2132,-3.1986,-3.2137,-3.2191,-3.2205,-3.2205,-3.2322,-3.2489,-3.2668,-3.2846,-3.3072,-3.3262,-3.3276,-3.3276,-3.3403,-3.3347,-3.3312,-3.3312,-3.3312,-3.3276,-3.3234,-3.3276,-3.3248,-3.315,-3.2736,-3.2665,-3.3164,-3.2188,-3.1555,-3.1499,-3.1513,-3.1485,-3.1574,-3.2349,-3.2906,-3.3116,-3.3825,-3.4346,-3.438,-3.438,-3.4366,-3.4327,-3.4327,-3.4298,-3.4356,-3.379,-3.3717,-3.4124,-3.3742,-3.351,-3.351,-3.2974,-3.268,-3.2651,-3.2685,-3.2228,-3.1927,-3.1671,-3.1411,-3.09,-3.0714,-3.083,-3.0946,-3.1221,-3.1492,-3.1503,-3.1922,-3.1905,-3.1587,-3.1471,-3.1707,-3.228,-3.2477,-3.2654,-3.2593,-3.2128,-3.1694,-3.0519,-2.9523,-2.9188,-2.8949,-2.8707,-2.8941,-2.9686,-3.0213,-3.0524,-3.0757,-3.1154,-3.1703,-3.2066,-3.1393,-3.1088,-3.4494,-3.4673,-3.4673,-3.4624,-3.4495,-3.4029,-3.333,-3.2515,-3.2031,-3.1484,-3.1151,-3.1505,-3.1846,-3.2123,-3.234,-3.2426,-3.239,-3.2376,-3.2555,-3.2755,-3.2591,-3.2783,-3.3101,-3.2668,-3.2283,-3.2164,-3.2145,-3.2205,-3.2205,-3.2322,-3.2489,-3.2704,-3.2917,-3.329,-3.3776,-3.3507,-3.3716,-3.4457,-3.3805,-3.3507,-3.3817,-3.3542,-3.3108,-3.2778,-3.3094,-3.3094,-3.275,-3.2876,-3.2918,-3.275,-3.23,-3.2075,-3.2033,-3.1696,-3.1485,-3.1574,-3.2297,-3.3024,-3.3496,-3.3945,-3.4278,-3.438,-3.438,-3.4225,-3.3906,-3.379,-3.3645,-3.3267,-3.305,-3.3021,-3.3093,-3.2977,-3.3035,-3.3344,-3.2904,-3.2629,-3.2933,-3.2788,-3.2379,-3.2118,-3.1801,-3.1264,-3.0786,-3.0612,-3.0612,-3.0627,-3.0785,-3.0916,-3.0945,-3.1193,-3.1235,-3.1105,-3.1264,-3.1598,-3.1787,-3.2408,-3.2771,-3.2882,-3.2676,-3.2472,-3.17,-2.9763,-2.9006,-2.967,-2.9416,-2.9114,-2.9768,-3.0306,-3.0685,-3.1478,-3.188,-3.1875,-3.2162,-3.1533,-3.157,-3.4577,-3.4756,-3.4797,-3.4921,-3.5046,-3.451,-3.3886,-3.3252,-3.2515,-3.1835,-3.1438,-3.1867,-3.2218,-3.2541,-3.3199,-3.3748,-3.3831,-3.3471,-3.3353,-3.3596,-3.3422,-3.3541,-3.3788,-3.3169,-3.2813,-3.2714,-3.2591,-3.2532,-3.2519,-3.2532,-3.2567,-3.269,-3.2952,-3.3374,-3.3831,-3.3722,-3.4153,-3.4714,-3.4085,-3.3854,-3.4178,-3.3633,-3.3039,-3.2701,-3.323,-3.3104,-3.2207,-3.289,-3.3045,-3.2539,-3.2595,-3.2609,-3.2384,-3.1822,-3.1617,-3.1909,-3.2642,-3.3323,-3.3865,-3.4108,-3.4264,-3.4366,-3.4211,-3.3983,-3.3779,-3.3412,-3.305,-3.2803,-3.2367,-3.2237,-3.2394,-3.2307,-3.2382,-3.2719,-3.2266,-3.2063,-3.2472,-3.2121,-3.1888,-3.1743,-3.1424,-3.1018,-3.0714,-3.0627,-3.0612,-3.0612,-3.0612,-3.0612,-3.0612,-3.0612,-3.0714,-3.0858,-3.1264,-3.1627,-3.2034,-3.2672,-3.3035,-3.3153,-3.3052,-3.2992,-3.2471,-3.0452,-2.9539,-3.0212,-3.0201,-2.9704,-2.9748,-3.035,-3.1064,-3.1939,-3.2076,-3.1999,-3.1957,-3.1713,-3.1766,-3.4577,-3.481,-3.4797,-3.4962,-3.5113,-3.506,-3.4645,-3.3953,-3.3278,-3.2617,-3.2099,-3.2175,-3.2684,-3.3248,-3.3973,-3.4725,-3.4986,-3.4036,-3.3871,-3.4461,-3.3953,-3.4124,-3.478,-3.368,-3.3322,-3.3686,-3.3417,-3.3221,-3.3122,-3.2885,-3.2782,-3.2855,-3.3087,-3.3325,-3.3395,-3.395,-3.424,-3.4383,-3.4253,-3.4209,-3.423,-3.3655,-3.3063,-3.2752,-3.3583,-3.3325,-3.1669,-3.274,-3.3121,-3.2621,-3.3009,-3.3002,-3.244,-3.1926,-3.188,-3.2599,-3.3408,-3.3894,-3.4094,-3.4278,-3.438,-3.4356,-3.3891,-3.3867,-3.3964,-3.3296,-3.2861,-3.2991,-3.2382,-3.1874,-3.2292,-3.2017,-3.1787,-3.1524,-3.1424,-3.1105,-3.0975,-3.0728,-3.0641,-3.0743,-3.0728,-3.0641,-3.0612,-3.0612,-3.0612,-3.0612,-3.0612,-3.0612,-3.0627,-3.0685,-3.0932,-3.1308,-3.1743,-3.2135,-3.2571,-3.3053,-3.3314,-3.3492,-3.3297,-3.3154,-3.2817,-3.1446,-3.0829,-3.115,-3.0875,-3.0377,-3.0125,-3.0654,-3.0877,-3.1536,-3.1723,-3.1861,-3.1657,-3.1514,-3.1775,-3.4647,-3.5003,-3.5003,-3.5195,-3.548,-3.5358,-3.5144,-3.4918,-3.419,-3.368,-3.3496,-3.3586,-3.3754,-3.4075,-3.4758,-3.5314,-3.5574,-3.5106,-3.5055,-3.5151,-3.5201,-3.5252,-3.5198,-3.4327,-3.3433,-3.2956,-3.2753,-3.2905,-3.315,-3.2978,-3.3202,-3.3762,-3.3089,-3.3384,-3.4389,-3.4002,-3.4006,-3.4865,-3.4075,-3.3801,-3.4197,-3.3622,-3.3032,-3.2629,-3.3304,-3.3063,-3.1825,-3.3292,-3.3811,-3.3182,-3.3374,-3.3184,-3.2565,-3.2365,-3.2419,-3.2746,-3.3559,-3.404,-3.4128,-3.4298,-3.4385,-3.4385,-3.4211,-3.3978,-3.379,-3.3412,-3.3021,-3.2904,-3.2425,-3.2338,-3.2394,-3.2321,-3.2382,-3.2803,-3.2309,-3.183,-3.1642,-3.1106,-3.067,-3.0612,-3.0612,-3.0612,-3.0612,-3.0612,-3.0612,-3.0612,-3.0612,-3.0612,-3.067,-3.0959,-3.1235,-3.148,-3.2121,-3.2788,-3.3195,-3.3543,-3.3804,-3.3848,-3.3676,-3.3591,-3.3189,-3.2803,-3.2227,-3.1711,-3.14,-3.1053,-3.0781,-3.0757,-3.093,-3.0945,-3.1056,-3.1143,-3.1205,-3.1331,-3.1527,-3.466,-3.5072,-3.5072,-3.5183,-3.5358,-3.5237,-3.5005,-3.4733,-3.4231,-3.3947,-3.389,-3.4177,-3.4312,-3.4461,-3.5184,-3.5606,-3.5688,-3.5816,-3.5678,-3.543,-3.5817,-3.5958,-3.5757,-3.4948,-3.3857,-3.2895,-3.2762,-3.2948,-3.3284,-3.2981,-3.3138,-3.3525,-3.3023,-3.3325,-3.4572,-3.4111,-3.4288,-3.5089,-3.4291,-3.3882,-3.4081,-3.3694,-3.3113,-3.2781,-3.3472,-3.3326,-3.2471,-3.388,-3.4379,-3.3697,-3.356,-3.3368,-3.3109,-3.282,-3.2852,-3.3478,-3.3773,-3.4028,-3.4163,-3.4292,-3.4368,-3.438,-3.4196,-3.3906,-3.3547,-3.3358,-3.289,-3.26,-3.2498,-3.2614,-3.2832,-3.2875,-3.3166,-3.3779,-3.2991,-3.2469,-3.206,-3.1221,-3.067,-3.0612,-3.0612,-3.0612,-3.0612,-3.0612,-3.0612,-3.0612,-3.0612,-3.0772,-3.0887,-3.1264,-3.1613,-3.2077,-3.2788,-3.3387,-3.3794,-3.4066,-3.4327,-3.424,-3.409,-3.4071,-3.3931,-3.3537,-3.3054,-3.2291,-3.1858,-3.1135,-3.0814,-3.0685,-3.0728,-3.0612,-3.0612,-3.0743,-3.0901,-3.0959,-3.1101,-3.4675,-3.5032,-3.5073,-3.4902,-3.4775,-3.4748,-3.4489,-3.3919,-3.3771,-3.3826,-3.3848,-3.4329,-3.4447,-3.4629,-3.535,-3.572,-3.5784,-3.6006,-3.5857,-3.5535,-3.5764,-3.6009,-3.5767,-3.5202,-3.4271,-3.3318,-3.3271,-3.3345,-3.3365,-3.2931,-3.2676,-3.3004,-3.3096,-3.3385,-3.4027,-3.4197,-3.4418,-3.4866,-3.4457,-3.4159,-3.4198,-3.3784,-3.333,-3.2935,-3.3878,-3.407,-3.3492,-3.4285,-3.4545,-3.3744,-3.3429,-3.3511,-3.3794,-3.3082,-3.3151,-3.433,-3.4106,-3.4074,-3.4218,-3.4424,-3.4428,-3.4358,-3.4164,-3.354,-3.3492,-3.3287,-3.3083,-3.2861,-3.2809,-3.2995,-3.3482,-3.358,-3.3794,-3.4037,-3.318,-3.2292,-3.1598,-3.0974,-3.067,-3.0612,-3.0612,-3.0612,-3.0627,-3.0656,-3.0743,-3.0757,-3.083,-3.1163,-3.1467,-3.1888,-3.2309,-3.2864,-3.3431,-3.3761,-3.4109,-3.4182,-3.438,-3.437,-3.4254,-3.4312,-3.437,-3.4066,-3.346,-3.2767,-3.2162,-3.1453,-3.0858,-3.0699,-3.0612,-3.0612,-3.0612,-3.0612,-3.0656,-3.0757,-3.0816,-3.4587,-3.4446,-3.4594,-3.4444,-3.414,-3.4138,-3.4589,-3.5145,-3.4768,-3.4928,-3.5531,-3.5436,-3.527,-3.5382,-3.5576,-3.5816,-3.6038,-3.6179,-3.6243,-3.6152,-3.6259,-3.5753,-3.5093,-3.477,-3.3971,-3.2906,-3.3183,-3.3376,-3.3385,-3.2998,-3.3256,-3.4073,-3.3036,-3.3124,-3.3917,-3.3767,-3.3658,-3.383,-3.3803,-3.371,-3.372,-3.3708,-3.3591,-3.3539,-3.3902,-3.4005,-3.3809,-3.4558,-3.4619,-3.3788,-3.3111,-3.3031,-3.3532,-3.3108,-3.3216,-3.3955,-3.418,-3.4193,-3.4348,-3.4729,-3.4774,-3.4501,-3.4982,-3.498,-3.355,-3.4218,-3.4292,-3.4063,-3.3918,-3.4171,-3.4661,-3.4442,-3.4132,-3.3659,-3.2948,-3.222,-3.1567,-3.0974,-3.0612,-3.0612,-3.0612,-3.0656,-3.0743,-3.1003,-3.1264,-3.1351,-3.1613,-3.1975,-3.2208,-3.2571,-3.3024,-3.3358,-3.3808,-3.4095,-3.4341,-3.437,-3.438,-3.438,-3.437,-3.437,-3.4399,-3.4259,-3.3564,-3.2771,-3.2466,-3.1874,-3.1105,-3.0627,-3.0612,-3.0612,-3.0612,-3.0612,-3.0612,-3.067,-3.067,-3.398,-3.3965,-3.407,-3.389,-3.3607,-3.3793,-3.4247,-3.4718,-3.486,-3.5214,-3.5776,-3.5819,-3.572,-3.572,-3.5847,-3.6006,-3.6196,-3.6274,-3.6214,-3.6045,-3.6045,-3.546,-3.4782,-3.472,-3.4029,-3.2598,-3.309,-3.3198,-3.3,-3.2828,-3.3144,-3.3398,-3.2926,-3.3051,-3.3883,-3.3497,-3.34,-3.3623,-3.3546,-3.3398,-3.3424,-3.3607,-3.3694,-3.3745,-3.3873,-3.3975,-3.4055,-3.4394,-3.434,-3.3895,-3.3568,-3.3543,-3.3817,-3.3433,-3.3525,-3.4211,-3.4248,-3.4138,-3.4283,-3.4627,-3.4666,-3.4554,-3.5384,-3.5156,-3.4425,-3.5015,-3.5531,-3.4924,-3.5136,-3.5454,-3.561,-3.5219,-3.4167,-3.2925,-3.2556,-3.2205,-3.1567,-3.0959,-3.067,-3.0656,-3.08,-3.0974,-3.0988,-3.1555,-3.1845,-3.1959,-3.2193,-3.2542,-3.2861,-3.3314,-3.3634,-3.3862,-3.4008,-3.4254,-3.4337,-3.4366,-3.438,-3.438,-3.438,-3.438,-3.438,-3.4351,-3.3848,-3.318,-3.2803,-3.2266,-3.1424,-3.0756,-3.0612,-3.0612,-3.0612,-3.0612,-3.0612,-3.0612,-3.0612,-3.3235,-3.3505,-3.3596,-3.3422,-3.3256,-3.3637,-3.3839,-3.3709,-3.4366,-3.4835,-3.5166,-3.5542,-3.5688,-3.5705,-3.599,-3.6164,-3.6164,-3.6383,-3.6138,-3.5907,-3.5722,-3.5353,-3.4859,-3.5183,-3.4306,-3.2921,-3.3152,-3.2982,-3.2659,-3.2475,-3.2428,-3.2681,-3.2659,-3.3056,-3.3572,-3.3356,-3.3538,-3.3835,-3.3583,-3.3499,-3.3567,-3.3702,-3.3825,-3.4012,-3.3982,-3.4075,-3.4075,-3.4147,-3.4066,-3.3936,-3.4269,-3.4338,-3.4444,-3.3817,-3.3948,-3.4468,-3.4248,-3.4058,-3.4191,-3.4336,-3.4423,-3.4589,-3.511,-3.5119,-3.4871,-3.5596,-3.606,-3.564,-3.609,-3.603,-3.5814,-3.5481,-3.4191,-3.2551,-3.2244,-3.2118,-3.1495,-3.0916,-3.0627,-3.0684,-3.1206,-3.1422,-3.1741,-3.2118,-3.26,-3.2629,-3.2875,-3.3253,-3.347,-3.3688,-3.3978,-3.4225,-3.4327,-3.437,-3.438,-3.438,-3.438,-3.438,-3.438,-3.438,-3.438,-3.4312,-3.4022,-3.3616,-3.3137,-3.2454,-3.1613,-3.1119,-3.0845,-3.0612,-3.0612,-3.0612,-3.0612,-3.0612,-3.0612,-3.324,-3.295,-3.3586,-3.3595,-3.3282,-3.3634,-3.4137,-3.4681,-3.4762,-3.5121,-3.5479,-3.5655,-3.572,-3.572,-3.5958,-3.6022,-3.61,-3.632,-3.6384,-3.6322,-3.6276,-3.5891,-3.5399,-3.5521,-3.4659,-3.3537,-3.3321,-3.3044,-3.261,-3.2573,-3.2551,-3.2578,-3.2757,-3.3094,-3.3215,-3.3291,-3.3287,-3.3509,-3.3461,-3.371,-3.3985,-3.3908,-3.4079,-3.4491,-3.4307,-3.4124,-3.4101,-3.4101,-3.4064,-3.4057,-3.4052,-3.4075,-3.4001,-3.3895,-3.3972,-3.4095,-3.4177,-3.4081,-3.4214,-3.4571,-3.4967,-3.4931,-3.5429,-3.5828,-3.5329,-3.5826,-3.6337,-3.6243,-3.5926,-3.5655,-3.5135,-3.4819,-3.3936,-3.2763,-3.2392,-3.2125,-3.109,-3.0699,-3.0801,-3.1163,-3.1438,-3.1729,-3.2251,-3.2861,-3.3195,-3.3296,-3.3587,-3.3993,-3.408,-3.4109,-3.424,-3.438,-3.438,-3.438,-3.438,-3.438,-3.438,-3.438,-3.438,-3.4448,-3.4448,-3.437,-3.4172,-3.3852,-3.346,-3.2701,-3.2019,-3.1467,-3.1163,-3.0917,-3.0641,-3.0612,-3.0612,-3.0612,-3.0612,-3.2864,-3.2978,-3.3398,-3.3607,-3.3673,-3.4104,-3.461,-3.496,-3.5151,-3.5379,-3.5655,-3.572,-3.572,-3.572,-3.591,-3.602,-3.6037,-3.6258,-3.6414,-3.6445,-3.6476,-3.6292,-3.6076,-3.5876,-3.529,-3.4137,-3.4275,-3.3829,-3.3149,-3.2869,-3.282,-3.2523,-3.2715,-3.2812,-3.2978,-3.3069,-3.3176,-3.3324,-3.3372,-3.3604,-3.3821,-3.3882,-3.4027,-3.4588,-3.4568,-3.4619,-3.4619,-3.4619,-3.4619,-3.4496,-3.4219,-3.3975,-3.3882,-3.3899,-3.3924,-3.4,-3.405,-3.4101,-3.4246,-3.4424,-3.4651,-3.4716,-3.5364,-3.5507,-3.5535,-3.5906,-3.6549,-3.6857,-3.6694,-3.6144,-3.5257,-3.5424,-3.4643,-3.3156,-3.296,-3.2535,-3.1465,-3.0861,-3.0845,-3.1395,-3.1816,-3.2309,-3.2875,-3.3503,-3.3775,-3.3877,-3.3906,-3.4254,-3.4254,-3.4283,-3.4312,-3.438,-3.438,-3.438,-3.438,-3.438,-3.438,-3.438,-3.438,-3.4481,-3.4563,-3.452,-3.4413,-3.4074,-3.3783,-3.3373,-3.2701,-3.2135,-3.1555,-3.1221,-3.0959,-3.0757,-3.0612,-3.0612,-3.0612,-3.269,-3.3388,-3.3471,-3.3768,-3.4308,-3.4824,-3.5023,-3.5088,-3.5344,-3.5522,-3.5638,-3.5655,-3.5653,-3.5703,-3.5863,-3.5973,-3.6068,-3.6085,-3.6258,-3.6492,-3.6492,-3.6445,-3.6384,-3.6276,-3.5922,-3.4936,-3.5121,-3.4614,-3.366,-3.3336,-3.298,-3.2533,-3.2437,-3.266,-3.2854,-3.2951,-3.3069,-3.3282,-3.3493,-3.373,-3.3899,-3.4091,-3.4368,-3.4746,-3.5104,-3.5347,-3.5347,-3.5347,-3.5283,-3.5195,-3.4612,-3.4262,-3.4075,-3.4025,-3.3975,-3.4101,-3.4101,-3.4101,-3.4101,-3.4165,-3.4214,-3.423,-3.4651,-3.5195,-3.5451,-3.5813,-3.6378,-3.7036,-3.7156,-3.702,-3.626,-3.6306,-3.5502,-3.4127,-3.3856,-3.3351,-3.2317,-3.138,-3.1377,-3.1671,-3.2356,-3.2969,-3.3474,-3.3993,-3.424,-3.438,-3.438,-3.438,-3.438,-3.438,-3.438,-3.438,-3.438,-3.438,-3.438,-3.438,-3.438,-3.438,-3.438,-3.4515,-3.4631,-3.4601,-3.4524,-3.4384,-3.4074,-3.3725,-3.33,-3.2716,-3.2164,-3.1671,-3.125,-3.0974,-3.0801,-3.0641,-3.0582,-3.3973,-3.4143,-3.4599,-3.4894,-3.5055,-3.5382,-3.5512,-3.5559,-3.5522,-3.5489,-3.5507,-3.5522,-3.5554,-3.5572,-3.5671,-3.5879,-3.6053,-3.6116,-3.6226,-3.646,-3.6492,-3.6492,-3.6492,-3.6368,-3.623,-3.6091,-3.5722,-3.4675,-3.3767,-3.3352,-3.3029,-3.2564,-3.248,-3.266,-3.2854,-3.3005,-3.3096,-3.3345,-3.3672,-3.413,-3.4576,-3.4983,-3.5284,-3.5613,-3.5898,-3.6092,-3.6108,-3.6076,-3.5849,-3.5292,-3.5098,-3.4651,-3.4246,-3.4075,-3.4075,-3.4075,-3.4101,-3.4101,-3.4126,-3.4101,-3.4424,-3.4716,-3.4644,-3.4991,-3.5542,-3.5697,-3.5948,-3.6672,-3.7094,-3.7047,-3.6672,-3.6897,-3.6488,-3.549,-3.4729,-3.4253,-3.3441,-3.2821,-3.2407,-3.266,-3.3179,-3.3605,-3.4006,-3.4259,-3.4327,-3.438,-3.438,-3.438,-3.438,-3.438,-3.438,-3.438,-3.438,-3.438,-3.438,-3.438,-3.438,-3.438,-3.4414,-3.4515,-3.4616,-3.4664,-3.462,-3.461,-3.4489,-3.4222,-3.3747,-3.326,-3.2751,-3.2184,-3.1687,-3.1222,-3.099,-3.0817,-3.0401,-3.4514,-3.4879,-3.5157,-3.54,-3.5623,-3.5767,-3.575,-3.5604,-3.5522,-3.5489,-3.5489,-3.5504,-3.5554,-3.5604,-3.5587,-3.5797,-3.6037,-3.6116,-3.6258,-3.646,-3.6492,-3.6492,-3.6384,-3.6153,-3.5984,-3.5753,-3.529,-3.4705,-3.3996,-3.3567,-3.3044,-3.2552,-3.2453,-3.2648,-3.287,-3.2951,-3.3096,-3.335,-3.3656,-3.4042,-3.4535,-3.5032,-3.5524,-3.5829,-3.6497,-3.6778,-3.6756,-3.6416,-3.6157,-3.5704,-3.504,-3.4522,-3.4214,-3.4101,-3.4101,-3.4101,-3.4101,-3.4126,-3.4176,-3.4201,-3.4379,-3.459,-3.4363,-3.4484,-3.4887,-3.4903,-3.5307,-3.6381,-3.6957,-3.7233,-3.7458,-3.7533,-3.7237,-3.6593,-3.5828,-3.52,-3.4753,-3.4207,-3.3923,-3.3754,-3.3809,-3.4071,-3.4349,-3.4486,-3.4399,-3.438,-3.4414,-3.438,-3.438,-3.438,-3.438,-3.438,-3.438,-3.438,-3.438,-3.438,-3.438,-3.438,-3.4448,-3.4515,-3.4683,-3.475,-3.4898,-3.4935,-3.478,-3.4593,-3.4321,-3.386,-3.3287,-3.2715,-3.2147,-3.1636,-3.1285,-3.0946,-3.0533,-3.5077,-3.5625,-3.5576,-3.5752,-3.5973,-3.5973,-3.5765,-3.5522,-3.5489,-3.5522,-3.5554,-3.5554,-3.5636,-3.5703,-3.5701,-3.5797,-3.6022,-3.6133,-3.6305,-3.6414,-3.6292,-3.6261,-3.6122,-3.5706,-3.5306,-3.5168,-3.4583,-3.4289,-3.4014,-3.3644,-3.3059,-3.261,-3.2425,-3.2594,-3.2843,-3.2951,-3.3112,-3.3261,-3.3482,-3.3625,-3.4298,-3.4915,-3.5572,-3.5849,-3.695,-3.7506,-3.7485,-3.7161,-3.6643,-3.6092,-3.5315,-3.4473,-3.4182,-3.4101,-3.4101,-3.4101,-3.4101,-3.4176,-3.425,-3.4275,-3.4333,-3.4455,-3.4357,-3.4308,-3.4249,-3.4534,-3.4935,-3.6315,-3.694,-3.7524,-3.8176,-3.8417,-3.8173,-3.7633,-3.6826,-3.6131,-3.5983,-3.5616,-3.5214,-3.4909,-3.4554,-3.4703,-3.5195,-3.4887,-3.4854,-3.4654,-3.4654,-3.4414,-3.438,-3.438,-3.438,-3.438,-3.438,-3.438,-3.438,-3.438,-3.438,-3.438,-3.4448,-3.4515,-3.4716,-3.4868,-3.5016,-3.5162,-3.5148,-3.4978,-3.4714,-3.4449,-3.3947,-3.3328,-3.2625,-3.2068,-3.1701,-3.1126,-3.061,-3.6289,-3.6367,-3.6179,-3.6053,-3.5973,-3.5831,-3.5638,-3.5489,-3.5489,-3.5572,-3.5655,-3.564,-3.5706,-3.5773,-3.5866,-3.5991,-3.6056,-3.6012,-3.6075,-3.6153,-3.5891,-3.5676,-3.5552,-3.4936,-3.469,-3.4505,-3.386,-3.3567,-3.349,-3.3383,-3.3044,-3.2548,-3.2523,-3.2691,-3.2885,-3.3005,-3.3165,-3.3377,-3.3846,-3.4832,-3.5991,-3.6421,-3.7005,-3.7623,-3.8035,-3.8165,-3.8084,-3.7776,-3.7323,-3.6351,-3.6108,-3.5331,-3.4408,-3.4101,-3.4101,-3.4101,-3.4101,-3.4151,-3.4275,-3.4325,-3.4349,-3.4423,-3.4472,-3.4399,-3.4349,-3.4439,-3.5037,-3.6495,-3.6949,-3.7623,-3.8593,-3.9083,-3.9053,-3.8451,-3.7531,-3.7212,-3.7124,-3.6458,-3.6089,-3.6374,-3.6087,-3.6091,-3.6322,-3.577,-3.5285,-3.5055,-3.4839,-3.4635,-3.4414,-3.4448,-3.4414,-3.438,-3.438,-3.438,-3.438,-3.438,-3.438,-3.438,-3.4448,-3.4515,-3.475,-3.4935,-3.5148,-3.5261,-3.5279,-3.5279,-3.5026,-3.4765,-3.4493,-3.3959,-3.3223,-3.2604,-3.2045,-3.1423,-3.0671,-3.6138,-3.6492,-3.6414,-3.6226,-3.6005,-3.591,-3.5718,-3.5522,-3.5489,-3.5572,-3.5597,-3.5281,-3.5012,-3.5017,-3.5385,-3.5447,-3.5187,-3.5217,-3.5277,-3.5537,-3.5414,-3.526,-3.4967,-3.4628,-3.4382,-3.3765,-3.3229,-3.2859,-3.2844,-3.2829,-3.2628,-3.2518,-3.2551,-3.2676,-3.2897,-3.3032,-3.3176,-3.3482,-3.4101,-3.4915,-3.5753,-3.6596,-3.733,-3.7781,-3.8181,-3.8359,-3.8262,-3.7501,-3.7048,-3.6157,-3.5671,-3.4829,-3.4262,-3.4101,-3.4101,-3.4101,-3.4101,-3.4151,-3.4275,-3.4333,-3.4448,-3.4497,-3.4546,-3.4546,-3.4472,-3.457,-3.4988,-3.6081,-3.6744,-3.759,-3.8526,-3.9067,-3.8957,-3.854,-3.7939,-3.7791,-3.7588,-3.7178,-3.6869,-3.727,-3.7575,-3.7379,-3.7131,-3.6585,-3.6087,-3.5834,-3.5497,-3.5121,-3.4806,-3.4601,-3.4501,-3.438,-3.438,-3.438,-3.438,-3.438,-3.438,-3.438,-3.438,-3.4515,-3.4769,-3.5016,-3.5148,-3.5326,-3.5392,-3.5359,-3.5228,-3.5139,-3.4943,-3.4436,-3.3871,-3.316,-3.2404,-3.1424,-3.07,-3.5568,-3.5984,-3.5922,-3.5829,-3.5762,-3.5667,-3.5582,-3.5537,-3.5489,-3.5604,-3.5601,-3.5212,-3.4622,-3.4287,-3.4833,-3.4924,-3.4374,-3.4431,-3.446,-3.469,-3.4874,-3.4782,-3.4397,-3.4135,-3.3798,-3.3167,-3.2752,-3.2505,-3.2459,-3.2428,-3.2471,-3.2453,-3.2621,-3.2773,-3.2951,-3.3112,-3.3229,-3.3419,-3.399,-3.4633,-3.5316,-3.634,-3.7051,-3.7591,-3.804,-3.8391,-3.823,-3.7614,-3.6983,-3.6108,-3.5525,-3.4845,-3.423,-3.4101,-3.4101,-3.4101,-3.4101,-3.4126,-3.425,-3.4374,-3.4497,-3.4594,-3.4618,-3.4659,-3.4594,-3.4659,-3.5004,-3.5828,-3.6348,-3.7176,-3.8063,-3.8742,-3.8782,-3.852,-3.8091,-3.8001,-3.7807,-3.7449,-3.7397,-3.777,-3.8035,-3.8169,-3.7828,-3.7356,-3.6951,-3.66,-3.6197,-3.5674,-3.5252,-3.4872,-3.4635,-3.4481,-3.4414,-3.4414,-3.4414,-3.4414,-3.4414,-3.4414,-3.4414,-3.4549,-3.4802,-3.4968,-3.5067,-3.5246,-3.5457,-3.5457,-3.5359,-3.5377,-3.5382,-3.4629,-3.3971,-3.3434,-3.2688,-3.1632,-3.0819,-3.4613,-3.4599,-3.4302,-3.4562,-3.5047,-3.4736,-3.4955,-3.5342,-3.5447,-3.5655,-3.5823,-3.5538,-3.5001,-3.4554,-3.44,-3.446,-3.4383,-3.446,-3.432,-3.4335,-3.4489,-3.4181,-3.3812,-3.3534,-3.3319,-3.2672,-3.2441,-3.2441,-3.2425,-3.248,-3.2508,-3.2578,-3.2746,-3.2924,-3.3085,-3.3203,-3.3335,-3.3514,-3.3947,-3.4681,-3.5444,-3.6286,-3.6899,-3.7846,-3.8254,-3.8391,-3.8391,-3.7954,-3.7355,-3.6335,-3.5736,-3.5104,-3.4262,-3.4117,-3.4101,-3.4101,-3.4101,-3.4126,-3.4226,-3.4399,-3.4618,-3.4756,-3.478,-3.4732,-3.4691,-3.4691,-3.507,-3.5646,-3.6059,-3.6729,-3.7615,-3.8268,-3.8299,-3.8243,-3.7988,-3.8002,-3.7894,-3.7818,-3.7815,-3.8213,-3.8391,-3.8391,-3.8391,-3.7873,-3.7653,-3.7326,-3.6768,-3.6244,-3.5593,-3.5169,-3.4787,-3.4568,-3.4467,-3.4433,-3.4448,-3.4448,-3.4501,-3.4515,-3.4481,-3.4616,-3.4802,-3.4935,-3.5034,-3.5246,-3.5424,-3.5457,-3.5444,-3.531,-3.5055,-3.4547,-3.4008,-3.3348,-3.2525,-3.1456,-3.0879,-3.3567,-3.3198,-3.297,-3.3466,-3.4395,-3.4334,-3.4348,-3.4495,-3.4965,-3.5304,-3.5522,-3.5446,-3.486,-3.406,-3.3783,-3.3567,-3.3272,-3.3198,-3.3244,-3.3596,-3.3827,-3.3763,-3.3499,-3.353,-3.3638,-3.2884,-3.2624,-3.2621,-3.2718,-3.2738,-3.28,-3.2881,-3.2928,-3.2897,-3.3016,-3.3345,-3.3472,-3.3815,-3.4441,-3.5433,-3.5873,-3.6996,-3.7547,-3.7547,-3.8222,-3.81,-3.776,-3.7323,-3.6837,-3.627,-3.5509,-3.4781,-3.4246,-3.4133,-3.4101,-3.4101,-3.4101,-3.4126,-3.4226,-3.4399,-3.4618,-3.4828,-3.4851,-3.4828,-3.4804,-3.4828,-3.491,-3.5298,-3.5719,-3.6373,-3.6638,-3.7158,-3.7461,-3.7646,-3.7777,-3.7856,-3.7959,-3.7915,-3.8005,-3.8327,-3.8391,-3.8391,-3.8391,-3.8335,-3.8177,-3.7988,-3.7401,-3.6768,-3.615,-3.5576,-3.5252,-3.5037,-3.4971,-3.4787,-3.4769,-3.4735,-3.4668,-3.4616,-3.4549,-3.4683,-3.4802,-3.4854,-3.4986,-3.5213,-3.5424,-3.5472,-3.5352,-3.5085,-3.4773,-3.4354,-3.3754,-3.3065,-3.2183,-3.1264,-3.0849,-3.2829,-3.2413,-3.2287,-3.2848,-3.3694,-3.3814,-3.3832,-3.394,-3.4683,-3.4912,-3.4912,-3.5062,-3.4414,-3.3413,-3.309,-3.2921,-3.2598,-3.2505,-3.2459,-3.2995,-3.3655,-3.3756,-3.3661,-3.3798,-3.4195,-3.3481,-3.2909,-3.2804,-3.3228,-3.3193,-3.3096,-3.3076,-3.3208,-3.3318,-3.3426,-3.3593,-3.3805,-3.4239,-3.4893,-3.6023,-3.6389,-3.7305,-3.7785,-3.7353,-3.7753,-3.7614,-3.7128,-3.6691,-3.6319,-3.5785,-3.5153,-3.4457,-3.4198,-3.4101,-3.4101,-3.4101,-3.4101,-3.4151,-3.425,-3.4472,-3.4643,-3.4835,-3.4899,-3.4899,-3.4899,-3.4899,-3.4941,-3.4982,-3.5413,-3.5736,-3.5844,-3.6372,-3.6953,-3.7285,-3.7556,-3.7699,-3.8023,-3.8107,-3.8209,-3.8391,-3.8391,-3.8391,-3.842,-3.8448,-3.8448,-3.8205,-3.7623,-3.7191,-3.6905,-3.6353,-3.5913,-3.5721,-3.5625,-3.5382,-3.5184,-3.5184,-3.5118,-3.4735,-3.4716,-3.4716,-3.4802,-3.482,-3.4953,-3.5166,-3.5326,-3.5439,-3.531,-3.506,-3.4655,-3.4251,-3.3441,-3.2541,-3.205,-3.122,-3.0805,-3.2428,-3.2398,-3.2398,-3.2686,-3.32,-3.3086,-3.3362,-3.3863,-3.4592,-3.479,-3.4468,-3.4524,-3.3935,-3.2844,-3.2752,-3.2505,-3.2444,-3.2398,-3.2425,-3.2792,-3.3911,-3.4105,-3.419,-3.4372,-3.4865,-3.455,-3.3895,-3.3533,-3.381,-3.3932,-3.3635,-3.3396,-3.3681,-3.4014,-3.4241,-3.4365,-3.4542,-3.4776,-3.4989,-3.5862,-3.6786,-3.7386,-3.7466,-3.7309,-3.7543,-3.7392,-3.6659,-3.6432,-3.6044,-3.5396,-3.5088,-3.4554,-3.4165,-3.4101,-3.4101,-3.4101,-3.4101,-3.4101,-3.4151,-3.4497,-3.4691,-3.4835,-3.4875,-3.4899,-3.4899,-3.4899,-3.4899,-3.4916,-3.5024,-3.529,-3.5531,-3.5836,-3.6341,-3.6777,-3.6998,-3.7389,-3.767,-3.8015,-3.8051,-3.8327,-3.8391,-3.842,-3.8448,-3.8504,-3.8588,-3.8347,-3.7799,-3.7504,-3.7442,-3.7115,-3.6662,-3.6446,-3.629,-3.5928,-3.572,-3.5688,-3.5494,-3.5085,-3.4802,-3.4802,-3.4769,-3.4802,-3.4935,-3.5148,-3.5264,-3.5379,-3.5222,-3.5018,-3.433,-3.3562,-3.2719,-3.1938,-3.154,-3.1146,-3.0673,-3.2398,-3.2398,-3.2398,-3.2508,-3.2652,-3.2624,-3.2938,-3.3508,-3.4269,-3.4787,-3.4831,-3.426,-3.395,-3.3503,-3.2752,-3.2398,-3.2398,-3.2398,-3.2425,-3.2709,-3.3983,-3.4216,-3.4376,-3.4826,-3.5383,-3.5153,-3.4556,-3.4101,-3.4136,-3.4518,-3.4077,-3.3738,-3.4069,-3.436,-3.3904,-3.3821,-3.4091,-3.4792,-3.5391,-3.6174,-3.7143,-3.764,-3.7732,-3.7289,-3.7667,-3.7371,-3.64,-3.6287,-3.5849,-3.5185,-3.4894,-3.4392,-3.4133,-3.4101,-3.4101,-3.4101,-3.4101,-3.4151,-3.4201,-3.4399,-3.4521,-3.4691,-3.4851,-3.4899,-3.4899,-3.4899,-3.4899,-3.4899,-3.4851,-3.4994,-3.5004,-3.4882,-3.5207,-3.572,-3.6072,-3.6626,-3.7015,-3.7404,-3.7679,-3.8193,-3.8448,-3.8544,-3.8628,-3.8628,-3.8699,-3.8766,-3.8371,-3.8201,-3.8128,-3.7841,-3.746,-3.7193,-3.6952,-3.6523,-3.6227,-3.607,-3.5703,-3.5246,-3.4935,-3.4802,-3.4802,-3.485,-3.4902,-3.5067,-3.5201,-3.5322,-3.4945,-3.4438,-3.356,-3.2722,-3.2224,-3.1913,-3.1727,-3.1131,-3.0375,-3.2182,-3.2382,-3.2398,-3.2398,-3.2398,-3.2398,-3.2726,-3.3299,-3.3892,-3.4397,-3.446,-3.3767,-3.3429,-3.3426,-3.2906,-3.2398,-3.2398,-3.2398,-3.2468,-3.2748,-3.382,-3.4114,-3.4472,-3.5015,-3.5414,-3.5433,-3.5165,-3.4743,-3.5098,-3.5284,-3.4703,-3.4119,-3.4288,-3.3988,-3.3651,-3.3958,-3.4489,-3.4985,-3.5342,-3.6088,-3.7025,-3.7614,-3.7744,-3.7522,-3.7506,-3.7436,-3.6562,-3.6027,-3.5704,-3.5114,-3.4586,-3.4117,-3.4101,-3.4101,-3.4101,-3.4101,-3.4101,-3.4151,-3.4201,-3.4349,-3.4497,-3.4594,-3.4739,-3.4851,-3.4899,-3.4899,-3.4899,-3.4875,-3.4804,-3.4732,-3.4635,-3.4407,-3.4676,-3.5214,-3.5528,-3.6074,-3.6972,-3.7395,-3.7708,-3.8207,-3.8572,-3.8694,-3.8805,-3.8821,-3.8821,-3.8931,-3.8942,-3.8876,-3.8738,-3.8415,-3.8116,-3.7886,-3.7565,-3.7133,-3.6677,-3.629,-3.5894,-3.5392,-3.5148,-3.492,-3.4902,-3.4949,-3.4983,-3.4986,-3.5175,-3.512,-3.4514,-3.3878,-3.3172,-3.268,-3.2328,-3.2081,-3.1898,-3.116,-3.0256,-3.1736,-3.229,-3.2321,-3.2275,-3.229,-3.2182,-3.2628,-3.3308,-3.3413,-3.346,-3.3429,-3.3429,-3.3152,-3.2628,-3.2471,-3.2425,-3.2453,-3.2425,-3.2551,-3.2862,-3.3668,-3.3897,-3.4239,-3.4616,-3.537,-3.5587,-3.5414,-3.5303,-3.6045,-3.5252,-3.4557,-3.432,-3.3988,-3.3767,-3.3947,-3.4376,-3.4861,-3.4899,-3.5022,-3.5814,-3.6788,-3.7268,-3.7392,-3.7344,-3.7344,-3.708,-3.6351,-3.5762,-3.5341,-3.4903,-3.4473,-3.4214,-3.4101,-3.4101,-3.4101,-3.4101,-3.4101,-3.4101,-3.4151,-3.4325,-3.4448,-3.4546,-3.4643,-3.4739,-3.4851,-3.4899,-3.4899,-3.4899,-3.4811,-3.4691,-3.4546,-3.466,-3.4751,-3.5037,-3.5214,-3.6046,-3.7137,-3.766,-3.7943,-3.8302,-3.8624,-3.8805,-3.8887,-3.8942,-3.8958,-3.904,-3.9121,-3.9094,-3.8985,-3.8832,-3.8595,-3.8511,-3.8157,-3.7725,-3.7266,-3.6769,-3.6258,-3.5799,-3.5329,-3.5085,-3.5067,-3.4889,-3.4667,-3.4658,-3.5046,-3.4868,-3.4106,-3.3523,-3.2997,-3.2609,-3.2376,-3.2163,-3.1968,-3.1087,-3.0225,-3.0786,-3.0955,-3.0971,-3.0982,-3.0955,-3.0971,-3.1613,-3.2659,-3.3167,-3.3383,-3.3383,-3.289,-3.2687,-3.3059,-3.2727,-3.2511,-3.2492,-3.2621,-3.2746,-3.3088,-3.3525,-3.3971,-3.4475,-3.4987,-3.5616,-3.5695,-3.56,-3.53,-3.4841,-3.432,-3.4652,-3.4869,-3.4115,-3.3941,-3.4062,-3.4438,-3.4557,-3.4633,-3.4617,-3.5353,-3.6227,-3.6754,-3.6954,-3.7111,-3.7155,-3.6826,-3.626,-3.5574,-3.5114,-3.4473,-3.4262,-3.4101,-3.4101,-3.4101,-3.4101,-3.4101,-3.4101,-3.4101,-3.4126,-3.4275,-3.4399,-3.4521,-3.4643,-3.4756,-3.4851,-3.4899,-3.4899,-3.4899,-3.4835,-3.4715,-3.4643,-3.4701,-3.4742,-3.4833,-3.5053,-3.57,-3.6701,-3.7291,-3.7658,-3.8564,-3.8887,-3.8942,-3.9023,-3.9023,-3.904,-3.9191,-3.9245,-3.9245,-3.9202,-3.905,-3.8942,-3.886,-3.8551,-3.8055,-3.7738,-3.728,-3.6753,-3.6212,-3.5661,-3.5061,-3.4679,-3.4439,-3.4216,-3.4239,-3.4521,-3.4212,-3.357,-3.3119,-3.2913,-3.265,-3.2432,-3.2234,-3.1923,-3.1116,-3.0391,-3.0156,-3.0386,-3.0402,-3.0402,-3.0402,-3.0402,-3.0894,-3.1628,-3.2016,-3.2213,-3.2167,-3.1805,-3.1909,-3.2141,-3.2102,-3.2006,-3.1785,-3.2427,-3.266,-3.266,-3.3383,-3.3633,-3.4265,-3.4762,-3.4889,-3.511,-3.5284,-3.5126,-3.4494,-3.4067,-3.4241,-3.4288,-3.4036,-3.3972,-3.3878,-3.3862,-3.3931,-3.4027,-3.4229,-3.4745,-3.538,-3.6017,-3.6297,-3.669,-3.6749,-3.6529,-3.6158,-3.5499,-3.4968,-3.4473,-3.4376,-3.4101,-3.4101,-3.4101,-3.4101,-3.4101,-3.4101,-3.4126,-3.4217,-3.4325,-3.4448,-3.457,-3.4691,-3.4804,-3.4875,-3.4899,-3.4899,-3.4899,-3.4851,-3.478,-3.4715,-3.4667,-3.4643,-3.4627,-3.4972,-3.5301,-3.599,-3.6706,-3.7653,-3.87,-3.9067,-3.9121,-3.9148,-3.9121,-3.9121,-3.9218,-3.9288,-3.9272,-3.9272,-3.9218,-3.9148,-3.9067,-3.8733,-3.8339,-3.8039,-3.7663,-3.7041,-3.6415,-3.5737,-3.515,-3.4535,-3.4092,-3.3929,-3.3892,-3.391,-3.3694,-3.3671,-3.3282,-3.2985,-3.2813,-3.2767,-3.2686,-3.227,-3.1381,-3.0687,-2.9648,-3.0186,-3.0248,-3.0125,-3.0217,-3.014,-3.0186,-3.0248,-3.0294,-3.034,-3.0505,-3.0588,-3.0763,-3.1104,-3.1357,-3.1348,-3.1482,-3.208,-3.2435,-3.2091,-3.2934,-3.3345,-3.344,-3.3451,-3.4146,-3.4241,-3.4383,-3.4683,-3.4841,-3.4336,-3.3656,-3.3309,-3.3388,-3.3435,-3.3467,-3.3467,-3.3525,-3.3567,-3.3662,-3.4001,-3.4505,-3.483,-3.5065,-3.5663,-3.5873,-3.5873,-3.5765,-3.5463,-3.5114,-3.4871,-3.457,-3.4117,-3.4101,-3.4101,-3.4101,-3.4101,-3.4101,-3.4176,-3.4275,-3.4399,-3.4521,-3.4667,-3.4828,-3.4875,-3.4899,-3.4899,-3.4899,-3.4899,-3.4851,-3.4828,-3.478,-3.4763,-3.4763,-3.4739,-3.4896,-3.5432,-3.6108,-3.69,-3.7906,-3.8725,-3.8867,-3.898,-3.9162,-3.9119,-3.8976,-3.9156,-3.9315,-3.9315,-3.9265,-3.9222,-3.9222,-3.9169,-3.8996,-3.8662,-3.8395,-3.7953,-3.7235,-3.6566,-3.5875,-3.4972,-3.4205,-3.3874,-3.3697,-3.3456,-3.3269,-3.3964,-3.4079,-3.3416,-3.309,-3.346,-3.337,-3.3249,-3.2619,-3.178,-3.0969,-2.8646,-2.8864,-2.8889,-2.8889,-2.8879,-2.8889,-2.8919,-2.8889,-2.8889,-2.9464,-3.0274,-3.0495,-3.0541,-3.051,-3.0849,-3.0885,-3.0984,-3.1742,-3.2107,-3.2316,-3.2798,-3.324,-3.3403,-3.364,-3.3799,-3.3767,-3.3925,-3.4099,-3.3988,-3.3719,-3.353,-3.3324,-3.3293,-3.3293,-3.3293,-3.3293,-3.3293,-3.3293,-3.3377,-3.3488,-3.3873,-3.442,-3.483,-3.5033,-3.5139,-3.5218,-3.5062,-3.472,-3.4464,-3.4262,-3.4214,-3.4117,-3.4101,-3.4101,-3.4101,-3.4101,-3.4101,-3.4201,-3.4325,-3.4448,-3.4594,-3.4691,-3.4828,-3.4875,-3.4899,-3.4899,-3.4899,-3.4899,-3.4899,-3.4875,-3.4851,-3.4875,-3.4875,-3.4859,-3.4851,-3.5554,-3.6241,-3.7176,-3.8143,-3.8401,-3.8593,-3.8742,-3.895,-3.8984,-3.8934,-3.9017,-3.9232,-3.9282,-3.9166,-3.909,-3.9073,-3.9106,-3.9255,-3.904,-3.8733,-3.8339,-3.7693,-3.6714,-3.5874,-3.4942,-3.3876,-3.3472,-3.3124,-3.2754,-3.2695,-3.3499,-3.3754,-3.2998,-3.289,-3.3721,-3.3598,-3.3293,-3.3056,-3.2351,-3.147,-2.8348,-2.8411,-2.8411,-2.8411,-2.8411,-2.8411,-2.8411,-2.8411,-2.8411,-2.8812,-2.9443,-2.9645,-2.972,-2.9828,-3.0164,-3.025,-3.0326,-3.1491,-3.1693,-3.198,-3.2693,-3.3172,-3.3514,-3.3704,-3.3561,-3.3498,-3.3625,-3.3625,-3.334,-3.3309,-3.334,-3.3293,-3.3293,-3.3293,-3.3293,-3.3293,-3.3293,-3.3293,-3.3277,-3.333,-3.3408,-3.3831,-3.4038,-3.417,-3.4265,-3.437,-3.4388,-3.4143,-3.4138,-3.4092,-3.4101,-3.4101,-3.4101,-3.4101,-3.4101,-3.4126,-3.4176,-3.4234,-3.4358,-3.4505,-3.4643,-3.478,-3.4828,-3.4899,-3.4899,-3.4899,-3.4899,-3.4899,-3.4899,-3.4899,-3.4899,-3.4899,-3.4899,-3.4899,-3.4941,-3.5322,-3.6075,-3.692,-3.7474,-3.7706,-3.7814,-3.7831,-3.7947,-3.7947,-3.7914,-3.793,-3.8261,-3.8437,-3.8444,-3.8758,-3.8791,-3.8924,-3.9067,-3.9249,-3.9094,-3.8733,-3.8254,-3.7181,-3.6022,-3.4541,-3.3393,-3.2968,-3.254,-3.2532,-3.2721,-3.322,-3.32,-3.2767,-3.3475,-3.4506,-3.3967,-3.3183,-3.3051,-3.2907,-3.1894,-2.8372,-2.8411,-2.8411,-2.8411,-2.8411,-2.8411,-2.8411,-2.8411,-2.8411,-2.8411,-2.8543,-2.8649,-2.8597,-2.8854,-2.9173,-2.9099,-2.9626,-3.1039,-3.1357,-3.1732,-3.2698,-3.3135,-3.3293,-3.334,-3.334,-3.334,-3.3403,-3.3403,-3.3309,-3.3293,-3.3293,-3.3293,-3.3293,-3.3293,-3.3293,-3.3293,-3.3277,-3.3151,-3.3119,-3.3198,-3.323,-3.3261,-3.3398,-3.3409,-3.344,-3.3539,-3.371,-3.3838,-3.3949,-3.4025,-3.4101,-3.4101,-3.4101,-3.4101,-3.4126,-3.4151,-3.4226,-3.4349,-3.4497,-3.4602,-3.4739,-3.4851,-3.4899,-3.4899,-3.4899,-3.4899,-3.4899,-3.4932,-3.4932,-3.4899,-3.4899,-3.4899,-3.4899,-3.4916,-3.4998,-3.5164,-3.5926,-3.6572,-3.682,-3.7052,-3.7069,-3.7036,-3.7102,-3.7085,-3.7019,-3.7019,-3.7069,-3.7102,-3.7301,-3.7847,-3.8179,-3.8444,-3.8692,-3.8907,-3.9216,-3.8914,-3.8423,-3.7721,-3.6458,-3.4499,-3.299,-3.2724,-3.2636,-3.2815,-3.3082,-3.3154,-3.326,-3.3044,-3.3998,-3.4874,-3.4239,-3.345,-3.3746,-3.3405,-3.2214,-2.8299,-2.8411,-2.8411,-2.8411,-2.8411,-2.8411,-2.8411,-2.8411,-2.8411,-2.8411,-2.842,-2.8541,-2.866,-2.8755,-2.8912,-2.9022,-2.9446,-3.0728,-3.1171,-3.1451,-3.2582,-3.3087,-3.3245,-3.3151,-3.3277,-3.3214,-3.3151,-3.3261,-3.3103,-3.3182,-3.3277,-3.323,-3.3293,-3.3277,-3.323,-3.3166,-3.2977,-3.2787,-3.2803,-3.2898,-3.275,-3.2866,-3.3261,-3.3346,-3.3424,-3.3539,-3.3694,-3.3822,-3.3949,-3.405,-3.4101,-3.4101,-3.4101,-3.4101,-3.4134,-3.4226,-3.43,-3.4423,-3.457,-3.4691,-3.4804,-3.4875,-3.4899,-3.4899,-3.4875,-3.4875,-3.4932,-3.5015,-3.4998,-3.4916,-3.4899,-3.4899,-3.4899,-3.4899,-3.4949,-3.528,-3.581,-3.6092,-3.629,-3.6423,-3.6473,-3.6605,-3.682,-3.6704,-3.6456,-3.6539,-3.6771,-3.6787,-3.6721,-3.7135,-3.7516,-3.788,-3.8228,-3.8775,-3.9139,-3.8854,-3.8402,-3.7802,-3.6993,-3.5247,-3.3783,-3.2726,-3.2652,-3.2744,-3.268,-3.2659,-3.2795,-3.3011,-3.3607,-3.4207,-3.403,-3.3779,-3.4136,-3.3836,-3.2606]},{"header":{"parameterUnit":"m.s-1","parameterCategory":1,"la1":31.0,"la2":29.5877,"lo1":-88.7671,"lo2":-86.6584,"dy":0.0162,"dx":0.0185,"nx":115,"ny":88,"refTime":"2023-08-31T06:00:00:Z","depth":0,"parameterNumber":3,"parameterNumberName":"V-component_of_WINDS"},"data":[0.0,0.0,0.0,0.0,0.0,0.0,0.0,0.0,0.0,0.0,0.0,0.0,0.0,0.0,0.0,0.0,0.0,0.0,0.0,0.0,0.0,0.0,0.0,0.0,0.0,0.0,0.0,0.0,0.0,0.0,0.0,0.0,0.0,0.0,0.0,0.0,0.0,0.0,0.0,0.0,0.0,0.0,0.0,0.0,0.0,0.0,0.0,0.0,0.0,0.0,0.0,0.0,0.0,0.0,0.0,0.0,0.0,0.0,0.0,0.0,0.0,0.0,0.0,0.0,0.0,0.0,0.0,0.0,0.0,0.0,0.0,0.0,0.0,0.0,0.0,0.0,0.0,0.0,0.0,0.0,0.0,0.0,0.0,0.0,0.0,0.0,0.0,0.0,0.0,0.0,0.0,0.0,0.0,0.0,0.0,0.0,0.0,0.0,0.0,0.0,0.0,0.0,0.0,0.0,0.0,0.0,0.0,0.0,0.0,0.0,0.0,0.0,0.0,0.0,0.0,0.0,0.0,0.0,0.0,0.0,0.0,0.0,0.0,0.0,0.0,0.0,0.0,0.0,0.0,0.0,0.0,0.0,0.0,0.0,0.0,0.0,0.0,0.0,0.0,0.0,0.0,0.0,0.0,0.0,0.0,0.0,0.0,0.0,0.0,0.0,0.0,0.0,0.0,0.0,0.0,0.0,0.0,0.0,0.0,0.0,0.0,0.0,0.0,0.0,0.0,0.0,0.0,0.0,0.0,0.0,0.0,0.0,0.0,0.0,0.0,0.0,0.0,0.0,0.0,0.0,0.0,0.0,0.0,0.0,0.0,0.0,0.0,0.0,0.0,0.0,0.0,0.0,0.0,0.0,0.0,0.0,0.0,0.0,0.0,0.0,0.0,0.0,0.0,0.0,0.0,0.0,0.0,0.0,0.0,0.0,0.0,0.0,0.0,0.0,0.0,0.0,0.0,0.0,0.0,0.0,0.0,0.0,0.0,0.0,0.0,0.0,0.0,0.0,0.0,0.0,0.0,0.0,0.0,0.0,0.0,0.0,0.0,0.0,0.0,0.0,0.0,0.0,0.0,0.0,0.0,0.0,0.0,0.0,0.0,0.0,0.0,0.0,0.0,0.0,0.0,0.0,0.0,0.0,0.0,0.0,0.0,0.0,0.0,0.0,0.0,0.0,0.0,0.0,0.0,0.0,0.0,0.0,0.0,0.0,0.0,0.0,0.0,0.0,0.0,0.0,0.0,0.0,0.0,0.0,0.0,0.0,0.0,0.0,0.0,0.0,0.0,0.0,0.0,0.0,0.0,0.0,0.0,0.0,0.0,0.0,0.0,0.0,0.0,0.0,0.0,0.0,0.0,0.0,0.0,0.0,0.0,0.0,0.0,0.0,0.0,0.0,0.0,0.0,0.0,0.0,0.0,0.0,0.0,0.0,0.0,0.0,0.0,0.0,0.0,0.0,0.0,0.0,0.0,0.0,0.0,0.0,0.0,0.0,0.0,0.0,0.0,0.0,0.0,0.0,0.0,0.0,0.0,0.0,0.0,0.0,0.0,0.0,0.0,0.0,0.0,0.0,0.0,0.0,0.0,0.0,0.0,0.0,0.0,0.0,0.0,0.0,0.0,0.0,0.0,0.0,0.0,0.0,0.0,0.0,0.0,0.0,0.0,0.0,0.0,0.0,0.0,0.0,0.0,0.0,0.0,0.0,0.0,0.0,0.0,0.0,0.0,0.0,0.0,0.0,0.0,0.0,0.0,0.0,0.0,0.0,0.0,0.0,0.0,0.0,0.0,0.0,0.0,0.0,0.0,0.0,0.0,0.0,0.0,0.0,0.0,0.0,0.0,0.0,0.0,0.0,0.0,0.0,0.0,0.0,0.0,0.0,0.0,0.0,0.0,0.0,0.0,0.0,0.0,0.0,0.0,0.0,0.0,0.0,0.0,0.0,0.0,0.0,0.0,0.0,0.0,0.0,0.0,0.0,0.0,0.0,0.0,0.0,0.0,0.0,0.0,0.0,0.0,0.0,0.0,0.0,0.0,0.0,0.0,0.0,0.0,0.0,0.0,0.0,0.0,0.0,0.0,0.0,0.0,0.0,0.0,0.0,0.0,0.0,0.0,0.0,0.0,0.0,0.0,0.0,0.0,0.0,0.0,0.0,0.0,0.0,0.0,0.0,0.0,0.0,0.0,0.0,0.0,0.0,0.0,0.0,0.0,0.0,0.0,0.0,0.0,0.0,0.0,0.0,0.0,0.0,0.0,0.0,0.0,0.0,0.0,0.0,0.0,0.0,0.0,0.0,0.0,0.0,0.0,0.0,0.0,0.0,0.0,0.0,0.0,0.0,0.0,0.0,0.0,0.0,0.0,0.0,0.0,0.0,0.0,0.0,0.0,0.0,0.0,0.0,0.0,0.0,0.0,0.0,0.0,0.0,0.0,0.0,0.0,0.0,0.0,0.0,0.0,0.0,0.0,0.0,0.0,0.0,0.0,0.0,0.0,0.0,0.0,0.0,0.0,0.0,0.0,0.0,0.0,0.0,0.0,0.0,0.0,0.0,0.0,0.0,0.0,0.0,0.0,0.0,0.0,0.0,0.0,0.0,0.0,0.0,0.0,0.0,0.0,0.0,0.0,0.0,0.0,0.0,0.0,0.0,0.0,0.0,0.0,0.0,0.0,0.0,0.0,0.0,0.0,0.0,0.0,0.0,0.0,0.0,0.0,0.0,0.0,0.0,0.0,0.0,0.0,0.0,0.0,0.0,0.0,0.0,0.0,0.0,0.0,0.0,0.0,0.0,0.0,0.0,0.0,0.0,0.0,0.0,0.0,0.0,0.0,0.0,0.0,0.0,0.0,0.0,0.0,0.0,0.0,0.0,0.0,0.0,0.0,0.0,0.0,0.0,0.0,0.0,0.0,0.0,0.0,0.0,0.0,0.0,0.0,0.0,0.0,0.0,0.0,0.0,0.0,0.0,0.0,0.0,0.0,0.0,0.0,0.0,0.0,0.0,0.0,0.0,0.0,0.0,0.0,0.0,0.0,0.0,0.0,0.0,0.0,0.0,0.0,0.0,0.0,0.0,0.0,0.0,0.0,0.0,0.0,0.0,0.0,0.0,0.0,0.0,0.0,0.0,0.0,0.0,0.0,0.0,0.0,0.0,0.0,0.0,0.0,0.0,0.0,0.0,0.0,0.0,0.0,0.0,0.0,0.0,0.0,0.0,0.0,0.0,0.0,0.0,0.0,0.0,0.0,0.0,0.0,0.0,0.0,0.0,0.0,0.0,0.0,0.0,0.0,0.0,0.0,0.0,0.0,0.0,0.0,0.0,0.0,0.0,0.0,0.0,0.0,0.0,0.0,0.0,0.0,0.0,0.0,0.0,0.0,0.0,0.0,0.0,0.0,0.0,0.0,0.0,0.0,0.0,0.0,0.0,0.0,0.0,0.0,0.0,0.0,0.0,0.0,0.0,0.0,0.0,0.0,0.0,0.0,0.0,0.0,0.0,0.0,0.0,0.0,0.0,0.0,0.0,0.0,0.0,0.0,0.0,0.0,0.0,0.0,0.0,0.0,0.0,0.0,0.0,0.0,0.0,0.0,0.0,0.0,0.0,0.0,0.0,0.0,0.0,0.0,0.0,0.0,0.0,0.0,0.0,0.0,0.0,0.0,0.0,0.0,0.0,0.0,0.0,0.0,0.0,0.0,0.0,0.0,0.0,0.0,0.0,0.0,0.0,0.0,0.0,0.0,0.0,0.0,0.0,0.0,0.0,0.0,0.0,0.0,0.0,0.0,0.0,0.0,0.0,0.0,0.0,0.0,0.0,0.0,0.0,0.0,0.0,0.0,0.0,0.0,0.0,0.0,0.0,0.0,0.0,0.0,0.0,0.0,0.0,0.0,0.0,0.0,0.0,0.0,0.0,0.0,0.0,0.0,0.0,0.0,0.0,0.0,0.0,0.0,0.0,0.0,0.0,0.0,0.0,0.0,0.0,0.0,0.0,0.0,0.0,0.0,0.0,0.0,0.0,0.0,0.0,0.0,0.0,0.0,0.0,0.0,0.0,0.0,0.0,0.0,0.0,0.0,0.0,0.0,0.0,0.0,0.0,0.0,0.0,0.0,0.0,0.0,0.0,0.0,0.0,0.0,0.0,0.0,0.0,0.0,0.0,0.0,0.0,0.0,0.0,0.0,0.0,0.0,0.0,0.0,0.0,0.0,0.0,0.0,0.0,0.0,0.0,0.0,0.0,0.0,0.0,0.0,0.0,0.0,0.0,2.3671,0.0,0.0,0.0,0.0,0.0,0.0,0.0,0.0,0.0,0.0,0.0,0.0,0.0,0.0,0.0,0.0,0.0,0.0,0.0,0.0,0.0,0.0,0.0,0.0,0.0,0.0,0.0,0.0,0.0,0.0,0.0,0.0,0.0,0.0,0.0,0.0,0.0,0.0,0.0,0.0,0.0,0.0,0.0,0.0,0.0,0.0,0.0,0.0,0.0,0.0,0.0,0.0,0.0,0.0,0.0,0.0,0.0,0.0,0.0,0.0,0.0,0.0,0.0,0.0,0.0,0.0,0.0,0.0,0.0,0.0,0.0,0.0,0.0,0.0,0.0,0.0,0.0,0.0,0.0,0.0,0.0,0.0,0.0,0.0,0.0,0.0,0.0,0.0,0.0,0.0,0.0,0.0,0.0,0.0,0.0,0.0,0.0,0.0,0.0,0.0,0.0,0.0,0.0,0.0,0.0,0.0,0.0,0.0,0.0,0.0,2.4969,2.4042,2.478,2.4764,2.3842,0.0,0.0,0.0,0.0,0.0,0.0,0.0,0.0,0.0,0.0,0.0,0.0,0.0,0.0,0.0,0.0,0.0,0.0,0.0,0.0,0.0,0.0,0.0,0.0,0.0,0.0,0.0,0.0,0.0,0.0,0.0,0.0,0.0,0.0,0.0,0.0,0.0,0.0,0.0,0.0,0.0,0.0,0.0,0.0,0.0,0.0,0.0,0.0,0.0,0.0,0.0,0.0,0.0,0.0,0.0,0.0,0.0,0.0,0.0,0.0,0.0,0.0,0.0,0.0,0.0,0.0,0.0,0.0,0.0,0.0,0.0,0.0,0.0,0.0,0.0,0.0,0.0,0.0,0.0,0.0,0.0,0.0,0.0,0.0,0.0,0.0,0.0,0.0,0.0,0.0,0.0,0.0,0.0,0.0,0.0,0.0,0.0,0.0,0.0,0.0,0.0,0.0,0.0,0.0,0.0,0.0,0.0,0.0,0.0,0.0,0.0,0.0,2.5166,2.4967,2.3902,0.0,0.0,0.0,0.0,0.0,0.0,0.0,0.0,0.0,0.0,0.0,0.0,0.0,0.0,0.0,0.0,0.0,0.0,0.0,0.0,0.0,0.0,0.0,0.0,0.0,0.0,0.0,0.0,0.0,0.0,0.0,0.0,0.0,0.0,0.0,0.0,0.0,0.0,0.0,0.0,0.0,0.0,0.0,0.0,0.0,0.0,0.0,0.0,0.0,0.0,0.0,0.0,0.0,0.0,0.0,0.0,0.0,0.0,0.0,0.0,0.0,0.0,0.0,0.0,0.0,0.0,0.0,0.0,0.0,0.0,0.0,0.0,0.0,0.0,0.0,0.0,0.0,0.0,0.0,0.0,0.0,0.0,0.0,0.0,0.0,0.0,0.0,0.0,0.0,0.0,0.0,0.0,0.0,0.0,0.0,0.0,0.0,0.0,0.0,0.0,0.0,0.0,0.0,0.0,0.0,0.0,0.0,0.0,0.0,0.0,2.4935,2.6229,2.6344,0.0,2.416,0.0,0.0,0.0,0.0,0.0,0.0,0.0,0.0,0.0,0.0,0.0,0.0,0.0,0.0,0.0,0.0,0.0,0.0,0.0,0.0,0.0,0.0,0.0,0.0,0.0,0.0,0.0,0.0,0.0,0.0,0.0,0.0,0.0,0.0,0.0,0.0,0.0,0.0,0.0,0.0,0.0,0.0,0.0,0.0,0.0,0.0,0.0,0.0,0.0,0.0,0.0,0.0,0.0,0.0,0.0,0.0,0.0,0.0,0.0,0.0,0.0,0.0,0.0,0.0,0.0,0.0,0.0,0.0,0.0,0.0,0.0,0.0,0.0,0.0,0.0,0.0,0.0,0.0,0.0,0.0,0.0,0.0,0.0,0.0,0.0,0.0,0.0,0.0,0.0,0.0,0.0,0.0,0.0,0.0,0.0,0.0,0.0,0.0,0.0,0.0,0.0,0.0,0.0,0.0,0.0,0.0,0.0,0.0,0.0,0.0,2.6185,2.7189,2.6706,2.5669,0.0,0.0,0.0,0.0,0.0,0.0,0.0,0.0,0.0,0.0,0.0,0.0,0.0,0.0,0.0,0.0,0.0,0.0,0.0,0.0,0.0,0.0,0.0,0.0,0.0,0.0,0.0,0.0,0.0,0.0,0.0,0.0,0.0,0.0,0.0,0.0,0.0,0.0,0.0,0.0,0.0,0.0,0.0,0.0,0.0,0.0,0.0,0.0,0.0,0.0,0.0,0.0,0.0,0.0,0.0,0.0,0.0,0.0,0.0,0.0,0.0,0.0,0.0,0.0,0.0,0.0,0.0,0.0,0.0,0.0,0.0,0.0,0.0,0.0,0.0,0.0,0.0,0.0,0.0,0.0,0.0,0.0,0.0,0.0,0.0,0.0,0.0,0.0,0.0,0.0,0.0,0.0,0.0,0.0,0.0,0.0,0.0,0.0,0.0,0.0,0.0,0.0,0.0,0.0,0.0,0.0,0.0,0.0,0.0,0.0,2.647,2.7132,2.7951,2.7415,2.6104,2.4137,0.0,0.0,0.0,0.0,0.0,0.0,0.0,0.0,0.0,0.0,0.0,0.0,0.0,0.0,0.0,0.0,0.0,0.0,0.0,0.0,0.0,0.0,0.0,0.0,0.0,0.0,0.0,0.0,0.0,0.0,0.0,0.0,0.0,0.0,0.0,0.0,0.0,0.0,0.0,0.0,0.0,0.0,0.0,0.0,0.0,0.0,0.0,0.0,0.0,0.0,0.0,0.0,0.0,0.0,0.0,0.0,0.0,0.0,0.0,0.0,0.0,0.0,0.0,0.0,0.0,0.0,0.0,0.0,0.0,0.0,0.0,0.0,0.0,0.0,0.0,0.0,0.0,0.0,0.0,0.0,0.0,0.0,0.0,0.0,0.0,0.0,0.0,0.0,0.0,0.0,0.0,0.0,0.0,0.0,0.0,0.0,0.0,0.0,0.0,0.0,0.0,0.0,0.0,0.0,0.0,0.0,0.0,0.0,2.9981,2.7908,2.7432,2.8932,2.8785,2.7257,0.0,0.0,0.0,0.0,0.0,0.0,0.0,0.0,0.0,0.0,0.0,0.0,0.0,0.0,0.0,0.0,0.0,0.0,0.0,0.0,0.0,0.0,0.0,0.0,0.0,0.0,0.0,0.0,0.0,0.0,0.0,0.0,0.0,0.0,0.0,0.0,0.0,0.0,0.0,0.0,0.0,0.0,0.0,0.0,0.0,0.0,0.0,0.0,0.0,0.0,0.0,0.0,0.0,0.0,0.0,0.0,0.0,0.0,0.0,0.0,0.0,0.0,0.0,0.0,0.0,0.0,0.0,0.0,0.0,0.0,0.0,0.0,0.0,0.0,0.0,0.0,0.0,0.0,0.0,0.0,0.0,0.0,0.0,0.0,0.0,0.0,0.0,0.0,0.0,0.0,0.0,0.0,0.0,0.0,0.0,0.0,0.0,0.0,0.0,0.0,0.0,0.0,0.0,0.0,0.0,0.0,0.0,0.0,0.0,2.6504,2.7085,2.8665,3.106,2.8292,2.635,0.0,0.0,0.0,0.0,0.0,0.0,0.0,0.0,0.0,0.0,0.0,0.0,0.0,0.0,0.0,0.0,0.0,0.0,0.0,0.0,0.0,0.0,0.0,0.0,0.0,0.0,0.0,0.0,0.0,0.0,0.0,0.0,0.0,0.0,0.0,0.0,0.0,0.0,0.0,0.0,0.0,0.0,0.0,0.0,0.0,0.0,0.0,0.0,0.0,0.0,0.0,0.0,0.0,0.0,0.0,0.0,0.0,0.0,0.0,0.0,0.0,0.0,0.0,0.0,0.0,0.0,0.0,0.0,0.0,0.0,0.0,0.0,0.0,0.0,0.0,0.0,0.0,0.0,0.0,0.0,0.0,0.0,0.0,0.0,0.0,0.0,0.0,0.0,0.0,0.0,0.0,0.0,0.0,0.0,0.0,0.0,0.0,0.0,0.0,0.0,0.0,0.0,0.0,0.0,0.0,0.0,0.0,0.0,0.0,2.6335,0.0,3.0008,3.1262,2.8271,2.6067,0.0,0.0,0.0,0.0,0.0,0.0,0.0,0.0,0.0,0.0,0.0,0.0,0.0,0.0,0.0,0.0,0.0,0.0,0.0,0.0,0.0,0.0,0.0,0.0,0.0,0.0,0.0,0.0,0.0,0.0,0.0,0.0,0.0,0.0,0.0,0.0,0.0,0.0,0.0,0.0,0.0,0.0,0.0,0.0,0.0,0.0,0.0,0.0,0.0,0.0,0.0,0.0,0.0,0.0,0.0,0.0,0.0,0.0,0.0,0.0,0.0,0.0,0.0,0.0,0.0,0.0,0.0,0.0,0.0,0.0,0.0,0.0,0.0,0.0,0.0,0.0,0.0,0.0,0.0,0.0,0.0,0.0,0.0,0.0,0.0,0.0,0.0,0.0,0.0,0.0,0.0,0.0,0.0,0.0,0.0,0.0,0.0,0.0,0.0,0.0,0.0,0.0,0.0,0.0,0.0,0.0,0.0,0.0,2.8104,3.0328,3.153,3.1166,2.928,2.8879,2.6578,0.0,0.0,0.0,0.0,0.0,0.0,0.0,0.0,0.0,0.0,0.0,0.0,0.0,0.0,0.0,0.0,0.0,0.0,0.0,0.0,0.0,0.0,0.0,0.0,0.0,0.0,0.0,0.0,0.0,0.0,0.0,0.0,0.0,0.0,0.0,0.0,0.0,0.0,0.0,0.0,0.0,0.0,0.0,0.0,0.0,0.0,0.0,0.0,0.0,0.0,0.0,0.0,0.0,0.0,0.0,0.0,0.0,0.0,0.0,0.0,0.0,0.0,0.0,0.0,0.0,0.0,0.0,0.0,0.0,0.0,0.0,0.0,0.0,0.0,0.0,0.0,0.0,0.0,0.0,0.0,0.0,0.0,0.0,0.0,0.0,0.0,0.0,0.0,0.0,0.0,0.0,0.0,0.0,0.0,0.0,0.0,0.0,0.0,0.0,0.0,0.0,0.0,0.0,0.0,0.0,0.0,0.0,0.0,0.0,2.9566,2.9473,3.0115,3.1317,2.8027,2.6081,0.0,0.0,0.0,0.0,0.0,0.0,0.0,0.0,0.0,0.0,0.0,0.0,0.0,0.0,0.0,0.0,0.0,0.0,0.0,0.0,0.0,0.0,0.0,0.0,0.0,0.0,0.0,0.0,0.0,0.0,0.0,0.0,0.0,0.0,0.0,0.0,0.0,0.0,0.0,0.0,0.0,0.0,0.0,0.0,0.0,0.0,0.0,0.0,0.0,0.0,0.0,0.0,0.0,0.0,0.0,0.0,0.0,0.0,0.0,0.0,0.0,0.0,0.0,0.0,0.0,0.0,0.0,0.0,0.0,0.0,0.0,0.0,0.0,0.0,0.0,0.0,0.0,0.0,0.0,0.0,0.0,0.0,0.0,0.0,0.0,0.0,0.0,0.0,0.0,0.0,0.0,0.0,0.0,0.0,0.0,0.0,0.0,0.0,0.0,0.0,0.0,0.0,0.0,0.0,0.0,0.0,0.0,0.0,0.0,3.0542,3.0058,3.0503,3.202,2.8263,2.6304,2.6332,0.0,0.0,0.0,0.0,0.0,0.0,0.0,0.0,0.0,0.0,0.0,0.0,0.0,0.0,0.0,0.0,0.0,0.0,0.0,0.0,0.0,0.0,0.0,0.0,0.0,0.0,0.0,0.0,0.0,0.0,0.0,0.0,0.0,0.0,0.0,0.0,0.0,0.0,0.0,0.0,0.0,0.0,0.0,0.0,0.0,0.0,0.0,0.0,0.0,0.0,0.0,0.0,0.0,0.0,0.0,0.0,0.0,0.0,0.0,0.0,0.0,0.0,0.0,0.0,0.0,0.0,0.0,0.0,0.0,0.0,0.0,0.0,0.0,0.0,0.0,0.0,0.0,0.0,0.0,0.0,0.0,0.0,0.0,0.0,0.0,0.0,0.0,0.0,0.0,0.0,0.0,0.0,0.0,0.0,0.0,0.0,0.0,0.0,0.0,0.0,0.0,0.0,0.0,0.0,0.0,0.0,0.0,0.0,3.2903,3.2739,3.2188,3.1315,2.946,2.72,0.0,0.0,0.0,0.0,0.0,0.0,0.0,0.0,0.0,0.0,0.0,0.0,0.0,0.0,0.0,0.0,0.0,0.0,0.0,0.0,0.0,0.0,0.0,0.0,0.0,0.0,0.0,0.0,0.0,0.0,0.0,0.0,0.0,0.0,0.0,0.0,0.0,0.0,0.0,0.0,0.0,0.0,0.0,0.0,0.0,0.0,0.0,0.0,0.0,0.0,0.0,0.0,0.0,0.0,0.0,0.0,0.0,0.0,0.0,0.0,0.0,0.0,0.0,0.0,0.0,0.0,0.0,0.0,0.0,0.0,0.0,0.0,0.0,0.0,0.0,0.0,0.0,0.0,0.0,0.0,0.0,0.0,0.0,0.0,0.0,0.0,0.0,0.0,0.0,0.0,0.0,0.0,0.0,0.0,0.0,0.0,0.0,0.0,0.0,0.0,0.0,0.0,0.0,0.0,0.0,0.0,0.0,0.0,0.0,3.2316,3.2774,3.3055,3.3156,3.0308,2.83,0.0,0.0,0.0,0.0,0.0,0.0,0.0,0.0,0.0,0.0,0.0,0.0,0.0,0.0,0.0,0.0,0.0,0.0,0.0,0.0,0.0,0.0,0.0,0.0,0.0,0.0,0.0,0.0,0.0,0.0,0.0,0.0,0.0,0.0,0.0,0.0,0.0,0.0,0.0,0.0,0.0,0.0,0.0,0.0,0.0,0.0,0.0,0.0,0.0,0.0,0.0,0.0,0.0,0.0,0.0,0.0,0.0,0.0,0.0,0.0,0.0,0.0,0.0,0.0,0.0,0.0,0.0,0.0,0.0,0.0,0.0,0.0,0.0,0.0,0.0,0.0,0.0,0.0,0.0,0.0,0.0,0.0,0.0,0.0,0.0,0.0,0.0,0.0,0.0,0.0,0.0,0.0,0.0,0.0,0.0,0.0,0.0,0.0,0.0,0.0,0.0,0.0,0.0,0.0,0.0,0.0,0.0,0.0,3.0991,3.3085,3.372,3.418,3.4497,3.174,2.9457,0.0,0.0,0.0,0.0,0.0,0.0,0.0,0.0,0.0,0.0,0.0,0.0,0.0,0.0,0.0,0.0,0.0,0.0,0.0,0.0,0.0,0.0,0.0,0.0,0.0,0.0,0.0,0.0,0.0,0.0,0.0,0.0,0.0,0.0,0.0,0.0,0.0,0.0,0.0,0.0,0.0,0.0,0.0,0.0,0.0,0.0,0.0,0.0,0.0,0.0,0.0,0.0,0.0,0.0,0.0,0.0,0.0,0.0,0.0,0.0,0.0,0.0,0.0,0.0,0.0,0.0,0.0,0.0,0.0,0.0,0.0,0.0,0.0,0.0,0.0,0.0,0.0,0.0,0.0,0.0,0.0,0.0,0.0,0.0,0.0,0.0,0.0,0.0,0.0,0.0,0.0,0.0,0.0,0.0,0.0,0.0,0.0,0.0,0.0,0.0,0.0,0.0,0.0,0.0,0.0,0.0,0.0,0.0,3.1498,3.4297,3.498,3.5264,3.5148,3.3235,3.0581,0.0,0.0,0.0,0.0,0.0,0.0,0.0,0.0,0.0,0.0,0.0,0.0,0.0,0.0,0.0,0.0,0.0,0.0,0.0,0.0,0.0,0.0,0.0,0.0,0.0,0.0,0.0,0.0,0.0,0.0,0.0,0.0,0.0,0.0,0.0,0.0,0.0,0.0,0.0,0.0,0.0,0.0,0.0,0.0,0.0,0.0,0.0,0.0,0.0,0.0,0.0,0.0,0.0,0.0,0.0,0.0,0.0,0.0,0.0,0.0,0.0,0.0,0.0,0.0,0.0,0.0,0.0,0.0,0.0,0.0,0.0,0.0,0.0,0.0,0.0,0.0,0.0,0.0,0.0,0.0,0.0,0.0,0.0,0.0,0.0,0.0,0.0,0.0,0.0,0.0,0.0,0.0,0.0,0.0,0.0,0.0,0.0,0.0,0.0,0.0,0.0,0.0,0.0,0.0,0.0,0.0,0.0,0.0,3.2489,3.4181,3.4881,3.5218,3.52,3.3047,3.0871,0.0,0.0,0.0,0.0,0.0,0.0,0.0,0.0,0.0,0.0,0.0,0.0,0.0,0.0,0.0,0.0,0.0,0.0,0.0,0.0,0.0,0.0,0.0,0.0,0.0,0.0,0.0,0.0,0.0,0.0,0.0,0.0,0.0,0.0,0.0,0.0,0.0,0.0,0.0,0.0,0.0,0.0,0.0,0.0,0.0,0.0,0.0,0.0,2.8493,0.0,0.0,0.0,0.0,0.0,0.0,0.0,0.0,0.0,0.0,0.0,0.0,0.0,0.0,0.0,0.0,0.0,0.0,0.0,0.0,0.0,0.0,0.0,0.0,0.0,0.0,0.0,0.0,0.0,0.0,0.0,0.0,0.0,0.0,0.0,0.0,0.0,0.0,0.0,0.0,0.0,0.0,0.0,0.0,0.0,0.0,0.0,0.0,0.0,0.0,0.0,0.0,0.0,0.0,0.0,0.0,0.0,0.0,0.0,3.3286,3.4681,3.5376,3.5732,3.5645,3.3869,3.16,0.0,0.0,0.0,0.0,0.0,0.0,0.0,0.0,0.0,0.0,0.0,0.0,0.0,0.0,0.0,0.0,0.0,0.0,0.0,0.0,0.0,0.0,0.0,0.0,0.0,0.0,0.0,0.0,0.0,0.0,0.0,0.0,0.0,0.0,0.0,0.0,0.0,0.0,0.0,0.0,0.0,0.0,0.0,0.0,0.0,0.0,0.0,0.0,0.0,0.0,0.0,0.0,0.0,0.0,0.0,0.0,0.0,0.0,0.0,0.0,0.0,0.0,0.0,0.0,0.0,0.0,0.0,0.0,0.0,0.0,0.0,0.0,0.0,0.0,0.0,0.0,0.0,0.0,0.0,0.0,0.0,0.0,0.0,0.0,0.0,0.0,0.0,0.0,0.0,0.0,0.0,0.0,0.0,0.0,0.0,0.0,0.0,0.0,0.0,0.0,0.0,0.0,0.0,0.0,0.0,0.0,0.0,3.256,3.3927,3.5388,3.5998,3.6284,3.6266,3.4869,3.2421,2.8937,0.0,0.0,0.0,0.0,0.0,0.0,0.0,0.0,0.0,0.0,0.0,0.0,0.0,0.0,0.0,0.0,0.0,0.0,0.0,0.0,0.0,0.0,0.0,0.0,0.0,0.0,0.0,0.0,0.0,0.0,0.0,0.0,0.0,0.0,0.0,0.0,0.0,0.0,2.7331,2.7997,0.0,0.0,0.0,0.0,0.0,0.0,0.0,0.0,2.8711,0.0,0.0,0.0,0.0,0.0,0.0,0.0,0.0,0.0,0.0,0.0,0.0,0.0,0.0,0.0,0.0,0.0,0.0,0.0,0.0,0.0,0.0,0.0,0.0,0.0,0.0,0.0,0.0,0.0,0.0,0.0,0.0,0.0,0.0,0.0,0.0,0.0,0.0,0.0,0.0,0.0,0.0,0.0,0.0,0.0,0.0,0.0,0.0,0.0,0.0,0.0,0.0,0.0,0.0,0.0,0.0,3.2786,3.3026,3.4092,3.6063,3.6232,3.6284,3.6249,3.4872,3.2904,3.0421,0.0,0.0,0.0,0.0,0.0,0.0,0.0,0.0,0.0,0.0,0.0,0.0,0.0,0.0,0.0,0.0,0.0,0.0,0.0,0.0,0.0,0.0,0.0,0.0,0.0,0.0,0.0,0.0,0.0,0.0,0.0,0.0,0.0,0.0,0.0,0.0,0.0,0.0,0.0,3.0466,3.1235,0.0,0.0,0.0,0.0,0.0,0.0,0.0,0.0,2.9289,0.0,0.0,0.0,0.0,0.0,0.0,0.0,0.0,0.0,0.0,0.0,0.0,0.0,0.0,0.0,0.0,0.0,0.0,0.0,0.0,0.0,0.0,0.0,0.0,0.0,0.0,0.0,0.0,0.0,0.0,0.0,0.0,0.0,0.0,0.0,0.0,0.0,0.0,0.0,0.0,0.0,0.0,0.0,0.0,0.0,0.0,0.0,0.0,0.0,0.0,0.0,0.0,0.0,0.0,0.0,3.1752,3.2664,3.3854,3.5464,3.5793,3.5736,3.5309,3.4129,3.2593,0.0,0.0,0.0,0.0,0.0,0.0,0.0,0.0,0.0,0.0,0.0,0.0,0.0,0.0,0.0,0.0,0.0,0.0,0.0,0.0,0.0,0.0,0.0,0.0,0.0,0.0,0.0,0.0,0.0,0.0,0.0,0.0,0.0,0.0,0.0,0.0,0.0,0.0,0.0,0.0,3.054,3.1249,3.1648,0.0,0.0,0.0,0.0,0.0,0.0,2.9082,2.9068,0.0,0.0,0.0,0.0,0.0,0.0,0.0,0.0,0.0,0.0,0.0,0.0,0.0,0.0,0.0,0.0,0.0,0.0,0.0,0.0,0.0,0.0,0.0,0.0,0.0,0.0,0.0,0.0,0.0,0.0,0.0,0.0,0.0,0.0,0.0,0.0,0.0,0.0,0.0,0.0,0.0,0.0,0.0,0.0,0.0,0.0,0.0,0.0,0.0,0.0,0.0,0.0,0.0,0.0,0.0,3.0446,3.1942,3.3317,3.4558,3.5147,3.5065,3.4307,3.3438,3.2202,0.0,0.0,0.0,0.0,0.0,0.0,0.0,0.0,0.0,0.0,0.0,0.0,0.0,0.0,0.0,0.0,0.0,0.0,0.0,0.0,0.0,0.0,0.0,0.0,0.0,0.0,0.0,0.0,0.0,0.0,0.0,0.0,0.0,0.0,0.0,0.0,0.0,0.0,0.0,0.0,0.0,3.1449,3.2576,3.1479,0.0,0.0,0.0,0.0,2.9816,2.9782,0.0,0.0,0.0,0.0,0.0,0.0,0.0,0.0,0.0,0.0,0.0,0.0,0.0,0.0,0.0,0.0,0.0,0.0,0.0,0.0,0.0,0.0,0.0,0.0,0.0,0.0,0.0,0.0,0.0,0.0,0.0,0.0,0.0,0.0,0.0,0.0,0.0,0.0,0.0,0.0,0.0,0.0,0.0,0.0,0.0,0.0,0.0,0.0,0.0,0.0,0.0,0.0,0.0,0.0,0.0,0.0,2.9733,3.1029,3.242,3.3868,3.4549,3.4579,3.3894,3.3455,3.2246,0.0,0.0,0.0,0.0,0.0,0.0,0.0,0.0,0.0,0.0,0.0,0.0,0.0,0.0,0.0,0.0,0.0,0.0,0.0,0.0,0.0,0.0,0.0,0.0,0.0,0.0,0.0,0.0,0.0,0.0,0.0,0.0,0.0,0.0,0.0,0.0,0.0,0.0,0.0,0.0,0.0,3.3905,3.1567,3.2056,3.245,0.0,0.0,3.183,3.2593,3.3227,0.0,0.0,0.0,0.0,0.0,0.0,0.0,0.0,0.0,0.0,0.0,0.0,0.0,0.0,0.0,0.0,0.0,0.0,0.0,0.0,0.0,0.0,0.0,0.0,0.0,0.0,0.0,0.0,0.0,0.0,0.0,0.0,0.0,0.0,0.0,0.0,0.0,0.0,0.0,0.0,0.0,0.0,0.0,0.0,0.0,0.0,0.0,0.0,0.0,0.0,0.0,0.0,0.0,0.0,0.0,2.67,2.8923,3.0583,3.1932,3.2935,3.3909,3.3875,3.273,3.242,3.116,0.0,0.0,0.0,0.0,0.0,0.0,0.0,0.0,0.0,0.0,0.0,0.0,0.0,0.0,0.0,0.0,0.0,0.0,0.0,0.0,0.0,0.0,0.0,0.0,0.0,0.0,0.0,0.0,0.0,0.0,0.0,0.0,0.0,0.0,0.0,0.0,0.0,0.0,0.0,0.0,0.0,0.0,3.3682,3.3662,0.0,0.0,0.0,3.3189,3.3294,0.0,0.0,0.0,0.0,0.0,0.0,0.0,0.0,0.0,0.0,0.0,0.0,0.0,0.0,0.0,0.0,0.0,0.0,0.0,0.0,0.0,0.0,0.0,0.0,0.0,0.0,0.0,0.0,0.0,0.0,0.0,0.0,0.0,0.0,0.0,0.0,0.0,0.0,0.0,0.0,0.0,0.0,0.0,0.0,0.0,0.0,0.0,0.0,0.0,0.0,0.0,0.0,0.0,0.0,0.0,0.0,0.0,2.7876,2.9989,3.141,3.2023,3.307,3.3045,3.1782,3.1648,0.0,0.0,0.0,0.0,0.0,0.0,0.0,0.0,0.0,0.0,0.0,0.0,0.0,0.0,0.0,0.0,0.0,0.0,0.0,0.0,0.0,0.0,0.0,0.0,0.0,0.0,0.0,2.4552,0.0,0.0,0.0,0.0,0.0,0.0,0.0,0.0,0.0,0.0,0.0,0.0,0.0,0.0,3.3624,3.4775,3.4684,3.4431,0.0,0.0,3.4312,3.3964,3.4037,3.3345,0.0,0.0,0.0,0.0,0.0,0.0,0.0,0.0,0.0,0.0,0.0,0.0,0.0,0.0,0.0,0.0,0.0,0.0,0.0,0.0,0.0,0.0,0.0,0.0,0.0,0.0,0.0,0.0,0.0,0.0,0.0,0.0,0.0,0.0,0.0,0.0,0.0,0.0,0.0,0.0,0.0,0.0,0.0,0.0,0.0,0.0,0.0,0.0,0.0,0.0,0.0,0.0,0.0,0.0,2.5659,2.6502,2.8967,3.0615,3.127,3.2032,3.2057,3.1288,3.1662,3.0528,0.0,0.0,0.0,0.0,0.0,0.0,0.0,0.0,0.0,0.0,0.0,0.0,0.0,0.0,0.0,0.0,0.0,0.0,0.0,0.0,0.0,0.0,0.0,0.0,0.0,0.0,0.0,0.0,0.0,0.0,0.0,0.0,0.0,0.0,0.0,0.0,0.0,0.0,0.0,0.0,0.0,3.3537,3.2898,3.4418,3.562,0.0,0.0,3.531,3.5361,3.6316,3.5701,3.1479,0.0,0.0,0.0,0.0,0.0,0.0,0.0,0.0,0.0,0.0,0.0,0.0,0.0,0.0,0.0,0.0,0.0,0.0,0.0,0.0,0.0,0.0,0.0,0.0,0.0,0.0,0.0,0.0,0.0,0.0,0.0,0.0,0.0,0.0,0.0,0.0,0.0,0.0,0.0,0.0,0.0,0.0,0.0,0.0,0.0,0.0,0.0,0.0,0.0,0.0,0.0,0.0,0.0,2.5743,2.685,2.9071,3.033,3.0591,3.1255,3.1286,3.0591,3.0752,2.9621,0.0,0.0,0.0,0.0,0.0,0.0,0.0,0.0,0.0,0.0,0.0,0.0,0.0,0.0,0.0,0.0,0.0,0.0,0.0,0.0,0.0,0.0,0.0,0.0,0.0,0.0,0.0,0.0,2.6691,2.6995,2.625,0.0,0.0,0.0,0.0,0.0,0.0,0.0,0.0,0.0,0.0,3.452,3.4832,3.5819,0.0,0.0,3.6318,3.6434,3.6525,3.5765,3.4457,3.2329,3.0871,0.0,0.0,0.0,0.0,0.0,0.0,0.0,0.0,0.0,0.0,0.0,0.0,0.0,0.0,0.0,0.0,0.0,0.0,0.0,0.0,0.0,0.0,0.0,0.0,0.0,0.0,0.0,0.0,0.0,0.0,0.0,0.0,0.0,0.0,0.0,0.0,0.0,0.0,0.0,0.0,0.0,0.0,0.0,0.0,0.0,0.0,0.0,0.0,0.0,0.0,0.0,0.0,2.5942,2.6872,2.8835,2.9975,3.018,3.086,3.0875,3.0251,3.0615,2.9624,0.0,0.0,0.0,0.0,0.0,0.0,0.0,0.0,0.0,0.0,0.0,0.0,0.0,0.0,0.0,0.0,0.0,0.0,0.0,0.0,0.0,0.0,0.0,0.0,0.0,0.0,0.0,0.0,2.7808,2.7881,2.6984,0.0,0.0,0.0,0.0,0.0,0.0,0.0,0.0,0.0,0.0,3.5027,3.594,3.6519,3.6776,3.6538,3.6635,3.6719,3.658,3.5355,3.3915,3.2526,0.0,0.0,0.0,0.0,0.0,0.0,0.0,0.0,0.0,0.0,0.0,0.0,0.0,0.0,0.0,0.0,0.0,0.0,0.0,0.0,0.0,0.0,0.0,0.0,0.0,0.0,0.0,0.0,0.0,0.0,2.4031,0.0,0.0,0.0,0.0,0.0,0.0,0.0,0.0,0.0,0.0,0.0,0.0,0.0,0.0,0.0,0.0,0.0,0.0,0.0,0.0,0.0,0.0,2.6084,2.6148,2.8148,2.9485,3.0188,3.0844,3.0875,3.0267,3.1516,3.0916,2.8117,0.0,0.0,0.0,0.0,0.0,0.0,0.0,0.0,0.0,0.0,0.0,0.0,0.0,0.0,0.0,0.0,0.0,0.0,0.0,0.0,0.0,0.0,0.0,0.0,0.0,0.0,2.8188,2.7261,2.6515,0.0,0.0,0.0,0.0,0.0,0.0,0.0,0.0,0.0,0.0,3.3224,3.4765,3.5459,3.6107,3.6507,3.6507,3.6352,3.5984,3.5321,3.5495,3.4757,0.0,0.0,0.0,0.0,0.0,0.0,0.0,0.0,0.0,0.0,0.0,0.0,0.0,0.0,0.0,0.0,0.0,0.0,0.0,0.0,0.0,0.0,0.0,0.0,0.0,0.0,0.0,2.7077,2.6451,0.0,0.0,0.0,0.0,0.0,0.0,0.0,0.0,0.0,0.0,0.0,2.7762,2.865,0.0,0.0,0.0,0.0,0.0,0.0,0.0,0.0,0.0,0.0,0.0,0.0,2.6157,2.6392,2.8165,2.9469,3.0188,3.0401,3.0417,3.022,3.1081,3.0416,2.8039,0.0,0.0,0.0,0.0,0.0,0.0,0.0,0.0,0.0,0.0,0.0,0.0,0.0,0.0,0.0,0.0,0.0,0.0,0.0,0.0,0.0,0.0,0.0,0.0,0.0,2.8379,0.0,0.0,0.0,0.0,0.0,0.0,0.0,0.0,0.0,0.0,0.0,3.1905,3.3288,3.4844,3.5922,3.6153,3.6353,3.6492,0.0,0.0,0.0,0.0,0.0,0.0,0.0,0.0,0.0,0.0,0.0,0.0,0.0,0.0,3.2896,3.1039,3.0369,3.018,3.0449,0.0,0.0,0.0,0.0,0.0,0.0,0.0,0.0,0.0,0.0,0.0,0.0,0.0,0.0,2.8392,0.0,2.7765,0.0,0.0,0.0,0.0,0.0,0.0,0.0,0.0,2.9155,2.9904,2.9726,3.0604,3.0417,0.0,2.8964,2.7732,0.0,0.0,0.0,0.0,0.0,0.0,0.0,0.0,2.5988,2.6206,2.7936,2.9084,2.9574,3.0024,3.008,2.9695,3.0329,3.001,2.8599,2.7624,2.6167,0.0,0.0,0.0,0.0,0.0,0.0,0.0,0.0,0.0,0.0,0.0,0.0,0.0,0.0,0.0,0.0,0.0,0.0,0.0,0.0,0.0,0.0,0.0,2.8871,0.0,0.0,0.0,0.0,0.0,0.0,0.0,0.0,0.0,3.0166,3.1844,3.3537,3.4705,3.5784,3.6492,3.6492,0.0,0.0,0.0,0.0,0.0,0.0,0.0,3.4394,3.409,3.3148,3.2347,3.213,3.3397,3.4151,3.3276,0.0,0.0,3.2622,3.1935,3.1741,3.2058,3.1971,3.1987,3.2598,3.2965,3.3126,0.0,0.0,0.0,0.0,0.0,0.0,0.0,0.0,2.9443,2.9721,0.0,2.9057,0.0,0.0,0.0,0.0,0.0,2.9027,0.0,0.0,3.218,3.2591,3.0943,3.1642,3.1599,3.0824,3.0365,2.9683,2.8671,2.6388,0.0,0.0,0.0,0.0,0.0,0.0,2.5653,2.5743,2.7519,2.8454,2.854,2.9747,2.9891,2.8906,2.9352,2.967,2.977,2.9107,2.7712,2.5472,2.4687,0.0,0.0,0.0,0.0,0.0,0.0,0.0,0.0,0.0,0.0,0.0,0.0,0.0,0.0,0.0,0.0,0.0,0.0,0.0,0.0,2.8594,0.0,0.0,0.0,0.0,0.0,0.0,0.0,0.0,0.0,0.0,3.1763,3.3349,3.4828,3.546,0.0,0.0,0.0,0.0,3.6769,3.743,3.7347,3.6974,3.6348,3.6632,3.6198,3.4136,0.0,0.0,3.2856,3.4203,3.5055,3.3829,3.4622,3.5392,3.5001,3.3849,3.3243,3.3849,3.3864,3.3773,3.3818,3.4555,3.5135,3.356,0.0,0.0,0.0,0.0,3.1143,3.1452,3.1979,3.1854,3.1355,3.0597,3.0266,0.0,0.0,0.0,0.0,0.0,0.0,2.9311,2.9859,3.1591,3.2099,3.1607,3.2385,3.2228,3.1138,3.0674,3.0061,2.9354,2.8221,2.7015,2.575,0.0,0.0,0.0,0.0,2.6812,2.6513,2.8169,2.9364,2.9824,3.0197,3.0476,3.0529,2.9833,2.9605,2.9915,2.9194,2.8218,2.6985,2.57,0.0,0.0,0.0,0.0,0.0,0.0,0.0,0.0,0.0,0.0,0.0,0.0,0.0,0.0,0.0,0.0,0.0,0.0,0.0,2.8818,2.8739,2.9012,0.0,0.0,0.0,0.0,0.0,0.0,0.0,0.0,0.0,3.4412,3.566,3.6522,0.0,0.0,3.7215,3.7215,3.7215,3.7414,3.7929,3.7887,0.0,0.0,3.6377,3.5855,3.522,3.5215,3.5135,3.4711,3.513,3.5385,3.4981,3.5235,3.5462,3.5394,3.5063,3.4855,3.5146,3.5097,3.5016,3.5143,3.5364,3.5444,3.6397,3.3863,3.3234,3.3091,3.327,3.2857,3.3016,3.3566,3.3376,3.3091,3.2716,3.2058,3.117,3.012,2.9162,0.0,0.0,0.0,3.0156,3.0846,3.1655,3.1913,3.1766,3.2243,3.208,3.1307,3.0778,3.0308,2.9883,2.9334,2.8686,2.788,0.0,0.0,2.5683,2.6824,2.7258,2.701,2.8376,2.9332,2.9797,2.9797,3.0068,3.0626,2.9898,2.9649,2.9943,2.9479,2.8794,2.7937,2.6779,2.5703,0.0,0.0,0.0,0.0,0.0,0.0,0.0,0.0,0.0,0.0,0.0,2.6646,2.6199,0.0,0.0,0.0,2.7251,2.8506,2.9699,2.992,0.0,0.0,0.0,0.0,0.0,0.0,0.0,3.4091,3.5907,3.6876,3.6384,3.723,3.7554,3.6615,3.7076,3.7415,3.7123,0.0,3.7582,3.7787,3.7697,3.7443,3.6953,3.6396,3.5919,3.5666,3.5539,3.5489,3.5489,3.5489,3.5489,3.5489,3.5489,3.5489,3.5489,3.5489,3.5522,3.5604,3.5764,3.5821,3.5696,3.5749,3.5833,3.8643,3.6909,3.5424,3.4965,3.5125,3.4425,3.4243,3.4407,3.4212,3.4728,3.5537,3.3941,3.3406,3.3547,3.1322,0.0,3.2749,3.1811,3.1664,3.2241,3.2211,3.1954,3.1526,3.1495,3.1404,3.1205,3.0767,3.0477,3.0253,2.9869,2.9638,2.9609,2.8352,2.7389,2.6811,2.7097,2.7342,2.7468,2.8333,2.8836,2.8972,2.8914,2.914,2.9609,2.9567,2.9572,2.9713,2.9647,2.9257,2.8387,2.775,2.6811,2.5527,0.0,0.0,0.0,0.0,0.0,0.0,0.0,0.0,0.0,0.0,0.0,0.0,0.0,0.0,0.0,2.8414,0.0,3.0555,3.1705,0.0,0.0,0.0,3.2936,3.3721,3.4906,3.5675,3.5675,0.0,0.0,3.76,3.8015,3.7969,3.6722,3.7076,3.7246,3.6722,3.7215,3.752,3.748,3.7286,3.7061,3.676,3.649,3.6136,3.5627,3.5489,3.5489,3.5489,3.5489,3.5489,3.5489,3.5489,3.5489,3.5489,3.5489,3.5489,3.5489,3.5953,3.6193,3.5654,3.5923,3.6118,3.8767,3.8001,3.7627,3.6881,3.5966,3.6128,3.5926,3.5472,3.4848,3.4622,3.4662,3.3835,3.322,3.2801,3.2207,3.2163,3.2566,3.2295,3.2292,3.2424,3.2438,3.2099,3.1509,3.1495,3.1172,3.0571,3.0414,3.031,3.0158,3.0015,2.9974,2.9974,2.9748,2.9102,2.8121,2.8584,2.8828,2.874,2.9258,2.9487,2.9425,2.9003,2.8764,2.8869,2.8382,2.8092,2.8085,2.8272,2.8268,2.8027,2.7639,2.7242,2.6919,2.5749,0.0,0.0,0.0,0.0,0.0,0.0,0.0,0.0,0.0,2.7422,2.6529,0.0,2.8069,0.0,2.9597,3.0848,3.2521,3.2521,0.0,0.0,3.506,3.5414,3.7092,3.7138,3.703,3.703,3.8046,3.8246,3.6892,3.7307,3.7631,3.7292,3.6953,3.7046,3.7846,3.8169,3.8363,3.8464,3.8424,3.8043,3.6763,3.6076,3.5699,3.5534,3.5489,3.5489,3.5489,3.5489,3.5489,3.5489,3.5489,3.5489,3.5489,3.5489,3.5489,3.5504,3.5639,3.5699,3.5534,3.5639,3.5699,3.8231,3.7569,3.7784,3.7218,3.6217,3.6466,3.6384,3.595,3.511,3.4777,3.4894,3.4525,3.3949,3.3383,3.3354,3.3354,3.3354,3.3079,3.2933,3.2919,3.2547,3.2228,3.1915,3.1469,3.1073,3.0651,3.0348,3.0127,2.996,3.005,3.0254,3.0494,3.0573,3.0276,2.9646,2.9735,2.9808,2.9822,2.9866,2.9867,2.9668,2.9296,2.8999,2.8727,2.8539,2.8112,2.7407,2.7728,2.7763,2.7373,2.7186,2.7067,2.6996,2.6282,2.581,0.0,0.0,0.0,0.0,0.0,0.0,0.0,0.0,0.0,0.0,0.0,2.9871,3.1074,3.2105,3.326,3.4645,3.4983,3.5737,3.7215,3.7061,3.7277,3.84,3.8185,3.7831,3.7538,3.8092,3.8123,3.7107,3.7277,3.7507,3.7492,3.6923,3.6861,3.7815,3.8061,3.7977,3.7727,3.7661,3.7316,3.6199,3.5744,3.5489,3.5489,3.5489,3.5489,3.5489,3.5489,3.5489,3.5489,3.5489,3.5489,3.5489,3.5489,3.5489,3.5489,3.5489,3.5489,3.5489,3.5489,3.5489,3.7575,3.6791,3.7158,3.6985,3.6465,3.6268,3.6193,3.61,3.511,3.4971,3.5453,3.5345,3.4936,3.438,3.438,3.438,3.437,3.3881,3.362,3.3576,3.2724,3.2436,3.2582,3.1582,3.1122,3.1171,3.0566,3.0159,2.9905,3.0057,3.0418,3.093,3.0976,3.1019,3.1076,3.0618,3.0429,3.0522,3.0219,2.9974,2.9777,2.9665,2.9369,2.893,2.9114,2.857,2.7227,2.7596,2.7523,2.6799,2.6869,2.6842,2.6669,2.6634,2.6561,0.0,2.6489,0.0,0.0,0.0,0.0,0.0,0.0,0.0,0.0,3.163,3.2477,3.3444,3.4799,3.5891,3.6445,3.7554,3.8292,3.8369,3.8385,3.8415,3.8508,3.8508,3.8246,3.7584,3.8015,3.8123,3.743,3.7384,3.7369,3.7383,3.6844,3.6706,3.7305,3.7474,3.7209,3.6219,3.6019,3.5993,3.5644,3.5519,3.5489,3.5489,3.5522,3.5522,3.5537,3.5537,3.5522,3.5522,3.5522,3.5489,3.5489,3.5489,3.5489,3.5489,3.5489,3.5489,3.5504,3.5522,3.5537,3.8222,3.8033,3.8007,3.7957,3.7749,3.6688,3.6111,3.5897,3.5077,3.4655,3.4622,3.4588,3.4516,3.438,3.438,3.438,3.438,3.4283,3.424,3.4211,3.3374,3.3103,3.3238,3.2227,3.1764,3.1797,3.1553,3.1033,3.0379,3.0425,3.0481,3.058,3.0754,3.1105,3.1498,0.0,0.0,0.0,2.996,2.9792,2.9634,2.9602,2.9338,2.875,2.8169,0.0,2.6792,2.7031,2.7114,2.6987,2.7735,0.0,0.0,0.0,0.0,0.0,0.0,0.0,0.0,0.0,0.0,0.0,3.19,3.1634,3.2047,3.3717,3.4628,3.4366,3.5537,3.6353,3.6476,3.6707,3.7107,3.7615,3.7692,3.7908,3.8431,3.8508,3.8246,3.76,3.7615,3.7446,3.683,3.6676,3.6829,3.7116,3.6687,3.6517,3.7016,3.7157,3.7111,3.6827,3.6114,3.5617,3.5504,3.5489,3.5489,3.5489,3.5604,3.5671,3.5671,3.5638,3.5671,3.5638,3.5572,3.5489,3.5489,3.5489,3.5489,3.5489,3.5489,3.5489,3.5489,3.5572,3.5621,3.7297,0.0,3.6714,3.665,0.0,3.5897,3.5436,3.5392,3.4982,3.4635,3.4414,3.438,3.438,3.438,3.438,3.438,3.438,3.438,3.438,3.4366,3.3811,3.3667,3.3906,3.272,3.2255,3.2411,3.1551,3.089,3.0498,3.0484,3.0684,3.1007,3.1401,3.1744,3.2027,3.1514,3.0832,2.9974,2.9853,2.973,2.9602,2.9602,2.9321,2.8731,0.0,0.0,0.0,0.0,0.0,0.0,0.0,0.0,0.0,0.0,0.0,2.8872,2.9186,2.9781,3.072,3.0822,3.153,3.3198,3.3149,3.3263,3.3733,3.5048,3.5738,3.5537,3.6399,3.6999,3.7015,3.7277,3.7631,3.7954,3.7984,3.8031,3.8015,3.8015,3.7738,3.7153,3.6999,3.6861,3.6538,3.6492,3.6537,3.6671,3.644,3.627,3.6462,3.6555,3.6571,3.6377,3.5924,3.5504,3.5489,3.5489,3.5489,3.5522,3.5621,3.5688,3.572,3.572,3.572,3.5688,3.5604,3.5489,3.5489,3.5489,3.5489,3.5489,3.5489,3.5489,3.5489,3.5589,3.5655,3.6465,3.648,3.5383,3.5234,3.5673,3.5062,3.4817,3.4902,0.0,0.0,0.0,3.438,3.438,3.438,3.438,3.438,3.438,3.438,3.438,3.4395,3.4088,3.4088,3.4351,3.3184,3.2758,3.2992,3.1566,3.0853,3.0853,3.0755,3.1021,3.164,3.2159,3.2412,3.2384,3.1907,3.1143,3.0157,3.01,3.0006,2.9876,2.9876,2.9638,2.9089,2.9341,2.8907,2.7768,2.8013,2.7843,2.7176,2.7308,2.7759,2.8472,2.8739,2.9473,3.0837,3.118,3.1602,3.2238,3.2295,3.2522,3.3154,3.3638,3.4214,3.4874,3.5578,3.6006,3.6085,3.6826,3.7275,3.7148,3.7735,3.8154,3.8154,3.8154,3.7908,3.7415,3.7323,3.7123,3.6615,3.6522,3.6492,3.6507,3.6492,3.632,3.6053,3.5926,3.5911,3.5752,3.5844,3.5938,3.5763,3.5602,3.5489,3.5489,3.5489,3.5489,3.5489,3.5636,3.5767,3.5767,3.5784,3.5784,3.5784,3.5636,3.5554,3.5489,3.5489,3.5489,3.5489,3.5489,3.5489,3.5489,3.5604,3.5688,3.7441,3.7948,3.6399,3.5785,3.5849,3.533,3.5049,3.4902,3.4902,3.4702,3.4414,3.438,3.438,3.438,3.438,3.438,3.438,3.438,3.438,0.0,3.4162,3.4196,3.4332,3.3713,3.3547,3.3662,3.2639,3.2145,3.2075,3.1597,3.1668,3.2216,3.2356,3.2426,3.2412,3.2314,3.1921,3.1265,3.1265,3.1185,3.0987,3.0987,3.0832,3.0574,2.9981,2.9589,2.9364,2.9302,2.8986,2.8397,2.9333,2.9502,2.8675,2.9561,3.0017,2.9855,3.075,3.1594,3.2252,3.2241,3.2372,3.2765,3.329,3.3656,3.3931,3.4754,3.5011,3.4499,3.5746,3.6364,3.5855,3.6359,3.6767,3.6767,3.6799,3.6722,3.6598,3.663,3.6568,3.6413,3.6492,3.646,3.6352,3.6383,3.6006,3.5317,3.5041,3.4975,3.4828,3.5237,3.5638,3.5539,3.5522,3.5489,3.5489,3.5489,3.5489,3.5489,3.5733,3.591,3.5941,3.6022,3.6006,3.5958,3.5767,3.5621,3.5522,3.5489,3.5489,3.5489,3.5489,3.5489,3.5489,3.5621,3.572,3.7163,3.7401,3.6168,3.5722,3.5849,3.5281,3.4935,3.4783,3.4783,3.465,3.4414,3.438,3.438,3.438,3.438,3.438,3.438,3.438,3.438,3.438,3.4196,3.4196,3.4346,3.3833,3.3709,3.3819,3.2879,3.2412,3.2384,3.2103,3.2131,3.2426,3.2721,3.289,3.2904,3.2786,3.2563,3.2317,3.1674,3.1285,3.1185,3.1104,3.0989,3.0881,3.0417,3.0179,3.0179,3.0038,2.9699,2.9089,2.993,3.0161,2.9645,3.0418,3.0893,3.0982,3.1494,3.1929,3.224,3.2113,3.2022,3.1969,3.2151,3.2282,3.2232,3.3443,3.4095,3.3876,3.4551,3.4846,3.4499,3.4879,3.5157,3.5142,3.5222,3.5287,3.5367,3.5705,3.5737,3.5447,3.5672,3.5705,3.5222,3.5157,3.4912,3.4259,3.4056,3.3993,3.423,3.4629,3.5073,3.5424,3.5489,3.5489,3.5457,3.5489,3.5489,3.5489,3.5701,3.5863,3.5973,3.6068,3.6068,3.6005,3.5831,3.5686,3.5522,3.5489,3.5489,3.5489,3.5489,3.5489,3.5522,3.5668,3.5863,3.6925,3.7022,3.6061,3.5765,3.5849,3.5261,3.4882,3.4712,3.4664,3.4563,3.4414,3.438,3.438,3.438,3.438,3.438,3.438,3.438,3.438,3.438,3.423,3.423,3.4278,3.3868,3.3709,3.3722,3.2865,3.2483,3.2581,3.2483,3.2448,3.2568,3.3003,3.3206,3.3157,3.3002,3.2952,3.2861,3.1944,3.1487,3.1473,3.1323,3.1227,3.1186,3.1048,3.0979,3.0931,3.0732,3.0378,2.9964,3.0228,3.0405,3.0432,3.0975,3.1436,3.1762,3.1897,3.1979,3.192,3.1809,3.1619,3.1296,3.1272,3.1161,3.1123,3.2173,3.3017,3.3164,3.3512,3.3705,3.3581,3.3788,3.3959,3.3959,3.4061,3.423,3.423,3.4666,3.4773,3.4172,3.4494,3.4468,3.3806,3.3561,3.3336,3.2913,3.2626,3.2793,3.3437,3.3674,3.4095,3.4626,3.5044,3.5067,3.5034,3.4935,3.5001,3.5166,3.5332,3.5559,3.5799,3.5973,3.5973,3.5926,3.5831,3.5653,3.5522,3.5489,3.5489,3.5489,3.5489,3.5489,3.5489,3.5701,3.5973,3.7585,3.7611,3.681,3.6265,3.5854,3.5492,3.5107,3.4708,3.4515,3.4414,3.4414,3.438,3.438,3.438,3.438,3.438,3.438,3.438,3.438,3.438,3.438,3.4298,3.4128,3.3951,3.3779,3.3569,3.2825,3.2721,3.3108,3.2693,3.261,3.2919,3.2995,3.2966,3.2775,3.2739,3.2739,3.2739,3.2451,3.2288,3.2288,3.2253,3.2195,3.2078,3.2064,3.2042,3.1933,3.149,3.1192,3.1097,3.0649,3.0418,3.0459,3.0975,3.1083,3.0649,3.1097,3.1311,3.1151,3.1239,3.1347,3.131,3.1123,3.1024,3.1024,3.1161,3.1334,3.1713,3.2883,3.3269,3.2938,3.3318,3.3567,3.3533,3.3616,3.3774,3.3705,3.3808,3.3627,3.3121,3.3178,3.2881,3.2372,3.2178,3.1801,3.115,3.0831,3.0922,3.1617,3.2109,3.243,3.2849,3.3605,3.3989,3.3642,3.3422,3.3794,3.4298,3.4595,3.496,3.5447,3.5769,3.5941,3.5816,3.5601,3.549,3.5539,3.5489,3.5427,3.5489,3.5489,3.5457,3.5489,3.5621,3.5767,3.8032,3.8121,3.7339,3.6662,3.6134,3.5676,3.5385,3.5068,3.4608,3.438,3.438,3.438,3.438,3.438,3.438,3.438,3.438,3.438,3.438,3.438,3.438,3.4312,3.4094,3.3985,3.3793,3.3591,3.3128,3.3038,3.3206,3.3045,3.2954,3.3009,3.2988,3.2881,3.2704,3.2596,3.2525,3.2525,3.2372,3.23,3.2264,3.23,3.2241,3.2205,3.2205,3.2028,3.1721,3.1748,3.149,3.0853,3.0853,3.0771,3.0432,3.0649,3.0663,3.0459,3.0975,3.1321,3.1332,3.1439,3.1373,3.1136,3.1061,3.1024,3.1024,3.1024,3.1061,3.1198,3.175,3.1955,3.1786,3.2064,3.2304,3.2304,3.2403,3.2461,3.2489,3.284,3.287,3.2246,3.2215,3.1929,3.1185,3.0685,3.0255,2.9902,2.9697,2.9909,3.0599,3.0963,3.1102,3.124,3.1706,3.2204,3.2512,3.2728,3.2992,3.3502,3.4109,3.4629,3.4916,3.5136,3.5315,3.5614,3.5038,3.4945,3.5447,3.4759,3.4401,3.4881,3.5392,3.5294,3.437,3.499,3.5447,3.8277,3.8294,3.776,3.7172,3.6548,3.621,3.5816,3.5348,3.4864,3.4588,3.438,3.438,3.4278,3.4113,3.4298,3.438,3.438,3.438,3.4278,3.4113,3.423,3.4079,3.375,3.3813,3.3709,3.3536,3.3347,3.3276,3.3276,3.3241,3.3108,3.2952,3.2881,3.2739,3.2574,3.2431,3.2359,3.2322,3.2241,3.2205,3.2205,3.2205,3.2205,3.2205,3.2205,3.2001,3.1558,3.1802,3.1639,3.0961,3.1015,3.0866,3.0459,3.0405,3.0405,3.0425,3.0856,3.1178,3.1343,3.1405,3.1299,3.1061,3.1024,3.1024,3.1024,3.1024,3.1024,3.1011,3.0843,3.0839,3.1011,3.0979,3.0974,3.0974,3.1016,3.0983,3.1017,3.1487,3.146,3.085,3.0664,3.058,2.9755,2.9162,2.8817,2.8795,2.893,2.9201,2.9757,2.9989,3.0083,2.9881,2.9875,3.0337,3.1323,3.1633,3.1958,3.2653,3.3279,3.4003,3.4287,3.4426,3.4691,3.5005,3.4116,3.3764,3.4327,3.3878,3.3157,3.4219,3.4677,3.4485,3.361,3.448,3.4828,3.8202,3.8202,3.8173,3.7773,3.7259,3.7186,3.6475,3.543,3.5348,3.5,3.4443,3.4346,3.3962,3.3381,3.3962,3.4332,3.4346,3.4264,3.3894,3.3346,3.3791,3.3597,3.281,3.3347,3.3486,3.3206,3.3262,3.3276,3.3276,3.3108,3.2917,3.2739,3.2561,3.2359,3.2191,3.2205,3.2205,3.2046,3.2132,3.2169,3.2169,3.2169,3.2205,3.2164,3.2205,3.2178,3.2083,3.1612,3.1544,3.2096,3.1083,3.0473,3.0418,3.0432,3.0405,3.0425,3.0631,3.0752,3.0814,3.0995,3.1061,3.1024,3.1024,3.1011,3.0908,3.0908,3.0882,3.0934,3.0424,3.0359,3.0725,3.0448,3.0239,3.0239,2.9755,2.9555,2.9529,2.9754,2.921,2.8874,2.8894,2.8657,2.7884,2.7594,2.7699,2.7803,2.8111,2.8481,2.8615,2.8996,2.9044,2.8754,2.8649,2.8738,2.9386,3.0153,3.065,3.1338,3.2339,3.3253,3.3599,3.3962,3.425,3.4196,3.317,3.2784,3.3114,3.29,3.2236,3.2553,3.3118,3.2973,3.2347,3.3591,3.3926,3.8142,3.8005,3.8005,3.7785,3.748,3.7218,3.6613,3.5796,3.5497,3.5043,3.437,3.3859,3.3485,3.3192,3.2981,3.2925,3.296,3.2946,3.2769,3.2541,3.2733,3.2569,3.2245,3.2739,3.2708,3.2304,3.2926,3.3276,3.3276,3.3108,3.2917,3.2704,3.2489,3.2078,3.1566,3.1936,3.1716,3.0822,3.1593,3.1936,3.1466,3.19,3.2042,3.1653,3.2028,3.2028,3.1626,3.1748,3.1789,3.1626,3.1192,3.0975,3.0934,3.0608,3.0405,3.0425,3.0715,3.0998,3.1236,3.1241,3.1136,3.1024,3.1024,3.0817,3.0529,3.0424,3.0294,2.9954,2.9758,2.9732,2.9797,2.9693,2.9745,2.9957,2.9627,2.9379,2.9653,2.9523,2.9218,2.8983,2.8634,2.815,2.7659,2.7503,2.7503,2.7516,2.7719,2.7837,2.7863,2.8025,2.8124,2.8007,2.815,2.8451,2.8621,2.9244,2.9833,3.0463,3.128,3.205,3.2541,3.2623,3.2857,3.3024,3.2173,3.1495,3.1714,3.1797,3.1157,3.0665,3.126,3.1598,3.0856,3.2158,3.2478,3.8066,3.7929,3.7891,3.7777,3.7582,3.7333,3.6899,3.6288,3.5796,3.5279,3.4611,3.3654,3.3073,3.2755,3.206,3.1539,3.1479,3.1833,3.1928,3.1673,3.1856,3.1759,3.1439,3.1753,3.1757,3.1522,3.1957,3.2461,3.2804,3.2461,3.2425,3.269,3.2453,3.2019,3.1479,3.1653,3.1158,3.0443,3.0826,3.0819,3.0371,3.0684,3.081,3.0628,3.092,3.1141,3.1034,3.1762,3.1911,3.1422,3.1477,3.149,3.1273,3.073,3.0465,3.0613,3.0976,3.1279,3.1442,3.1323,3.1123,3.1011,3.0803,3.0531,3.0348,3.0085,2.9758,2.9536,2.9144,2.9026,2.9231,2.9153,2.9157,2.9396,2.9052,2.8869,2.9174,2.8922,2.8712,2.8582,2.8294,2.7928,2.7594,2.7516,2.7503,2.7503,2.7503,2.7503,2.7503,2.7503,2.7594,2.7785,2.815,2.8477,2.8843,2.9418,2.9745,3.0313,3.1025,3.1514,3.1632,3.1603,3.1607,3.1698,3.1274,3.0559,3.0271,3.0417,2.9998,2.9267,2.9781,3.0433,3.0392,3.0759,3.1013,3.8066,3.7906,3.7891,3.7739,3.7572,3.7515,3.7315,3.673,3.6158,3.5518,3.4801,3.3684,3.2613,3.2037,3.1267,3.052,3.0279,3.1257,3.1378,3.0758,3.1318,3.1132,3.0367,3.0459,3.0735,3.1003,3.0487,3.0844,3.1915,3.1343,3.1451,3.2357,3.2232,3.1901,3.1969,3.1177,3.083,3.0286,2.9514,2.9025,2.8849,2.8681,2.8741,2.8977,2.9065,2.9419,3.0185,3.141,3.1775,3.1365,3.1807,3.187,3.1327,3.0763,3.0586,3.0936,3.1359,3.1468,3.131,3.1136,3.1024,3.0934,3.0516,3.0427,3.0581,2.998,2.9588,2.9706,2.9157,2.8699,2.914,2.8891,2.8621,2.8446,2.8294,2.8007,2.7829,2.7607,2.7529,2.762,2.7607,2.7529,2.7503,2.7503,2.7503,2.7503,2.7503,2.7503,2.7516,2.7568,2.779,2.819,2.8582,2.8935,2.9327,2.9696,2.9931,3.0288,3.105,3.16,3.1415,3.1309,3.1235,3.1218,3.0275,2.9528,2.8776,2.8899,2.8919,2.852,2.9069,2.9323,2.9457,2.9581,2.976,3.7976,3.7701,3.7701,3.7495,3.7226,3.7341,3.6872,3.5923,3.5405,3.4649,3.3569,3.2222,3.1476,3.1156,3.0482,2.9896,2.9586,3.005,3.0139,3.0088,2.9999,2.9909,2.9731,2.9578,2.971,2.9804,2.962,2.9889,3.0576,3.0618,3.0893,3.1209,3.1469,3.0725,2.9566,2.9951,2.9561,2.7609,2.8089,2.8175,2.7631,2.7963,2.8088,2.7868,2.8069,2.8052,2.7604,2.978,3.0779,3.0339,3.1395,3.1766,3.1311,3.0983,3.0899,3.1007,3.1226,3.1397,3.1272,3.1086,3.096,3.096,3.0803,3.0594,3.0424,3.0085,2.9732,2.9627,2.9196,2.9118,2.9231,2.9166,2.9157,2.9536,2.9091,2.866,2.849,2.7947,2.7555,2.7503,2.7503,2.7503,2.7503,2.7503,2.7503,2.7503,2.7503,2.7503,2.7555,2.7876,2.8124,2.8407,2.8922,2.9523,2.9889,3.0202,3.0438,3.0477,3.0926,3.1393,3.1221,3.1061,3.0986,3.0423,2.9474,2.8643,2.7898,2.7633,2.785,2.7863,2.8148,2.8226,2.8158,2.8397,2.8763,3.7991,3.761,3.761,3.7238,3.6694,3.6809,3.6328,3.5422,3.4682,3.3947,3.3087,3.1593,3.0895,3.0758,3.005,2.9548,2.9419,2.9263,2.9215,2.9271,2.9199,2.9118,2.9149,2.8873,2.8473,2.8157,2.8043,2.8515,2.9318,2.9307,2.9512,2.9988,3.0194,2.9744,2.8499,2.8686,2.7952,2.6683,2.6791,2.671,2.6329,2.6444,2.6517,2.6369,2.6505,2.6154,2.5598,2.7681,2.8975,2.9292,3.0417,3.1116,3.1078,3.0672,3.0236,3.0012,2.9945,3.004,3.0358,3.0272,3.054,3.082,3.079,3.0529,3.014,2.997,2.9614,2.9353,2.9261,2.9366,2.9562,2.9601,2.9862,3.0348,2.9706,2.9235,2.893,2.8111,2.7555,2.7503,2.7503,2.7503,2.7503,2.7503,2.7503,2.7503,2.7503,2.7646,2.7811,2.815,2.8464,2.8882,2.9523,2.9996,3.0361,3.0673,3.0908,3.083,3.0762,3.1016,3.1024,3.0934,3.0823,2.998,2.9065,2.8467,2.7745,2.7568,2.7607,2.7503,2.7503,2.762,2.7824,2.7876,2.8127,3.7924,3.7567,3.7529,3.694,3.6089,3.6061,3.5714,3.5124,3.4067,3.3459,3.3046,3.1457,3.0745,3.057,2.9793,2.938,2.9302,2.9028,2.8714,2.8648,2.8768,2.89,2.8514,2.8126,2.7383,2.6384,2.6287,2.6882,2.7935,2.7571,2.7601,2.869,2.8643,2.8577,2.83,2.7507,2.7072,2.6814,2.5672,2.4989,2.4903,2.4377,2.4271,2.4706,2.4613,2.4414,2.4445,2.5543,2.6687,2.7693,2.9123,2.9975,3.0361,2.9722,2.8818,2.8425,2.7866,2.8213,2.8712,2.9013,2.934,3.0197,3.0093,3.0001,2.9762,2.958,2.9398,2.9265,2.9412,2.9644,2.9949,3.0103,3.0361,3.0647,2.9876,2.914,2.8451,2.7889,2.7555,2.7503,2.7503,2.7503,2.7516,2.7542,2.762,2.7633,2.7699,2.8059,2.8333,2.8712,2.9091,2.9526,3.0035,3.0398,3.0712,3.0777,3.1024,3.0947,3.0843,3.0895,3.0947,3.0876,3.0526,2.9633,2.9022,2.832,2.7785,2.7581,2.7503,2.7503,2.7503,2.7503,2.7542,2.7633,2.7686,3.758,3.6939,3.6774,3.6217,3.5508,3.5428,3.474,3.3644,3.285,3.2076,3.1229,3.0265,2.9858,2.9755,2.9523,2.9263,2.8988,2.8843,2.87,2.85,2.8585,2.8122,2.7541,2.7288,2.6661,2.5709,2.5925,2.6311,2.6615,2.6721,2.693,2.7224,2.7476,2.7124,2.638,2.6382,2.5885,2.5205,2.4616,2.4212,2.4164,2.3878,2.374,2.3813,2.3738,2.359,2.3564,2.4198,2.5617,2.7422,2.7661,2.8149,2.8766,2.8028,2.7503,2.7557,2.731,2.7198,2.7506,2.7811,2.8097,2.8063,2.8709,2.8772,2.8654,2.9225,2.9289,2.9286,2.9811,3.0232,2.9998,3.0338,3.0598,3.0307,2.9666,2.9074,2.8486,2.7889,2.7503,2.7503,2.7503,2.7542,2.762,2.7915,2.815,2.8229,2.8464,2.8791,2.9,2.9327,2.967,2.997,3.0375,3.0699,3.0921,3.0947,3.1024,3.1024,3.0947,3.0947,3.0973,3.0983,3.0354,2.9572,2.9297,2.8699,2.8007,2.7516,2.7503,2.7503,2.7503,2.7503,2.7503,2.7555,2.7555,3.6759,3.6185,3.606,3.5557,3.4801,3.4538,3.3727,3.2589,3.1803,3.1087,3.0287,2.9658,2.938,2.938,2.9223,2.9028,2.8791,2.8724,2.8485,2.8162,2.8162,2.7705,2.7114,2.7066,2.6586,2.5468,2.5853,2.5937,2.5841,2.5996,2.607,2.6093,2.625,2.5997,2.5591,2.5356,2.5226,2.4597,2.4205,2.4043,2.4007,2.3751,2.3593,2.3519,2.3335,2.3187,2.3242,2.3473,2.4607,2.6185,2.6761,2.7042,2.7324,2.6773,2.6311,2.6192,2.569,2.5608,2.6129,2.6451,2.6721,2.7057,2.7707,2.7839,2.7877,2.8545,2.8901,2.8471,2.9288,2.9487,2.942,2.9947,3.003,2.9516,2.9314,2.9061,2.8486,2.7876,2.7555,2.7542,2.7732,2.7889,2.7902,2.8412,2.8673,2.8839,2.8987,2.9301,2.9588,2.9931,3.0218,3.049,3.062,3.0843,3.0985,3.1011,3.1024,3.1024,3.1024,3.1024,3.1024,3.0998,3.0477,2.9876,2.9536,2.9052,2.8294,2.7693,2.7503,2.7503,2.7503,2.7503,2.7503,2.7503,2.7503,3.5718,3.5384,3.5325,3.4761,3.3916,3.3344,3.2607,3.178,3.1011,3.0482,3.0101,2.9625,2.9419,2.9367,2.9079,2.8831,2.8831,2.8618,2.8297,2.8053,2.7909,2.7621,2.7174,2.7426,2.6803,2.5721,2.5901,2.5769,2.5516,2.5372,2.5336,2.5361,2.523,2.5194,2.5126,2.4795,2.4647,2.4639,2.4288,2.4171,2.4109,2.3818,2.3575,2.365,2.3246,2.3038,2.3038,2.3141,2.3743,2.4997,2.5824,2.5993,2.6014,2.5774,2.5178,2.436,2.3925,2.3958,2.4614,2.4946,2.5356,2.6243,2.688,2.7253,2.7,2.7562,2.792,2.7409,2.7818,2.8213,2.8361,2.9054,2.9137,2.8673,2.8842,2.8983,2.842,2.7837,2.7516,2.7628,2.8098,2.8355,2.8643,2.8983,2.9353,2.9379,2.9601,2.9941,3.0137,3.0333,3.0594,3.0817,3.0908,3.0947,3.1024,3.1024,3.1024,3.1024,3.1024,3.1024,3.1024,3.0895,3.0634,3.0268,2.9836,2.9222,2.8464,2.802,2.7712,2.7503,2.7503,2.7503,2.7503,2.7503,2.7503,3.5258,3.4646,3.4029,3.3303,3.2563,3.2058,3.1349,3.0481,3.0418,3.0063,2.9639,2.9457,2.938,2.938,2.9118,2.904,2.8973,2.8697,2.8426,2.8378,2.8342,2.8041,2.7657,2.769,2.7018,2.6202,2.6033,2.5817,2.5421,2.5277,2.5147,2.5111,2.4909,2.4656,2.469,2.4522,2.4296,2.429,2.4089,2.4212,2.4297,2.3798,2.3586,2.3816,2.3359,2.3071,2.3001,2.3001,2.3194,2.3516,2.3899,2.4306,2.4309,2.4121,2.3843,2.3598,2.3271,2.3205,2.346,2.3871,2.4088,2.4516,2.5097,2.5379,2.5904,2.6449,2.6644,2.6574,2.7195,2.7421,2.7327,2.8259,2.8287,2.7982,2.847,2.8799,2.7994,2.7581,2.7673,2.8059,2.8307,2.8569,2.9039,2.9588,2.9889,2.998,3.0241,3.0607,3.0686,3.0712,3.083,3.1024,3.1024,3.1024,3.1024,3.1024,3.1024,3.1024,3.1024,3.0949,3.0949,3.0947,3.0701,3.0414,3.0061,2.9444,2.883,2.8333,2.8059,2.7777,2.7529,2.7503,2.7503,2.7503,2.7503,3.4106,3.334,3.2891,3.2312,3.1676,3.1182,3.062,3.019,3.0088,2.9819,2.9457,2.938,2.938,2.938,2.9209,2.9104,2.9052,2.8776,2.8578,2.8538,2.8498,2.8354,2.8186,2.7966,2.751,2.6671,2.6779,2.643,2.5841,2.5565,2.5469,2.5182,2.4933,2.4838,2.4682,2.4526,2.4381,2.4212,2.408,2.4192,2.4292,2.3835,2.3386,2.3605,2.3426,2.3351,2.3351,2.3351,2.3351,2.3323,2.3244,2.3187,2.3287,2.3298,2.3261,2.315,2.3075,2.3001,2.3099,2.322,2.3372,2.3416,2.3853,2.4233,2.4709,2.52,2.5474,2.5509,2.5813,2.608,2.597,2.6694,2.7006,2.7331,2.7841,2.8157,2.7838,2.7605,2.7712,2.8268,2.8647,2.9091,2.9601,3.01,3.0411,3.0503,3.0529,3.0843,3.0843,3.0869,3.0895,3.1024,3.1024,3.1024,3.1024,3.1024,3.1024,3.1024,3.1024,3.0911,3.0849,3.081,3.0782,3.0546,3.0285,2.9983,2.9444,2.8935,2.8412,2.8111,2.7876,2.7633,2.7503,2.7503,2.7503,3.269,3.1892,3.1833,3.1489,3.0959,3.0406,3.0177,3.0101,2.9921,2.974,2.9509,2.9457,2.9521,2.9431,2.9236,2.9131,2.9013,2.8961,2.8776,2.851,2.851,2.8474,2.8426,2.8342,2.8065,2.7234,2.7378,2.7043,2.6298,2.6045,2.5709,2.5361,2.5229,2.5004,2.4814,2.4718,2.4526,2.4236,2.4278,2.445,2.4517,2.4149,2.3787,2.3547,2.3678,2.3842,2.3842,2.3842,2.3798,2.3684,2.3291,2.311,2.3038,2.3113,2.3187,2.3001,2.3001,2.3001,2.3001,2.3045,2.3078,2.3088,2.3372,2.3684,2.3968,2.427,2.448,2.4514,2.4651,2.4503,2.4515,2.5481,2.6031,2.6365,2.687,2.7371,2.7601,2.752,2.776,2.8516,2.9069,2.9555,3.0074,3.0607,3.083,3.1024,3.1024,3.1024,3.1024,3.1024,3.1024,3.1024,3.1024,3.1024,3.1024,3.1024,3.1024,3.1024,3.1024,3.0874,3.0773,3.0748,3.0746,3.0756,3.0546,3.0233,2.9918,2.9457,2.8961,2.8516,2.8137,2.7889,2.7673,2.7529,2.7536,3.1267,3.1082,3.0544,3.0266,3.0139,2.9755,2.96,2.9574,2.974,2.9779,2.9728,2.974,2.9702,2.965,2.947,2.9184,2.9,2.8922,2.8816,2.855,2.851,2.851,2.851,2.8414,2.8306,2.8198,2.7846,2.7091,2.6382,2.6057,2.5805,2.5385,2.5206,2.5004,2.4814,2.4646,2.449,2.4282,2.4464,2.4797,2.4948,2.4781,2.442,2.4078,2.4213,2.4344,2.4355,2.4334,2.4181,2.3749,2.3618,2.3372,2.3099,2.3038,2.3038,2.3038,2.3001,2.3001,2.2964,2.3001,2.322,2.3416,2.3313,2.3602,2.3973,2.4022,2.3963,2.3929,2.3745,2.3601,2.3929,2.4829,2.5254,2.5549,2.5993,2.6521,2.6481,2.6816,2.7617,2.8579,2.929,2.9928,3.0418,3.0779,3.0908,3.1024,3.1024,3.1024,3.1024,3.1024,3.1024,3.1024,3.1024,3.1024,3.1024,3.1024,3.1024,3.1024,3.0986,3.0874,3.0761,3.0736,3.0697,3.062,3.058,3.041,3.0121,2.9816,2.936,2.8851,2.8469,2.8051,2.7842,2.7626,2.7736,3.067,3.0253,2.9961,2.9704,2.9496,2.9353,2.9404,2.9611,2.974,2.9779,2.9779,2.9792,2.9702,2.9611,2.9663,2.9378,2.9052,2.8922,2.8776,2.855,2.851,2.851,2.8426,2.8246,2.8114,2.7933,2.751,2.7054,2.6501,2.6226,2.5817,2.5432,2.5241,2.5052,2.4825,2.4718,2.449,2.4342,2.4453,2.462,2.4804,2.4644,2.4415,2.4281,2.4618,2.4865,2.4792,2.4563,2.4388,2.4082,2.3635,2.3285,2.3078,2.3001,2.3001,2.3001,2.3001,2.2964,2.2889,2.2852,2.2971,2.3113,2.2961,2.3096,2.3476,2.3487,2.348,2.3626,2.3487,2.3379,2.3864,2.4433,2.4705,2.5032,2.5379,2.5751,2.6188,2.6486,2.7287,2.8323,2.9132,2.9814,3.059,3.0848,3.0973,3.1024,3.0986,3.1024,3.1024,3.1024,3.1024,3.1024,3.1024,3.1024,3.1024,3.1024,3.1024,3.1024,3.0949,3.0874,3.0685,3.0609,3.047,3.0368,3.0367,3.0404,3.0298,3.0023,2.958,2.9136,2.8629,2.8174,2.7923,2.7803,2.7795,3.0024,2.9433,2.9523,2.9341,2.9131,2.9131,2.9417,2.974,2.9779,2.974,2.9702,2.9702,2.9573,2.9431,2.9495,2.9378,2.904,2.887,2.8685,2.8514,2.8354,2.833,2.8158,2.7834,2.7522,2.7476,2.7019,2.6729,2.6574,2.6286,2.5829,2.5421,2.5276,2.5123,2.4861,2.4718,2.4502,2.4332,2.4326,2.4262,2.4296,2.4334,2.4277,2.4181,2.4923,2.5357,2.5284,2.5065,2.4716,2.4344,2.382,2.3252,2.3056,2.3001,2.3001,2.3001,2.3001,2.2889,2.2777,2.274,2.2724,2.2751,2.2687,2.2762,2.2885,2.3021,2.3123,2.3583,2.3477,2.3504,2.3971,2.4064,2.4377,2.4673,2.4723,2.4774,2.5667,2.6174,2.6355,2.7458,2.8675,2.9378,2.9795,3.0394,3.0432,3.0659,3.0659,3.0986,3.1024,3.1024,3.1024,3.1024,3.1024,3.1024,3.1024,3.1024,3.1024,3.1024,3.0949,3.0874,3.0647,3.0444,3.0305,3.0164,3.0152,3.0139,3.0176,3.0211,2.9836,2.9357,2.8737,2.8247,2.7924,2.772,2.7622,2.8736,2.8669,2.8843,2.9,2.9131,2.9275,2.9509,2.9779,2.9779,2.965,2.9457,2.9445,2.9303,2.9098,2.9108,2.9015,2.8809,2.8645,2.8503,2.8246,2.8041,2.7873,2.7714,2.7234,2.7042,2.6898,2.6454,2.6226,2.6166,2.6081,2.5817,2.5373,2.5182,2.5028,2.4837,2.4646,2.4429,2.4305,2.459,2.496,2.5318,2.5384,2.5433,2.5497,2.5655,2.5742,2.5688,2.548,2.5175,2.4519,2.4355,2.3831,2.3209,2.3001,2.3001,2.3001,2.3001,2.2927,2.274,2.2665,2.2628,2.2515,2.244,2.2553,2.2628,2.2633,2.2862,2.37,2.3426,2.3567,2.4115,2.4363,2.4522,2.4378,2.4257,2.4281,2.4805,2.5706,2.5921,2.6427,2.7628,2.8071,2.8505,2.9225,2.9871,3.0139,3.0419,3.071,3.0986,3.0949,3.0986,3.1024,3.1024,3.1024,3.1024,3.1024,3.1024,3.1024,3.0949,3.0874,3.0609,3.0368,3.0152,3.0049,2.9998,2.9998,3.0114,3.0087,2.9984,2.9585,2.8944,2.8405,2.7917,2.7679,2.7496,2.8234,2.851,2.8578,2.8816,2.9091,2.9209,2.9443,2.974,2.9779,2.965,2.9344,2.9083,2.8733,2.8356,2.8273,2.8133,2.7926,2.7825,2.7686,2.7765,2.7606,2.7548,2.7258,2.6994,2.6801,2.6321,2.5961,2.5673,2.5661,2.5648,2.5492,2.5348,2.5147,2.5016,2.479,2.461,2.4381,2.4326,2.4437,2.4675,2.4977,2.5269,2.5477,2.5543,2.5753,2.5874,2.5808,2.5295,2.4989,2.4388,2.4061,2.3493,2.311,2.3001,2.3001,2.3001,2.3001,2.2927,2.274,2.2617,2.2478,2.2402,2.2327,2.2327,2.244,2.2397,2.2505,2.3153,2.324,2.3546,2.4074,2.4352,2.4343,2.42,2.4054,2.425,2.4527,2.49,2.5458,2.5976,2.6494,2.6971,2.7476,2.8199,2.8834,2.9147,2.9588,3.0063,3.0457,3.0748,3.0861,3.1024,3.1024,3.1024,3.1024,3.1024,3.1024,3.1024,3.1024,3.0874,3.0558,3.0305,3.0152,2.9972,2.9895,2.9934,3.0088,3.0012,2.991,2.9541,2.912,2.8509,2.7921,2.7559,2.7522,2.7726,2.8114,2.8192,2.8499,2.8895,2.9012,2.9332,2.9753,2.9779,2.9611,2.9217,2.8705,2.8037,2.7519,2.746,2.7408,2.7159,2.6961,2.6923,2.7042,2.7186,2.7114,2.6813,2.6609,2.6406,2.5913,2.5588,2.5396,2.536,2.5336,2.5312,2.5241,2.5087,2.4921,2.4718,2.4502,2.4309,2.4114,2.4189,2.4363,2.4614,2.4918,2.5227,2.5475,2.5718,2.5895,2.5786,2.5371,2.4945,2.4355,2.3962,2.3504,2.3088,2.3001,2.3001,2.3001,2.3001,2.2964,2.2777,2.259,2.2402,2.2252,2.2214,2.2187,2.2252,2.2187,2.23,2.2825,2.2879,2.3287,2.3784,2.4209,2.4292,2.4304,2.4325,2.4501,2.4728,2.5022,2.5344,2.5837,2.6141,2.6049,2.661,2.7203,2.7718,2.8148,2.8664,2.9342,2.9909,3.0381,3.071,3.0911,3.0986,3.0986,3.0986,3.0986,3.0986,3.0986,3.0986,3.0836,3.052,3.033,3.0216,3.0037,2.9818,2.9818,2.9934,2.9882,2.9755,2.9315,2.8822,2.8429,2.7919,2.7558,2.7447,2.6982,2.7031,2.7407,2.7863,2.8381,2.8761,2.9201,2.959,2.9678,2.9457,2.8944,2.8205,2.7531,2.7057,2.6937,2.6923,2.6863,2.6923,2.6753,2.6765,2.6885,2.6645,2.6357,2.6141,2.5973,2.5469,2.5288,2.5288,2.5276,2.5206,2.517,2.5111,2.4957,2.4754,2.4538,2.4345,2.4164,2.4016,2.4047,2.4397,2.4703,2.4997,2.5242,2.5829,2.5924,2.5895,2.5895,2.56,2.5196,2.4508,2.4104,2.3678,2.311,2.3012,2.3001,2.3001,2.3001,2.2964,2.2815,2.2553,2.2214,2.2035,2.1997,2.2073,2.2101,2.2101,2.2342,2.26,2.2642,2.3007,2.3505,2.3971,2.4106,2.4305,2.4376,2.4679,2.4844,2.5031,2.5387,2.5775,2.5895,2.5895,2.5895,2.658,2.6857,2.7244,2.7959,2.8636,2.9471,3.0037,3.0508,3.0785,3.0898,3.0936,3.0949,3.0949,3.0861,3.0874,3.0911,3.0761,3.052,3.0368,3.0254,3.0037,2.9856,2.9818,2.9741,2.9628,2.9415,2.8988,2.8536,2.8107,2.7779,2.7404,2.738,2.6226,2.5937,2.6226,2.6919,2.779,2.7865,2.8126,2.8562,2.8759,2.8716,2.8382,2.7881,2.7236,2.661,2.6394,2.6226,2.5937,2.5937,2.5973,2.6189,2.6369,2.626,2.5996,2.602,2.6104,2.529,2.5147,2.5087,2.4992,2.5064,2.4885,2.4778,2.4813,2.479,2.4598,2.4282,2.4041,2.4065,2.4228,2.4581,2.477,2.5308,2.5505,2.5505,2.5902,2.5699,2.5469,2.5175,2.4847,2.4465,2.3951,2.346,2.3099,2.3023,2.3001,2.3001,2.3001,2.2964,2.2815,2.2553,2.2214,2.1921,2.1883,2.1921,2.1959,2.1921,2.1973,2.2164,2.2374,2.2729,2.2894,2.3388,2.375,2.4041,2.4416,2.476,2.5065,2.5274,2.5454,2.5852,2.5895,2.5895,2.5895,2.5979,2.6177,2.6415,2.7174,2.7959,2.8755,2.9523,2.9909,3.019,3.0266,3.0508,3.0558,3.0596,3.0672,3.0761,3.0836,3.0685,3.052,3.0432,3.0279,3.0075,2.9856,2.983,2.973,2.944,2.9113,2.8762,2.8323,2.7868,2.7548,2.7237,2.7413,2.5648,2.5324,2.5453,2.6129,2.7103,2.7078,2.7275,2.773,2.8148,2.8082,2.777,2.7517,2.6887,2.6105,2.5853,2.5721,2.5468,2.5396,2.536,2.5721,2.6176,2.6078,2.5946,2.5992,2.618,2.5345,2.4968,2.4945,2.5096,2.5013,2.4883,2.4811,2.4798,2.4879,2.4734,2.4407,2.4113,2.4142,2.4263,2.4758,2.4951,2.534,2.5607,2.5373,2.5585,2.5371,2.5043,2.4749,2.4497,2.4137,2.3711,2.3241,2.3067,2.3001,2.3001,2.3001,2.3001,2.2927,2.2777,2.244,2.2176,2.1873,2.1807,2.1807,2.1807,2.1807,2.1887,2.1859,2.2128,2.2385,2.2507,2.306,2.3712,2.4098,2.4506,2.4893,2.5287,2.5583,2.5712,2.5895,2.5895,2.5895,2.5853,2.5812,2.5812,2.6135,2.6899,2.7395,2.7747,2.8466,2.9081,2.9316,2.9433,2.9755,3.005,3.005,3.0126,3.0596,3.0647,3.0647,3.052,3.047,3.0317,3.0101,2.9972,2.9869,2.9628,2.9288,2.895,2.855,2.7936,2.7185,2.7192,2.696,2.7374,2.5336,2.5312,2.5312,2.5767,2.6408,2.6613,2.6956,2.7422,2.795,2.786,2.7355,2.7095,2.6453,2.5661,2.5588,2.5396,2.5348,2.5312,2.5276,2.5505,2.6197,2.617,2.6058,2.6078,2.6332,2.6035,2.5542,2.5211,2.5362,2.5396,2.5173,2.4938,2.498,2.5055,2.4877,2.4739,2.4525,2.4294,2.416,2.4647,2.5165,2.5395,2.545,2.5403,2.5442,2.5281,2.4727,2.4574,2.4312,2.3875,2.3667,2.3307,2.3045,2.3001,2.3001,2.3001,2.3001,2.3001,2.2927,2.2402,2.2101,2.1873,2.1845,2.1807,2.1807,2.1807,2.1807,2.1818,2.1939,2.2213,2.2527,2.2885,2.3544,2.4055,2.443,2.4865,2.5289,2.5581,2.5666,2.5852,2.5895,2.5853,2.5812,2.5728,2.5601,2.5926,2.6652,2.6999,2.7017,2.7464,2.8131,2.841,2.8609,2.9094,2.938,2.9419,2.9651,3.0165,3.052,3.052,3.0558,3.052,3.0368,3.0152,2.9985,2.9819,2.949,2.9124,2.8363,2.7544,2.6971,2.6445,2.6524,2.6837,2.7377,2.5312,2.5312,2.5312,2.5456,2.5683,2.5719,2.6141,2.6773,2.7198,2.7424,2.7336,2.6767,2.6465,2.6117,2.5588,2.5312,2.5312,2.5312,2.5276,2.5326,2.6135,2.596,2.5845,2.6124,2.6422,2.6012,2.557,2.5233,2.5087,2.5425,2.5101,2.4738,2.498,2.5079,2.4576,2.4292,2.4149,2.4305,2.4437,2.4746,2.5231,2.5508,2.5511,2.5329,2.5467,2.5207,2.4552,2.4476,2.4181,2.3733,2.3536,2.3198,2.3023,2.3001,2.3001,2.3001,2.3001,2.2927,2.2852,2.2553,2.2365,2.2101,2.1883,2.1807,2.1807,2.1807,2.1807,2.1807,2.1883,2.2133,2.23,2.2598,2.3137,2.353,2.3989,2.4531,2.4967,2.5229,2.5415,2.5701,2.5812,2.5633,2.5506,2.5506,2.5433,2.5295,2.5821,2.6071,2.6144,2.6558,2.7092,2.7458,2.7782,2.8343,2.8752,2.8949,2.9431,3.0037,3.0368,3.052,3.052,3.0495,3.0406,3.0216,2.9999,2.9705,2.8999,2.8263,2.7176,2.638,2.6095,2.6074,2.627,2.6824,2.7591,2.5143,2.53,2.5312,2.5312,2.5312,2.5312,2.5684,2.6251,2.6539,2.6813,2.6923,2.6382,2.6117,2.6057,2.5709,2.5312,2.5312,2.5312,2.5253,2.5242,2.5834,2.5706,2.5683,2.5969,2.6086,2.5862,2.5666,2.5416,2.5559,2.5635,2.5271,2.4846,2.4912,2.4694,2.4393,2.4334,2.4431,2.444,2.4404,2.4629,2.5092,2.5371,2.5459,2.5368,2.5357,2.5251,2.4661,2.4301,2.4082,2.3629,2.3329,2.3012,2.3001,2.3001,2.3001,2.3001,2.3001,2.2927,2.2852,2.2628,2.2402,2.2252,2.2025,2.1883,2.1807,2.1807,2.1807,2.1845,2.1959,2.2073,2.2225,2.2505,2.2735,2.3197,2.3571,2.4161,2.4646,2.4927,2.5196,2.5469,2.5591,2.5369,2.52,2.5211,2.5211,2.5041,2.4988,2.5126,2.5338,2.579,2.6196,2.6528,2.6981,2.7539,2.8143,2.8673,2.9197,2.9895,3.0152,3.0355,3.0406,3.0381,3.0343,3.0279,2.9909,2.9338,2.8262,2.7311,2.6505,2.5995,2.5715,2.5805,2.6062,2.679,2.7664,2.4795,2.5228,2.5252,2.5216,2.5228,2.5143,2.5492,2.6082,2.6105,2.6142,2.6117,2.6117,2.5901,2.5492,2.5312,2.5276,2.5241,2.5276,2.5147,2.5159,2.5486,2.5312,2.5277,2.5324,2.5816,2.5915,2.5789,2.5708,2.6249,2.5612,2.5107,2.4935,2.4694,2.4533,2.4551,2.469,2.4751,2.4493,2.4352,2.4614,2.4989,2.5256,2.5281,2.5248,2.5248,2.5011,2.4519,2.4065,2.3782,2.3487,2.3252,2.3078,2.3001,2.3001,2.3001,2.3001,2.3001,2.3001,2.2927,2.2665,2.2478,2.2327,2.2176,2.2025,2.1883,2.1807,2.1807,2.1807,2.1911,2.2101,2.2327,2.2401,2.2514,2.2862,2.3197,2.3745,2.429,2.4632,2.4877,2.5112,2.5263,2.52,2.5073,2.4988,2.4999,2.4871,2.4743,2.4786,2.4956,2.5158,2.5485,2.5611,2.6102,2.6723,2.7325,2.8023,2.8712,2.9314,2.9908,3.0165,3.0216,3.0063,2.9871,2.9732,2.9669,2.8999,2.7681,2.6785,2.613,2.5707,2.5466,2.5641,2.5945,2.6845,2.7696,2.4107,2.4239,2.4251,2.4206,2.4239,2.4251,2.4699,2.5516,2.5913,2.6081,2.6081,2.5697,2.5481,2.5829,2.5397,2.523,2.5158,2.5087,2.4957,2.499,2.5091,2.508,2.522,2.5478,2.5876,2.5934,2.5865,2.5647,2.5314,2.4935,2.5176,2.5276,2.4786,2.4659,2.4691,2.4906,2.4706,2.4533,2.4352,2.4525,2.484,2.5143,2.5161,2.5209,2.5179,2.4898,2.4515,2.3995,2.3629,2.3252,2.311,2.3001,2.3001,2.3001,2.3001,2.3001,2.3001,2.3001,2.2964,2.274,2.2553,2.2365,2.2176,2.2035,2.1883,2.1807,2.1807,2.1807,2.1873,2.2063,2.2176,2.2267,2.2347,2.2567,2.2873,2.3239,2.3777,2.416,2.4456,2.4925,2.5073,2.4988,2.4861,2.4861,2.4871,2.4668,2.4583,2.4583,2.4615,2.4818,2.4988,2.5115,2.5516,2.6216,2.667,2.7273,2.8011,2.874,2.9266,2.9681,2.9618,2.9478,2.9288,2.905,2.8775,2.7953,2.6883,2.6227,2.5889,2.5624,2.5395,2.5583,2.5908,2.6812,2.7544,2.3613,2.3794,2.3806,2.3806,2.3806,2.3806,2.4191,2.4711,2.507,2.5168,2.5131,2.4737,2.4763,2.4942,2.48,2.467,2.4445,2.4826,2.4779,2.4389,2.4759,2.4717,2.501,2.5256,2.5348,2.5509,2.5635,2.552,2.5061,2.4751,2.4877,2.4912,2.4728,2.4682,2.4613,2.4602,2.4539,2.444,2.4359,2.4442,2.4658,2.487,2.4946,2.5098,2.508,2.4814,2.4561,2.4001,2.3531,2.3252,2.3187,2.3001,2.3001,2.3001,2.3001,2.3001,2.3001,2.2964,2.2863,2.2665,2.2478,2.2289,2.2101,2.1959,2.1845,2.1807,2.1807,2.1807,2.1883,2.1997,2.2063,2.2138,2.2176,2.2273,2.2495,2.2706,2.315,2.3554,2.4103,2.4714,2.4828,2.4743,2.47,2.4743,2.4743,2.4625,2.455,2.454,2.454,2.4625,2.47,2.4828,2.5274,2.5799,2.6205,2.6741,2.7597,2.8195,2.8426,2.8719,2.885,2.8861,2.866,2.8188,2.7706,2.7103,2.6663,2.6178,2.5829,2.5636,2.56,2.5767,2.6131,2.6743,2.739,2.3216,2.3637,2.3685,2.3589,2.3661,2.3601,2.3637,2.3685,2.3722,2.3758,2.3833,2.363,2.3659,2.3921,2.4007,2.3891,2.394,2.4284,2.4331,2.3746,2.4315,2.4449,2.4351,2.4303,2.4809,2.4877,2.4981,2.5199,2.5314,2.4946,2.4453,2.42,2.4258,2.4292,2.4315,2.4315,2.4301,2.4276,2.4178,2.4141,2.4273,2.4388,2.4496,2.4798,2.477,2.4597,2.4409,2.4089,2.3629,2.3465,2.3318,2.3012,2.3001,2.3001,2.3001,2.3001,2.3001,2.2889,2.274,2.2553,2.2365,2.2138,2.1921,2.1845,2.1807,2.1807,2.1807,2.1807,2.1883,2.1921,2.1997,2.1987,2.1987,2.2025,2.2178,2.2464,2.2893,2.3395,2.4033,2.4493,2.4523,2.4417,2.4531,2.4563,2.4533,2.4467,2.4507,2.4507,2.4476,2.4509,2.4509,2.4594,2.4903,2.5348,2.5715,2.6329,2.7302,2.7806,2.7903,2.8194,2.8575,2.8361,2.7964,2.7396,2.6821,2.7016,2.6745,2.6166,2.5853,2.6142,2.613,2.6094,2.6414,2.6725,2.7159,2.2532,2.2602,2.257,2.257,2.2614,2.257,2.2594,2.257,2.257,2.3071,2.3652,2.3559,2.3435,2.3411,2.3352,2.3273,2.3401,2.3757,2.3758,2.3804,2.4104,2.4261,2.4269,2.4441,2.4556,2.4533,2.4648,2.4774,2.4694,2.4499,2.4361,2.4212,2.4189,2.4189,2.4189,2.4189,2.4189,2.4189,2.4139,2.4052,2.405,2.4326,2.4558,2.4473,2.432,2.4205,2.3985,2.3585,2.3301,2.311,2.3078,2.3012,2.3001,2.3001,2.3001,2.3001,2.3001,2.2852,2.2665,2.2478,2.2252,2.2101,2.1921,2.1845,2.1807,2.1807,2.1807,2.1807,2.1807,2.1845,2.1883,2.1845,2.1845,2.1835,2.1883,2.2271,2.2646,2.3287,2.395,2.4054,2.4115,2.4209,2.428,2.4301,2.427,2.4321,2.4456,2.4487,2.4414,2.4426,2.4416,2.4436,2.4529,2.4871,2.5274,2.5799,2.67,2.7415,2.7714,2.7982,2.8237,2.7715,2.7124,2.6465,2.6007,2.6408,2.6431,2.5781,2.5697,2.6346,2.625,2.607,2.6118,2.6373,2.6819,2.2247,2.2197,2.2197,2.2197,2.2197,2.2197,2.2197,2.2197,2.2197,2.251,2.3003,2.2902,2.2805,2.2888,2.2834,2.2589,2.2749,2.3409,2.3398,2.3502,2.3917,2.4156,2.4349,2.4487,2.4384,2.4338,2.443,2.443,2.4223,2.42,2.4223,2.4189,2.4189,2.4189,2.4189,2.4189,2.4189,2.4189,2.4177,2.4105,2.3995,2.4243,2.4391,2.4205,2.4104,2.3955,2.3689,2.3356,2.3189,2.3049,2.3001,2.3001,2.3001,2.3001,2.3001,2.2964,2.2889,2.2767,2.258,2.2354,2.2176,2.1997,2.1921,2.1807,2.1807,2.1807,2.1807,2.1807,2.1807,2.1807,2.1807,2.1807,2.1807,2.1807,2.1887,2.2125,2.2542,2.307,2.3473,2.3618,2.3629,2.3639,2.3712,2.3712,2.3691,2.3701,2.3908,2.396,2.4022,2.4219,2.424,2.4322,2.4352,2.4466,2.4786,2.5274,2.5924,2.6644,2.7392,2.7169,2.7041,2.6697,2.6233,2.5993,2.5911,2.613,2.5997,2.56,2.6154,2.6959,2.6538,2.5925,2.5997,2.6117,2.6467,2.2216,2.2197,2.2197,2.2197,2.2197,2.2197,2.2197,2.2197,2.2197,2.2197,2.225,2.2083,2.1894,2.204,2.2234,2.1878,2.2022,2.2968,2.3097,2.3214,2.3811,2.4074,2.4189,2.4223,2.4223,2.4223,2.4269,2.4269,2.42,2.4189,2.4189,2.4189,2.4189,2.4189,2.4189,2.4189,2.4177,2.4085,2.4062,2.412,2.4143,2.4166,2.421,2.4162,2.4018,2.3813,2.3604,2.342,2.3224,2.3113,2.3001,2.3001,2.3001,2.3001,2.2964,2.2927,2.2815,2.2628,2.2402,2.2203,2.2025,2.1883,2.1807,2.1807,2.1807,2.1807,2.1807,2.1828,2.1828,2.1807,2.1807,2.1807,2.1807,2.1818,2.1869,2.1973,2.2449,2.2853,2.3008,2.3153,2.3163,2.3143,2.3184,2.3174,2.3132,2.3132,2.3163,2.3184,2.3308,2.365,2.3857,2.4022,2.4178,2.4312,2.4445,2.5031,2.5673,2.6046,2.661,2.6233,2.5949,2.5971,2.6018,2.6044,2.6021,2.5961,2.5985,2.5817,2.6562,2.7186,2.6571,2.59,2.6188,2.6275,2.6262,2.2309,2.2197,2.2197,2.2197,2.2197,2.2197,2.2197,2.2197,2.2197,2.2197,2.2154,2.1999,2.1843,2.1718,2.1639,2.1524,2.1739,2.2634,2.2855,2.2903,2.3672,2.4039,2.4154,2.4085,2.4177,2.4131,2.4085,2.4166,2.4051,2.4108,2.4177,2.4143,2.4189,2.4177,2.4143,2.4097,2.3959,2.3821,2.3833,2.3902,2.374,2.3879,2.4166,2.4116,2.4007,2.3813,2.3593,2.3409,2.3224,2.3075,2.3001,2.3001,2.3001,2.3001,2.2916,2.2815,2.2703,2.2515,2.2289,2.2101,2.1959,2.1845,2.1807,2.1807,2.1845,2.1845,2.1828,2.188,2.1869,2.1818,2.1807,2.1807,2.1807,2.1807,2.1838,2.2045,2.2377,2.2553,2.2677,2.276,2.2791,2.2873,2.3008,2.2936,2.278,2.2832,2.2977,2.2987,2.2946,2.3205,2.3443,2.367,2.3888,2.4229,2.4457,2.5052,2.5599,2.5859,2.5963,2.5785,2.5689,2.5684,2.5683,2.5756,2.5648,2.5516,2.5565,2.5733,2.608,2.6486,2.6171,2.592,2.6193,2.6199,2.5994]}]]